Wetterdaten: Samstag, 27.07.2019
Datum Zeit Temp. A. Pool Temp. Temp. 5cm Feuchte A. Luftdruck Regen Wind Richtung Richtung Sonnenschein ET UV Solar Taupunkt Windchill Windben Empfang
27.07.2019 00:00 21,8 C 28,3 C 19,4 C 68 % 1002,6 hPa 0,0 l/m 4,5 km/h (1 Bft) S-SO 153 0 min 0,000 mm 0,0 UV-I 0 W/m 15,6 C 21,8 C 4,8 km/h (1 Bft) 98,18 %
27.07.2019 00:02 21,8 C 28,3 C 19,4 C 68 % 1002,6 hPa 0,0 l/m 4,8 km/h (1 Bft) S-SO 153 0 min 0,000 mm 0,0 UV-I 0 W/m 15,6 C 21,8 C 4,8 km/h (1 Bft) 15,38 %
27.07.2019 00:04 21,6 C 28,3 C 18,9 C 68 % 1002,6 hPa 0,0 l/m 2,9 km/h (1 Bft) S-SO 153 0 min 0,000 mm 0,0 UV-I 0 W/m 15,4 C 21,6 C 4,8 km/h (1 Bft) 66,67 %
27.07.2019 00:06 21,6 C 28,3 C 19,4 C 68 % 1002,7 hPa 0,0 l/m 4,5 km/h (1 Bft) S-SW 192 0 min 0,000 mm 0,0 UV-I 0 W/m 15,4 C 21,6 C 6,4 km/h (2 Bft) 97,87 %
27.07.2019 00:08 21,7 C 28,3 C 19,4 C 69 % 1002,7 hPa 0,0 l/m 4,2 km/h (1 Bft) S 189 0 min 0,000 mm 0,0 UV-I 0 W/m 15,8 C 21,7 C 6,4 km/h (2 Bft) 96,00 %
27.07.2019 00:10 21,7 C 28,3 C 19,4 C 67 % 1002,7 hPa 0,0 l/m 4,9 km/h (1 Bft) SW 219 0 min 0,000 mm 0,0 UV-I 0 W/m 15,3 C 21,7 C 6,4 km/h (2 Bft) 98,00 %
27.07.2019 00:12 21,7 C 28,3 C 19,4 C 67 % 1002,7 hPa 0,0 l/m 5,4 km/h (1 Bft) SW 229 0 min 0,000 mm 0,0 UV-I 0 W/m 15,3 C 21,7 C 6,4 km/h (2 Bft) 97,37 %
27.07.2019 00:14 21,9 C 28,3 C 19,4 C 66 % 1002,7 hPa 0,0 l/m 5,2 km/h (1 Bft) SW 227 0 min 0,000 mm 0,0 UV-I 0 W/m 15,3 C 21,9 C 6,4 km/h (2 Bft) 98,11 %
27.07.2019 00:16 22,1 C 28,3 C 19,4 C 65 % 1002,7 hPa 0,0 l/m 4,7 km/h (1 Bft) SW 227 0 min 0,000 mm 0,0 UV-I 0 W/m 15,2 C 22,1 C 6,4 km/h (2 Bft) 98,11 %
27.07.2019 00:18 22,1 C 28,3 C 19,4 C 66 % 1002,7 hPa 0,0 l/m 3,9 km/h (1 Bft) SW 227 0 min 0,000 mm 0,0 UV-I 0 W/m 15,4 C 22,1 C 4,8 km/h (1 Bft) 97,87 %
27.07.2019 00:20 22,2 C 28,3 C 19,4 C 66 % 1002,7 hPa 0,0 l/m 2,6 km/h (1 Bft) SW 227 0 min 0,000 mm 0,0 UV-I 0 W/m 15,5 C 22,2 C 4,8 km/h (1 Bft) 97,37 %
27.07.2019 00:22 22,1 C 28,3 C 19,4 C 65 % 1002,7 hPa 0,0 l/m 3,2 km/h (1 Bft) SW 227 0 min 0,000 mm 0,0 UV-I 0 W/m 15,2 C 22,1 C 4,8 km/h (1 Bft) 97,37 %
27.07.2019 00:24 22,0 C 28,3 C 19,4 C 65 % 1002,7 hPa 0,0 l/m 3,3 km/h (1 Bft) SW 226 0 min 0,000 mm 0,0 UV-I 0 W/m 15,1 C 22,0 C 4,8 km/h (1 Bft) 98,11 %
27.07.2019 00:26 21,9 C 28,3 C 19,4 C 66 % 1002,7 hPa 0,0 l/m 3,9 km/h (1 Bft) S-SO 156 0 min 0,000 mm 0,0 UV-I 0 W/m 15,3 C 21,9 C 8,0 km/h (2 Bft) 100,00 %
27.07.2019 00:28 22,1 C 28,3 C 19,4 C 65 % 1002,6 hPa 0,0 l/m 3,1 km/h (1 Bft) S-SO 156 0 min 0,000 mm 0,0 UV-I 0 W/m 15,2 C 22,1 C 4,8 km/h (1 Bft) 100,00 %
27.07.2019 00:30 22,3 C 28,3 C 19,4 C 64 % 1002,6 hPa 0,0 l/m 3,5 km/h (1 Bft) S-SO 156 0 min 0,000 mm 0,0 UV-I 0 W/m 15,2 C 22,3 C 4,8 km/h (1 Bft) 100,00 %
27.07.2019 00:32 22,3 C 28,3 C 19,4 C 64 % 1002,6 hPa 0,0 l/m 3,1 km/h (1 Bft) S-SO 156 0 min 0,000 mm 0,0 UV-I 0 W/m 15,2 C 22,3 C 4,8 km/h (1 Bft) 100,00 %
27.07.2019 00:34 22,1 C 28,3 C 19,4 C 64 % 1002,6 hPa 0,0 l/m 4,2 km/h (1 Bft) S-SO 156 0 min 0,000 mm 0,0 UV-I 0 W/m 15,0 C 22,1 C 4,8 km/h (1 Bft) 100,00 %
27.07.2019 00:36 21,9 C 28,3 C 19,4 C 66 % 1002,6 hPa 0,0 l/m 3,8 km/h (1 Bft) S-SO 156 0 min 0,000 mm 0,0 UV-I 0 W/m 15,3 C 21,9 C 4,8 km/h (1 Bft) 98,11 %
27.07.2019 00:38 21,8 C 28,3 C 18,9 C 66 % 1002,6 hPa 0,0 l/m 2,2 km/h (1 Bft) S-SO 156 0 min 0,000 mm 0,0 UV-I 0 W/m 15,2 C 21,8 C 3,2 km/h (1 Bft) 100,00 %
27.07.2019 00:40 21,7 C 28,3 C 18,9 C 66 % 1002,6 hPa 0,0 l/m 1,2 km/h (1 Bft) S-SO 156 0 min 0,000 mm 0,0 UV-I 0 W/m 15,1 C 21,7 C 1,6 km/h (1 Bft) 100,00 %
27.07.2019 00:42 21,8 C 28,3 C 18,9 C 66 % 1002,6 hPa 0,0 l/m 0,9 km/h (0 Bft) S-SO 156 0 min 0,000 mm 0,0 UV-I 0 W/m 15,2 C 21,8 C 3,2 km/h (1 Bft) 97,92 %
27.07.2019 00:44 21,9 C 28,3 C 18,9 C 65 % 1002,6 hPa 0,0 l/m 1,2 km/h (1 Bft) S-SO 156 0 min 0,000 mm 0,0 UV-I 0 W/m 15,0 C 21,9 C 3,2 km/h (1 Bft) 100,00 %
27.07.2019 00:46 22,0 C 28,3 C 18,9 C 65 % 1002,6 hPa 0,0 l/m 1,3 km/h (1 Bft) S-SO 156 0 min 0,000 mm 0,0 UV-I 0 W/m 15,1 C 22,0 C 3,2 km/h (1 Bft) 98,11 %
27.07.2019 00:48 22,1 C 28,3 C 18,3 C 64 % 1002,6 hPa 0,0 l/m 2,1 km/h (1 Bft) S-SO 156 0 min 0,000 mm 0,0 UV-I 0 W/m 15,0 C 22,1 C 3,2 km/h (1 Bft) 96,23 %
27.07.2019 00:50 21,9 C 28,3 C 18,3 C 66 % 1002,6 hPa 0,0 l/m 3,3 km/h (1 Bft) NO 38 0 min 0,000 mm 0,0 UV-I 0 W/m 15,3 C 21,9 C 4,8 km/h (1 Bft) 97,37 %
27.07.2019 00:52 21,6 C 28,3 C 18,3 C 67 % 1002,5 hPa 0,0 l/m 3,0 km/h (1 Bft) NO 38 0 min 0,000 mm 0,0 UV-I 0 W/m 15,2 C 21,6 C 4,8 km/h (1 Bft) 95,74 %
27.07.2019 00:54 21,3 C 28,3 C 18,3 C 69 % 1002,5 hPa 0,0 l/m 2,3 km/h (1 Bft) NO 38 0 min 0,000 mm 0,0 UV-I 0 W/m 15,4 C 21,3 C 3,2 km/h (1 Bft) 98,11 %
27.07.2019 00:56 21,2 C 28,3 C 18,3 C 67 % 1002,5 hPa 0,0 l/m 2,3 km/h (1 Bft) NO 38 0 min 0,000 mm 0,0 UV-I 0 W/m 14,8 C 21,2 C 4,8 km/h (1 Bft) 97,87 %
27.07.2019 00:58 21,2 C 28,3 C 18,3 C 67 % 1002,6 hPa 0,0 l/m 3,0 km/h (1 Bft) NO 38 0 min 0,000 mm 0,0 UV-I 0 W/m 14,8 C 21,2 C 4,8 km/h (1 Bft) 95,65 %
27.07.2019 01:00 21,3 C 28,3 C 17,8 C 66 % 1002,6 hPa 0,0 l/m 3,2 km/h (1 Bft) NO 38 0 min 0,025 mm 0,0 UV-I 0 W/m 14,7 C 21,3 C 4,8 km/h (1 Bft) 96,92 %
27.07.2019 01:02 21,4 C 28,3 C 17,8 C 66 % 1002,6 hPa 0,0 l/m 3,7 km/h (1 Bft) NO 39 0 min 0,000 mm 0,0 UV-I 0 W/m 14,8 C 21,4 C 4,8 km/h (1 Bft) 97,87 %
27.07.2019 01:04 21,4 C 28,3 C 17,8 C 66 % 1002,5 hPa 0,0 l/m 5,2 km/h (1 Bft) NO 51 0 min 0,000 mm 0,0 UV-I 0 W/m 14,8 C 21,4 C 8,0 km/h (2 Bft) 98,11 %
27.07.2019 01:06 21,5 C 28,3 C 18,3 C 65 % 1002,6 hPa 0,0 l/m 6,6 km/h (2 Bft) NO 49 0 min 0,000 mm 0,0 UV-I 0 W/m 14,6 C 21,4 C 9,7 km/h (2 Bft) 94,29 %
27.07.2019 01:08 21,7 C 27,8 C 18,3 C 65 % 1002,5 hPa 0,0 l/m 5,2 km/h (1 Bft) NO 47 0 min 0,000 mm 0,0 UV-I 0 W/m 14,8 C 21,7 C 6,4 km/h (2 Bft) 98,11 %
27.07.2019 01:10 21,8 C 27,8 C 18,9 C 64 % 1002,5 hPa 0,0 l/m 5,0 km/h (1 Bft) O-NO 66 0 min 0,000 mm 0,0 UV-I 0 W/m 14,7 C 21,8 C 11,3 km/h (2 Bft) 95,74 %
27.07.2019 01:12 21,9 C 27,8 C 18,9 C 64 % 1002,5 hPa 0,0 l/m 5,4 km/h (1 Bft) O 87 0 min 0,000 mm 0,0 UV-I 0 W/m 14,8 C 21,9 C 8,0 km/h (2 Bft) 100,00 %
27.07.2019 01:14 22,1 C 27,8 C 19,4 C 64 % 1002,5 hPa 0,0 l/m 7,1 km/h (2 Bft) O-NO 74 0 min 0,000 mm 0,0 UV-I 0 W/m 15,0 C 21,9 C 12,9 km/h (3 Bft) 97,87 %
27.07.2019 01:16 22,1 C 27,8 C 19,4 C 64 % 1002,4 hPa 0,0 l/m 5,9 km/h (2 Bft) O-NO 70 0 min 0,000 mm 0,0 UV-I 0 W/m 15,0 C 22,1 C 11,3 km/h (2 Bft) 97,44 %
27.07.2019 01:18 22,2 C 27,8 C 20,0 C 64 % 1002,3 hPa 0,0 l/m 7,1 km/h (2 Bft) O 95 0 min 0,000 mm 0,0 UV-I 0 W/m 15,1 C 22,0 C 11,3 km/h (2 Bft) 98,18 %
27.07.2019 01:20 22,2 C 27,8 C 20,0 C 64 % 1002,3 hPa 0,0 l/m 13,8 km/h (3 Bft) O 94 0 min 0,000 mm 0,0 UV-I 0 W/m 15,1 C 20,2 C 17,7 km/h (3 Bft) 95,56 %
27.07.2019 01:22 22,3 C 27,8 C 20,6 C 63 % 1002,3 hPa 0,0 l/m 12,1 km/h (2 Bft) O 84 0 min 0,000 mm 0,0 UV-I 0 W/m 14,9 C 20,7 C 17,7 km/h (3 Bft) 97,56 %
27.07.2019 01:24 22,4 C 27,8 C 20,6 C 63 % 1002,3 hPa 0,0 l/m 11,8 km/h (2 Bft) O-NO 76 0 min 0,000 mm 0,0 UV-I 0 W/m 15,0 C 20,8 C 16,1 km/h (3 Bft) 97,87 %
27.07.2019 01:26 22,3 C 27,8 C 20,6 C 64 % 1002,3 hPa 0,0 l/m 9,0 km/h (2 Bft) O 94 0 min 0,000 mm 0,0 UV-I 0 W/m 15,2 C 21,5 C 14,5 km/h (3 Bft) 97,87 %
27.07.2019 01:28 22,2 C 27,8 C 20,6 C 65 % 1002,3 hPa 0,0 l/m 9,0 km/h (2 Bft) O 80 0 min 0,000 mm 0,0 UV-I 0 W/m 15,3 C 21,4 C 12,9 km/h (3 Bft) 98,00 %
27.07.2019 01:30 22,1 C 27,8 C 20,6 C 64 % 1002,2 hPa 0,0 l/m 7,7 km/h (2 Bft) O 84 0 min 0,000 mm 0,0 UV-I 0 W/m 15,0 C 21,7 C 11,3 km/h (2 Bft) 96,23 %
27.07.2019 01:32 22,1 C 27,8 C 20,6 C 65 % 1002,2 hPa 0,0 l/m 8,6 km/h (2 Bft) O 80 0 min 0,000 mm 0,0 UV-I 0 W/m 15,2 C 21,4 C 12,9 km/h (3 Bft) 97,56 %
27.07.2019 01:34 22,2 C 27,8 C 20,6 C 64 % 1002,2 hPa 0,0 l/m 6,9 km/h (2 Bft) O 89 0 min 0,000 mm 0,0 UV-I 0 W/m 15,1 C 22,0 C 11,3 km/h (2 Bft) 96,00 %
27.07.2019 01:36 22,4 C 27,8 C 20,6 C 62 % 1002,1 hPa 0,0 l/m 5,5 km/h (1 Bft) O-NO 73 0 min 0,000 mm 0,0 UV-I 0 W/m 14,8 C 22,4 C 11,3 km/h (2 Bft) 97,73 %
27.07.2019 01:38 22,7 C 27,8 C 21,1 C 61 % 1002,1 hPa 0,0 l/m 6,0 km/h (2 Bft) NO 42 0 min 0,000 mm 0,0 UV-I 0 W/m 14,8 C 22,7 C 11,3 km/h (2 Bft) 96,00 %
27.07.2019 01:40 22,9 C 27,8 C 21,1 C 60 % 1002,1 hPa 0,0 l/m 8,8 km/h (2 Bft) O-NO 76 0 min 0,000 mm 0,0 UV-I 0 W/m 14,7 C 22,2 C 14,5 km/h (3 Bft) 97,37 %
27.07.2019 01:42 23,1 C 27,8 C 21,1 C 59 % 1002,2 hPa 0,0 l/m 8,2 km/h (2 Bft) O 101 0 min 0,000 mm 0,0 UV-I 0 W/m 14,6 C 22,5 C 12,9 km/h (3 Bft) 98,11 %
27.07.2019 01:44 23,2 C 27,8 C 21,1 C 59 % 1002,2 hPa 0,0 l/m 8,7 km/h (2 Bft) O 96 0 min 0,000 mm 0,0 UV-I 0 W/m 14,7 C 22,5 C 12,9 km/h (3 Bft) 97,56 %
27.07.2019 01:46 23,3 C 27,8 C 21,1 C 59 % 1002,2 hPa 0,0 l/m 7,6 km/h (2 Bft) O 96 0 min 0,000 mm 0,0 UV-I 0 W/m 14,8 C 22,9 C 11,3 km/h (2 Bft) 98,00 %
27.07.2019 01:48 23,3 C 27,8 C 21,1 C 59 % 1002,2 hPa 0,0 l/m 6,2 km/h (2 Bft) O-NO 69 0 min 0,000 mm 0,0 UV-I 0 W/m 14,8 C 23,3 C 9,7 km/h (2 Bft) 98,11 %
27.07.2019 01:50 23,2 C 27,8 C 21,1 C 59 % 1002,1 hPa 0,0 l/m 7,4 km/h (2 Bft) NO 44 0 min 0,000 mm 0,0 UV-I 0 W/m 14,7 C 22,9 C 11,3 km/h (2 Bft) 100,00 %
27.07.2019 01:52 23,2 C 27,8 C 21,1 C 59 % 1002,1 hPa 0,0 l/m 7,5 km/h (2 Bft) O-NO 71 0 min 0,000 mm 0,0 UV-I 0 W/m 14,7 C 22,9 C 11,3 km/h (2 Bft) 100,00 %
27.07.2019 01:54 23,2 C 27,8 C 21,1 C 59 % 1002,0 hPa 0,0 l/m 6,5 km/h (2 Bft) O-NO 74 0 min 0,000 mm 0,0 UV-I 0 W/m 14,7 C 23,2 C 9,7 km/h (2 Bft) 98,00 %
27.07.2019 01:56 23,1 C 27,8 C 21,1 C 59 % 1002,1 hPa 0,0 l/m 7,1 km/h (2 Bft) O 93 0 min 0,000 mm 0,0 UV-I 0 W/m 14,6 C 22,9 C 11,3 km/h (2 Bft) 100,00 %
27.07.2019 01:58 23,1 C 27,8 C 21,1 C 60 % 1002,0 hPa 0,0 l/m 7,0 km/h (2 Bft) O 94 0 min 0,000 mm 0,0 UV-I 0 W/m 14,9 C 22,9 C 11,3 km/h (2 Bft) 100,00 %
27.07.2019 02:00 22,9 C 27,8 C 20,6 C 60 % 1002,0 hPa 0,0 l/m 6,3 km/h (2 Bft) O 79 0 min 0,051 mm 0,0 UV-I 0 W/m 14,7 C 22,9 C 11,3 km/h (2 Bft) 100,00 %
27.07.2019 02:02 22,9 C 27,8 C 20,6 C 60 % 1002,0 hPa 0,0 l/m 6,5 km/h (2 Bft) O 90 0 min 0,000 mm 0,0 UV-I 0 W/m 14,7 C 22,9 C 11,3 km/h (2 Bft) 100,00 %
27.07.2019 02:04 22,8 C 27,8 C 20,6 C 61 % 1002,0 hPa 0,0 l/m 6,2 km/h (2 Bft) O 98 0 min 0,000 mm 0,0 UV-I 0 W/m 14,9 C 22,8 C 9,7 km/h (2 Bft) 100,00 %
27.07.2019 02:06 22,8 C 27,8 C 20,6 C 61 % 1002,0 hPa 0,0 l/m 5,7 km/h (1 Bft) O 80 0 min 0,000 mm 0,0 UV-I 0 W/m 14,9 C 22,8 C 9,7 km/h (2 Bft) 100,00 %
27.07.2019 02:09 22,8 C 27,8 C 20,6 C 61 % 1002,0 hPa 0,0 l/m 4,9 km/h (1 Bft) O 89 0 min 0,000 mm 0,0 UV-I 0 W/m 14,9 C 22,8 C 8,0 km/h (2 Bft) 98,73 %
27.07.2019 02:10 22,7 C 27,8 C 20,6 C 61 % 1002,0 hPa 0,0 l/m 6,4 km/h (2 Bft) O 84 0 min 0,000 mm 0,0 UV-I 0 W/m 14,8 C 22,7 C 9,7 km/h (2 Bft) 100,00 %
27.07.2019 02:12 22,7 C 27,8 C 20,6 C 62 % 1001,9 hPa 0,0 l/m 4,2 km/h (1 Bft) O-SO 108 0 min 0,000 mm 0,0 UV-I 0 W/m 15,0 C 22,7 C 6,4 km/h (2 Bft) 100,00 %
27.07.2019 02:14 22,7 C 27,8 C 20,6 C 62 % 1001,9 hPa 0,0 l/m 5,1 km/h (1 Bft) O-NO 77 0 min 0,000 mm 0,0 UV-I 0 W/m 15,0 C 22,7 C 6,4 km/h (2 Bft) 100,00 %
27.07.2019 02:16 22,6 C 27,8 C 20,6 C 62 % 1001,9 hPa 0,0 l/m 4,3 km/h (1 Bft) O 92 0 min 0,000 mm 0,0 UV-I 0 W/m 14,9 C 22,6 C 6,4 km/h (2 Bft) 100,00 %
27.07.2019 02:18 22,4 C 27,8 C 20,0 C 63 % 1001,9 hPa 0,0 l/m 5,5 km/h (1 Bft) O-NO 77 0 min 0,000 mm 0,0 UV-I 0 W/m 15,0 C 22,4 C 11,3 km/h (2 Bft) 97,87 %
27.07.2019 02:20 22,2 C 27,8 C 20,0 C 64 % 1001,9 hPa 0,0 l/m 4,1 km/h (1 Bft) O-NO 76 0 min 0,000 mm 0,0 UV-I 0 W/m 15,1 C 22,2 C 6,4 km/h (2 Bft) 97,87 %
27.07.2019 02:22 22,0 C 27,8 C 20,0 C 65 % 1001,9 hPa 0,0 l/m 2,9 km/h (1 Bft) O-NO 76 0 min 0,000 mm 0,0 UV-I 0 W/m 15,1 C 22,0 C 4,8 km/h (1 Bft) 95,12 %
27.07.2019 02:24 21,9 C 27,8 C 20,0 C 65 % 1001,9 hPa 0,0 l/m 3,5 km/h (1 Bft) O-NO 76 0 min 0,000 mm 0,0 UV-I 0 W/m 15,0 C 21,9 C 4,8 km/h (1 Bft) 97,87 %
27.07.2019 02:26 21,8 C 27,8 C 19,4 C 65 % 1001,9 hPa 0,0 l/m 3,5 km/h (1 Bft) O-NO 76 0 min 0,000 mm 0,0 UV-I 0 W/m 14,9 C 21,8 C 4,8 km/h (1 Bft) 96,23 %
27.07.2019 02:28 21,9 C 27,8 C 19,4 C 65 % 1001,9 hPa 0,0 l/m 2,1 km/h (1 Bft) O-NO 76 0 min 0,000 mm 0,0 UV-I 0 W/m 15,0 C 21,9 C 4,8 km/h (1 Bft) 97,87 %
27.07.2019 02:30 22,0 C 27,8 C 19,4 C 65 % 1001,9 hPa 0,0 l/m 2,3 km/h (1 Bft) O-NO 76 0 min 0,000 mm 0,0 UV-I 0 W/m 15,1 C 22,0 C 3,2 km/h (1 Bft) 95,83 %
27.07.2019 02:32 22,0 C 27,8 C 18,9 C 64 % 1001,9 hPa 0,0 l/m 2,8 km/h (1 Bft) O-NO 76 0 min 0,000 mm 0,0 UV-I 0 W/m 14,9 C 22,0 C 4,8 km/h (1 Bft) 95,59 %
27.07.2019 02:34 22,0 C 27,8 C 18,9 C 65 % 1001,9 hPa 0,0 l/m 3,0 km/h (1 Bft) O-NO 76 0 min 0,000 mm 0,0 UV-I 0 W/m 15,1 C 22,0 C 4,8 km/h (1 Bft) 97,87 %
27.07.2019 02:36 21,9 C 27,8 C 18,9 C 65 % 1001,9 hPa 0,0 l/m 3,0 km/h (1 Bft) O-NO 76 0 min 0,000 mm 0,0 UV-I 0 W/m 15,0 C 21,9 C 4,8 km/h (1 Bft) 97,37 %
27.07.2019 02:38 21,8 C 27,8 C 18,9 C 65 % 1001,8 hPa 0,0 l/m 3,0 km/h (1 Bft) O-NO 76 0 min 0,000 mm 0,0 UV-I 0 W/m 14,9 C 21,8 C 4,8 km/h (1 Bft) 96,23 %
27.07.2019 02:40 21,8 C 27,8 C 18,9 C 66 % 1001,8 hPa 0,0 l/m 3,6 km/h (1 Bft) O-NO 74 0 min 0,000 mm 0,0 UV-I 0 W/m 15,2 C 21,8 C 4,8 km/h (1 Bft) 98,00 %
27.07.2019 02:42 21,7 C 27,8 C 18,9 C 66 % 1001,8 hPa 0,0 l/m 4,0 km/h (1 Bft) O-NO 73 0 min 0,000 mm 0,0 UV-I 0 W/m 15,1 C 21,7 C 4,8 km/h (1 Bft) 100,00 %
27.07.2019 02:44 21,6 C 27,8 C 18,9 C 66 % 1001,9 hPa 0,0 l/m 4,3 km/h (1 Bft) NO 46 0 min 0,000 mm 0,0 UV-I 0 W/m 15,0 C 21,6 C 4,8 km/h (1 Bft) 100,00 %
27.07.2019 02:46 21,6 C 27,8 C 18,9 C 67 % 1001,8 hPa 0,0 l/m 4,7 km/h (1 Bft) NO 46 0 min 0,000 mm 0,0 UV-I 0 W/m 15,2 C 21,6 C 6,4 km/h (2 Bft) 98,11 %
27.07.2019 02:48 21,5 C 27,8 C 18,9 C 67 % 1001,8 hPa 0,0 l/m 4,8 km/h (1 Bft) NO 46 0 min 0,000 mm 0,0 UV-I 0 W/m 15,1 C 21,5 C 6,4 km/h (2 Bft) 100,00 %
27.07.2019 02:50 21,4 C 27,8 C 18,9 C 67 % 1001,8 hPa 0,0 l/m 4,9 km/h (1 Bft) NO 46 0 min 0,000 mm 0,0 UV-I 0 W/m 15,0 C 21,4 C 6,4 km/h (2 Bft) 100,00 %
27.07.2019 02:52 21,4 C 27,8 C 18,9 C 68 % 1001,8 hPa 0,0 l/m 5,9 km/h (2 Bft) NO 42 0 min 0,000 mm 0,0 UV-I 0 W/m 15,2 C 21,4 C 6,4 km/h (2 Bft) 100,00 %
27.07.2019 02:54 21,4 C 27,8 C 18,9 C 68 % 1001,8 hPa 0,0 l/m 4,7 km/h (1 Bft) O-NO 65 0 min 0,000 mm 0,0 UV-I 0 W/m 15,2 C 21,4 C 6,4 km/h (2 Bft) 100,00 %
27.07.2019 02:56 21,5 C 27,8 C 18,9 C 67 % 1001,8 hPa 0,0 l/m 2,8 km/h (1 Bft) O-NO 65 0 min 0,000 mm 0,0 UV-I 0 W/m 15,1 C 21,5 C 4,8 km/h (1 Bft) 100,00 %
27.07.2019 02:58 21,6 C 27,8 C 18,9 C 67 % 1001,8 hPa 0,0 l/m 2,4 km/h (1 Bft) O-NO 65 0 min 0,000 mm 0,0 UV-I 0 W/m 15,2 C 21,6 C 4,8 km/h (1 Bft) 97,37 %
27.07.2019 03:00 21,6 C 27,8 C 18,9 C 67 % 1001,8 hPa 0,0 l/m 3,3 km/h (1 Bft) O-NO 65 0 min 0,026 mm 0,0 UV-I 0 W/m 15,2 C 21,6 C 4,8 km/h (1 Bft) 100,00 %
27.07.2019 03:02 21,6 C 27,8 C 18,9 C 67 % 1001,8 hPa 0,0 l/m 3,3 km/h (1 Bft) O-NO 65 0 min 0,000 mm 0,0 UV-I 0 W/m 15,2 C 21,6 C 4,8 km/h (1 Bft) 100,00 %
27.07.2019 03:04 21,5 C 27,8 C 18,9 C 67 % 1001,7 hPa 0,0 l/m 3,5 km/h (1 Bft) O-NO 65 0 min 0,000 mm 0,0 UV-I 0 W/m 15,1 C 21,5 C 4,8 km/h (1 Bft) 100,00 %
27.07.2019 03:06 21,4 C 27,8 C 18,9 C 67 % 1001,7 hPa 0,0 l/m 3,9 km/h (1 Bft) O-NO 65 0 min 0,000 mm 0,0 UV-I 0 W/m 15,0 C 21,4 C 4,8 km/h (1 Bft) 100,00 %
27.07.2019 03:08 21,4 C 27,8 C 18,9 C 67 % 1001,7 hPa 0,0 l/m 3,3 km/h (1 Bft) O-NO 65 0 min 0,000 mm 0,0 UV-I 0 W/m 15,0 C 21,4 C 4,8 km/h (1 Bft) 98,11 %
27.07.2019 03:10 21,4 C 27,8 C 18,9 C 67 % 1001,7 hPa 0,0 l/m 2,2 km/h (1 Bft) O-NO 65 0 min 0,000 mm 0,0 UV-I 0 W/m 15,0 C 21,4 C 3,2 km/h (1 Bft) 95,45 %
27.07.2019 03:12 21,5 C 27,8 C 18,9 C 67 % 1001,6 hPa 0,0 l/m 1,5 km/h (1 Bft) O-NO 65 0 min 0,000 mm 0,0 UV-I 0 W/m 15,1 C 21,5 C 3,2 km/h (1 Bft) 95,45 %
27.07.2019 03:14 21,4 C 27,8 C 18,9 C 67 % 1001,6 hPa 0,0 l/m 1,7 km/h (1 Bft) O-NO 65 0 min 0,000 mm 0,0 UV-I 0 W/m 15,0 C 21,4 C 3,2 km/h (1 Bft) 96,23 %
27.07.2019 03:16 21,4 C 27,8 C 18,9 C 67 % 1001,6 hPa 0,0 l/m 3,2 km/h (1 Bft) O-NO 65 0 min 0,000 mm 0,0 UV-I 0 W/m 15,0 C 21,4 C 4,8 km/h (1 Bft) 94,00 %
27.07.2019 03:18 21,4 C 27,8 C 18,9 C 67 % 1001,5 hPa 0,0 l/m 3,2 km/h (1 Bft) O-NO 65 0 min 0,000 mm 0,0 UV-I 0 W/m 15,0 C 21,4 C 4,8 km/h (1 Bft) 93,62 %
27.07.2019 03:20 21,3 C 27,8 C 18,9 C 68 % 1001,5 hPa 0,0 l/m 3,5 km/h (1 Bft) O-NO 65 0 min 0,000 mm 0,0 UV-I 0 W/m 15,1 C 21,3 C 4,8 km/h (1 Bft) 95,74 %
27.07.2019 03:22 21,2 C 27,8 C 18,9 C 69 % 1001,5 hPa 0,0 l/m 3,3 km/h (1 Bft) NO 52 0 min 0,000 mm 0,0 UV-I 0 W/m 15,3 C 21,2 C 6,4 km/h (2 Bft) 92,11 %
27.07.2019 03:24 21,1 C 27,8 C 18,9 C 69 % 1001,5 hPa 0,0 l/m 3,3 km/h (1 Bft) NO 52 0 min 0,000 mm 0,0 UV-I 0 W/m 15,2 C 21,1 C 4,8 km/h (1 Bft) 96,23 %
27.07.2019 03:26 20,9 C 27,8 C 18,9 C 70 % 1001,4 hPa 0,0 l/m 2,8 km/h (1 Bft) NO 52 0 min 0,000 mm 0,0 UV-I 0 W/m 15,2 C 20,9 C 4,8 km/h (1 Bft) 96,00 %
27.07.2019 03:28 20,9 C 27,8 C 18,9 C 70 % 1001,4 hPa 0,0 l/m 4,5 km/h (1 Bft) NO 36 0 min 0,000 mm 0,0 UV-I 0 W/m 15,2 C 20,9 C 8,0 km/h (2 Bft) 94,74 %
27.07.2019 03:30 20,9 C 27,8 C 18,9 C 70 % 1001,4 hPa 0,0 l/m 4,6 km/h (1 Bft) NO 44 0 min 0,000 mm 0,0 UV-I 0 W/m 15,2 C 20,9 C 6,4 km/h (2 Bft) 93,62 %
27.07.2019 03:32 21,1 C 27,8 C 18,9 C 69 % 1001,4 hPa 0,0 l/m 5,4 km/h (1 Bft) NO 46 0 min 0,000 mm 0,0 UV-I 0 W/m 15,2 C 21,1 C 6,4 km/h (2 Bft) 96,23 %
27.07.2019 03:34 21,2 C 27,8 C 18,9 C 69 % 1001,4 hPa 0,0 l/m 4,0 km/h (1 Bft) NO 54 0 min 0,000 mm 0,0 UV-I 0 W/m 15,3 C 21,2 C 8,0 km/h (2 Bft) 93,62 %
27.07.2019 03:36 21,2 C 27,8 C 19,4 C 69 % 1001,4 hPa 0,0 l/m 3,8 km/h (1 Bft) NO 54 0 min 0,000 mm 0,0 UV-I 0 W/m 15,3 C 21,2 C 4,8 km/h (1 Bft) 95,74 %
27.07.2019 03:38 21,1 C 27,8 C 18,9 C 69 % 1001,4 hPa 0,0 l/m 3,3 km/h (1 Bft) NO 54 0 min 0,000 mm 0,0 UV-I 0 W/m 15,2 C 21,1 C 4,8 km/h (1 Bft) 94,74 %
27.07.2019 03:40 21,1 C 27,8 C 18,9 C 69 % 1001,4 hPa 0,0 l/m 2,5 km/h (1 Bft) NO 54 0 min 0,000 mm 0,0 UV-I 0 W/m 15,2 C 21,1 C 4,8 km/h (1 Bft) 96,23 %
27.07.2019 03:42 21,2 C 27,8 C 18,9 C 69 % 1001,4 hPa 0,0 l/m 2,6 km/h (1 Bft) NO 54 0 min 0,000 mm 0,0 UV-I 0 W/m 15,3 C 21,2 C 3,2 km/h (1 Bft) 93,62 %
27.07.2019 03:44 21,1 C 27,8 C 18,9 C 69 % 1001,4 hPa 0,0 l/m 2,4 km/h (1 Bft) NO 54 0 min 0,000 mm 0,0 UV-I 0 W/m 15,2 C 21,1 C 3,2 km/h (1 Bft) 98,11 %
27.07.2019 03:46 21,1 C 27,8 C 18,9 C 69 % 1001,4 hPa 0,0 l/m 1,3 km/h (1 Bft) NO 54 0 min 0,000 mm 0,0 UV-I 0 W/m 15,2 C 21,1 C 3,2 km/h (1 Bft) 97,62 %
27.07.2019 03:48 21,1 C 27,8 C 18,9 C 69 % 1001,5 hPa 0,0 l/m 1,5 km/h (1 Bft) NO 54 0 min 0,000 mm 0,0 UV-I 0 W/m 15,2 C 21,1 C 1,6 km/h (1 Bft) 95,45 %
27.07.2019 03:50 21,2 C 27,8 C 18,9 C 69 % 1001,5 hPa 0,0 l/m 1,1 km/h (1 Bft) NO 54 0 min 0,000 mm 0,0 UV-I 0 W/m 15,3 C 21,2 C 1,6 km/h (1 Bft) 96,00 %
27.07.2019 03:52 21,3 C 27,8 C 18,9 C 69 % 1001,5 hPa 0,0 l/m 1,3 km/h (1 Bft) NO 54 0 min 0,000 mm 0,0 UV-I 0 W/m 15,4 C 21,3 C 3,2 km/h (1 Bft) 94,00 %
27.07.2019 03:54 21,2 C 27,8 C 18,9 C 71 % 1001,6 hPa 0,0 l/m 2,3 km/h (1 Bft) SO 132 0 min 0,000 mm 0,0 UV-I 0 W/m 15,7 C 21,2 C 4,8 km/h (1 Bft) 94,74 %
27.07.2019 03:56 21,1 C 27,8 C 18,9 C 71 % 1001,5 hPa 0,0 l/m 2,8 km/h (1 Bft) SO 132 0 min 0,000 mm 0,0 UV-I 0 W/m 15,6 C 21,1 C 4,8 km/h (1 Bft) 95,45 %
27.07.2019 03:58 21,1 C 27,8 C 18,9 C 71 % 1001,5 hPa 0,0 l/m 2,1 km/h (1 Bft) SO 132 0 min 0,000 mm 0,0 UV-I 0 W/m 15,6 C 21,1 C 4,8 km/h (1 Bft) 94,34 %
27.07.2019 04:00 20,9 C 27,8 C 18,9 C 72 % 1001,5 hPa 0,0 l/m 3,0 km/h (1 Bft) SO 132 0 min 0,025 mm 0,0 UV-I 0 W/m 15,7 C 20,9 C 6,4 km/h (2 Bft) 96,23 %
27.07.2019 04:02 20,8 C 27,8 C 18,3 C 71 % 1001,4 hPa 0,0 l/m 4,0 km/h (1 Bft) O 100 0 min 0,000 mm 0,0 UV-I 0 W/m 15,3 C 20,8 C 9,7 km/h (2 Bft) 90,91 %
27.07.2019 04:04 20,9 C 27,8 C 18,3 C 71 % 1001,4 hPa 0,0 l/m 3,6 km/h (1 Bft) O 95 0 min 0,000 mm 0,0 UV-I 0 W/m 15,4 C 20,9 C 6,4 km/h (2 Bft) 94,00 %
27.07.2019 04:06 21,0 C 27,8 C 18,3 C 70 % 1001,4 hPa 0,0 l/m 2,6 km/h (1 Bft) O 98 0 min 0,000 mm 0,0 UV-I 0 W/m 15,3 C 21,0 C 4,8 km/h (1 Bft) 94,00 %
27.07.2019 04:08 21,1 C 27,8 C 18,3 C 69 % 1001,3 hPa 0,0 l/m 2,8 km/h (1 Bft) SO 136 0 min 0,000 mm 0,0 UV-I 0 W/m 15,2 C 21,1 C 4,8 km/h (1 Bft) 95,45 %
27.07.2019 04:10 21,1 C 27,8 C 18,3 C 69 % 1001,3 hPa 0,0 l/m 3,7 km/h (1 Bft) S-SO 155 0 min 0,000 mm 0,0 UV-I 0 W/m 15,2 C 21,1 C 6,4 km/h (2 Bft) 98,00 %
27.07.2019 04:12 21,1 C 27,8 C 18,9 C 70 % 1001,3 hPa 0,0 l/m 2,9 km/h (1 Bft) S-SO 155 0 min 0,000 mm 0,0 UV-I 0 W/m 15,4 C 21,1 C 4,8 km/h (1 Bft) 97,87 %
27.07.2019 04:14 20,9 C 27,8 C 18,3 C 70 % 1001,3 hPa 0,0 l/m 3,4 km/h (1 Bft) S-SO 155 0 min 0,000 mm 0,0 UV-I 0 W/m 15,2 C 20,9 C 4,8 km/h (1 Bft) 100,00 %
27.07.2019 04:16 20,8 C 27,8 C 18,3 C 71 % 1001,3 hPa 0,0 l/m 3,1 km/h (1 Bft) S-SO 155 0 min 0,000 mm 0,0 UV-I 0 W/m 15,3 C 20,8 C 4,8 km/h (1 Bft) 100,00 %
27.07.2019 04:18 20,6 C 27,8 C 18,3 C 72 % 1001,3 hPa 0,0 l/m 3,5 km/h (1 Bft) O-SO 117 0 min 0,000 mm 0,0 UV-I 0 W/m 15,4 C 20,6 C 6,4 km/h (2 Bft) 100,00 %
27.07.2019 04:20 20,6 C 27,8 C 18,3 C 71 % 1001,3 hPa 0,0 l/m 2,7 km/h (1 Bft) O 91 0 min 0,000 mm 0,0 UV-I 0 W/m 15,2 C 20,6 C 4,8 km/h (1 Bft) 100,00 %
27.07.2019 04:22 20,7 C 27,8 C 18,3 C 71 % 1001,3 hPa 0,0 l/m 2,4 km/h (1 Bft) O 92 0 min 0,000 mm 0,0 UV-I 0 W/m 15,2 C 20,7 C 4,8 km/h (1 Bft) 100,00 %
27.07.2019 04:24 20,8 C 27,8 C 18,3 C 71 % 1001,3 hPa 0,0 l/m 1,5 km/h (1 Bft) O 92 0 min 0,000 mm 0,0 UV-I 0 W/m 15,3 C 20,8 C 3,2 km/h (1 Bft) 100,00 %
27.07.2019 04:26 20,6 C 27,8 C 17,8 C 72 % 1001,3 hPa 0,0 l/m 1,9 km/h (1 Bft) O 92 0 min 0,000 mm 0,0 UV-I 0 W/m 15,4 C 20,6 C 3,2 km/h (1 Bft) 97,14 %
27.07.2019 04:28 20,3 C 27,8 C 17,8 C 73 % 1001,3 hPa 0,0 l/m 1,9 km/h (1 Bft) O 92 0 min 0,000 mm 0,0 UV-I 0 W/m 15,3 C 20,3 C 3,2 km/h (1 Bft) 100,00 %
27.07.2019 04:30 20,2 C 27,8 C 17,8 C 74 % 1001,2 hPa 0,0 l/m 1,9 km/h (1 Bft) O 92 0 min 0,000 mm 0,0 UV-I 0 W/m 15,4 C 20,2 C 3,2 km/h (1 Bft) 100,00 %
27.07.2019 04:32 20,2 C 27,8 C 17,8 C 74 % 1001,3 hPa 0,0 l/m 1,3 km/h (1 Bft) O 92 0 min 0,000 mm 0,0 UV-I 0 W/m 15,4 C 20,2 C 1,6 km/h (1 Bft) 100,00 %
27.07.2019 04:34 20,2 C 27,2 C 17,2 C 74 % 1001,2 hPa 0,0 l/m 1,0 km/h (0 Bft) O 92 0 min 0,000 mm 0,0 UV-I 0 W/m 15,4 C 20,2 C 3,2 km/h (1 Bft) 100,00 %
27.07.2019 04:36 20,2 C 27,2 C 17,2 C 74 % 1001,2 hPa 0,0 l/m 0,3 km/h (0 Bft) O 92 0 min 0,000 mm 0,0 UV-I 0 W/m 15,4 C 20,2 C 1,6 km/h (1 Bft) 100,00 %
27.07.2019 04:38 20,3 C 27,2 C 17,2 C 73 % 1001,2 hPa 0,0 l/m 0,1 km/h (0 Bft) O 92 0 min 0,000 mm 0,0 UV-I 0 W/m 15,3 C 20,3 C 1,6 km/h (1 Bft) 100,00 %
27.07.2019 04:40 20,3 C 27,2 C 17,2 C 75 % 1001,2 hPa 0,0 l/m 0,1 km/h (0 Bft) O 92 0 min 0,000 mm 0,0 UV-I 0 W/m 15,7 C 20,3 C 1,6 km/h (1 Bft) 94,74 %
27.07.2019 04:42 20,2 C 27,2 C 17,2 C 76 % 1001,2 hPa 0,0 l/m 1,0 km/h (0 Bft) O 92 0 min 0,000 mm 0,0 UV-I 0 W/m 15,8 C 20,2 C 3,2 km/h (1 Bft) 100,00 %
27.07.2019 04:44 20,2 C 27,2 C 17,8 C 76 % 1001,2 hPa 0,0 l/m 2,0 km/h (1 Bft) O 92 0 min 0,000 mm 0,0 UV-I 0 W/m 15,8 C 20,2 C 3,2 km/h (1 Bft) 100,00 %
27.07.2019 04:46 20,0 C 27,2 C 17,8 C 76 % 1001,2 hPa 0,0 l/m 2,6 km/h (1 Bft) O-SO 107 0 min 0,000 mm 0,0 UV-I 0 W/m 15,6 C 20,0 C 4,8 km/h (1 Bft) 100,00 %
27.07.2019 04:48 19,9 C 27,2 C 17,8 C 77 % 1001,1 hPa 0,0 l/m 1,5 km/h (1 Bft) O-SO 107 0 min 0,000 mm 0,0 UV-I 0 W/m 15,7 C 19,9 C 3,2 km/h (1 Bft) 100,00 %
27.07.2019 04:50 19,9 C 27,2 C 17,8 C 76 % 1001,1 hPa 0,0 l/m 1,0 km/h (0 Bft) O-SO 107 0 min 0,000 mm 0,0 UV-I 0 W/m 15,5 C 19,9 C 1,6 km/h (1 Bft) 100,00 %
27.07.2019 04:52 20,1 C 27,2 C 17,8 C 76 % 1001,1 hPa 0,0 l/m 1,2 km/h (1 Bft) O-SO 107 0 min 0,000 mm 0,0 UV-I 0 W/m 15,7 C 20,1 C 3,2 km/h (1 Bft) 100,00 %
27.07.2019 04:54 19,9 C 27,2 C 17,2 C 75 % 1001,1 hPa 0,0 l/m 0,0 km/h (0 Bft) O-SO 107 0 min 0,000 mm 0,0 UV-I 0 W/m 15,3 C 19,9 C 0,0 km/h (0 Bft) 100,00 %
27.07.2019 04:56 19,8 C 27,2 C 17,2 C 76 % 1001,0 hPa 0,0 l/m 0,3 km/h (0 Bft) O-SO 107 0 min 0,000 mm 0,0 UV-I 0 W/m 15,4 C 19,8 C 1,6 km/h (1 Bft) 97,44 %
27.07.2019 04:58 19,7 C 27,2 C 17,2 C 78 % 1001,0 hPa 0,0 l/m 0,8 km/h (0 Bft) O-SO 107 0 min 0,000 mm 0,0 UV-I 0 W/m 15,8 C 19,7 C 1,6 km/h (1 Bft) 100,00 %
27.07.2019 05:00 19,6 C 27,2 C 17,2 C 77 % 1001,1 hPa 0,0 l/m 1,1 km/h (1 Bft) O-SO 107 0 min 0,025 mm 0,0 UV-I 0 W/m 15,5 C 19,6 C 1,6 km/h (1 Bft) 100,00 %
27.07.2019 05:02 19,6 C 27,2 C 17,2 C 77 % 1001,0 hPa 0,0 l/m 1,0 km/h (0 Bft) O-SO 107 0 min 0,000 mm 0,0 UV-I 0 W/m 15,5 C 19,6 C 1,6 km/h (1 Bft) 100,00 %
27.07.2019 05:04 19,4 C 27,2 C 17,2 C 77 % 1001,0 hPa 0,0 l/m 1,2 km/h (1 Bft) O-SO 107 0 min 0,000 mm 0,0 UV-I 0 W/m 15,3 C 19,4 C 1,6 km/h (1 Bft) 98,00 %
27.07.2019 05:06 19,3 C 27,2 C 17,2 C 78 % 1001,0 hPa 0,0 l/m 0,9 km/h (0 Bft) O-SO 107 0 min 0,000 mm 0,0 UV-I 0 W/m 15,4 C 19,3 C 1,6 km/h (1 Bft) 97,37 %
27.07.2019 05:08 19,1 C 27,2 C 17,2 C 78 % 1000,9 hPa 0,0 l/m 1,5 km/h (1 Bft) O-SO 107 0 min 0,000 mm 0,0 UV-I 0 W/m 15,2 C 19,1 C 3,2 km/h (1 Bft) 100,00 %
27.07.2019 05:10 19,1 C 27,2 C 16,7 C 79 % 1000,9 hPa 0,0 l/m 1,1 km/h (1 Bft) O-SO 107 0 min 0,000 mm 0,0 UV-I 0 W/m 15,4 C 19,1 C 1,6 km/h (1 Bft) 98,11 %
27.07.2019 05:12 19,1 C 27,2 C 16,7 C 79 % 1000,9 hPa 0,0 l/m 0,6 km/h (0 Bft) O-SO 107 0 min 0,000 mm 0,0 UV-I 0 W/m 15,4 C 19,1 C 1,6 km/h (1 Bft) 95,74 %
27.07.2019 05:14 19,2 C 27,2 C 16,7 C 78 % 1000,9 hPa 0,0 l/m 0,4 km/h (0 Bft) O-SO 107 0 min 0,000 mm 0,0 UV-I 0 W/m 15,3 C 19,2 C 1,6 km/h (1 Bft) 91,49 %
27.07.2019 05:16 19,1 C 27,2 C 16,7 C 78 % 1000,9 hPa 0,0 l/m 0,9 km/h (0 Bft) O-SO 107 0 min 0,000 mm 0,0 UV-I 0 W/m 15,2 C 19,1 C 1,6 km/h (1 Bft) 97,56 %
27.07.2019 05:18 19,1 C 27,2 C 16,7 C 79 % 1000,9 hPa 0,0 l/m 1,6 km/h (1 Bft) O-SO 107 0 min 0,000 mm 0,0 UV-I 0 W/m 15,4 C 19,1 C 1,6 km/h (1 Bft) 97,67 %
27.07.2019 05:20 19,1 C 27,2 C 16,7 C 79 % 1001,0 hPa 0,0 l/m 2,1 km/h (1 Bft) O-SO 107 0 min 0,000 mm 0,0 UV-I 5 W/m 15,4 C 19,1 C 3,2 km/h (1 Bft) 92,00 %
27.07.2019 05:22 19,1 C 27,2 C 16,7 C 80 % 1001,0 hPa 0,0 l/m 1,8 km/h (1 Bft) O-SO 107 0 min 0,000 mm 0,0 UV-I 5 W/m 15,6 C 19,1 C 3,2 km/h (1 Bft) 96,23 %
27.07.2019 05:24 18,9 C 27,2 C 16,7 C 80 % 1000,9 hPa 0,0 l/m 1,0 km/h (0 Bft) O-SO 107 0 min 0,000 mm 0,0 UV-I 5 W/m 15,4 C 18,9 C 1,6 km/h (1 Bft) 94,74 %
27.07.2019 05:26 18,7 C 27,2 C 16,7 C 80 % 1000,9 hPa 0,0 l/m 2,2 km/h (1 Bft) O-SO 107 0 min 0,000 mm 0,0 UV-I 5 W/m 15,2 C 18,7 C 3,2 km/h (1 Bft) 96,23 %
27.07.2019 05:28 18,5 C 27,2 C 16,7 C 82 % 1000,9 hPa 0,0 l/m 1,7 km/h (1 Bft) O-SO 107 0 min 0,000 mm 0,0 UV-I 5 W/m 15,4 C 18,5 C 3,2 km/h (1 Bft) 96,00 %
27.07.2019 05:30 18,6 C 27,2 C 16,7 C 82 % 1000,9 hPa 0,0 l/m 0,4 km/h (0 Bft) O-SO 107 0 min 0,000 mm 0,0 UV-I 7 W/m 15,5 C 18,6 C 1,6 km/h (1 Bft) 95,74 %
27.07.2019 05:32 18,6 C 27,2 C 17,2 C 82 % 1000,9 hPa 0,0 l/m 1,4 km/h (1 Bft) O-SO 107 0 min 0,000 mm 0,0 UV-I 7 W/m 15,5 C 18,6 C 3,2 km/h (1 Bft) 95,12 %
27.07.2019 05:34 18,7 C 27,2 C 17,2 C 82 % 1000,9 hPa 0,0 l/m 2,5 km/h (1 Bft) O-SO 108 0 min 0,000 mm 0,0 UV-I 7 W/m 15,6 C 18,7 C 3,2 km/h (1 Bft) 94,00 %
27.07.2019 05:36 18,7 C 27,2 C 17,2 C 81 % 1000,9 hPa 0,0 l/m 3,8 km/h (1 Bft) S 186 0 min 0,000 mm 0,0 UV-I 9 W/m 15,4 C 18,7 C 4,8 km/h (1 Bft) 94,87 %
27.07.2019 05:38 18,8 C 27,2 C 17,8 C 81 % 1001,0 hPa 0,0 l/m 5,0 km/h (1 Bft) S-SW 209 0 min 0,000 mm 0,0 UV-I 9 W/m 15,5 C 18,8 C 6,4 km/h (2 Bft) 94,00 %
27.07.2019 05:40 18,8 C 27,2 C 17,8 C 81 % 1001,0 hPa 0,0 l/m 4,9 km/h (1 Bft) SW 215 0 min 0,000 mm 0,0 UV-I 11 W/m 15,5 C 18,8 C 6,4 km/h (2 Bft) 96,00 %
27.07.2019 05:42 18,7 C 27,2 C 17,8 C 81 % 1001,1 hPa 0,0 l/m 4,7 km/h (1 Bft) SW 215 0 min 0,000 mm 0,0 UV-I 12 W/m 15,4 C 18,7 C 4,8 km/h (1 Bft) 98,00 %
27.07.2019 05:44 18,6 C 27,2 C 17,8 C 81 % 1001,1 hPa 0,0 l/m 4,7 km/h (1 Bft) SW 215 2 min 0,000 mm 0,0 UV-I 13 W/m 15,3 C 18,6 C 6,4 km/h (2 Bft) 95,74 %
27.07.2019 05:46 18,6 C 27,2 C 17,8 C 81 % 1001,1 hPa 0,0 l/m 1,9 km/h (1 Bft) SW 215 2 min 0,000 mm 0,0 UV-I 15 W/m 15,3 C 18,6 C 3,2 km/h (1 Bft) 100,00 %
27.07.2019 05:48 18,7 C 27,2 C 17,8 C 81 % 1001,1 hPa 0,0 l/m 1,9 km/h (1 Bft) S-SW 211 2 min 0,000 mm 0,0 UV-I 17 W/m 15,4 C 18,7 C 3,2 km/h (1 Bft) 100,00 %
27.07.2019 05:50 18,7 C 27,2 C 17,8 C 80 % 1001,1 hPa 0,0 l/m 1,3 km/h (1 Bft) S-SW 211 2 min 0,000 mm 0,0 UV-I 19 W/m 15,2 C 18,7 C 1,6 km/h (1 Bft) 98,00 %
27.07.2019 05:52 18,8 C 27,2 C 17,8 C 80 % 1001,2 hPa 0,0 l/m 1,4 km/h (1 Bft) N-NW 327 2 min 0,000 mm 0,0 UV-I 21 W/m 15,3 C 18,8 C 3,2 km/h (1 Bft) 100,00 %
27.07.2019 05:54 18,8 C 27,2 C 17,8 C 80 % 1001,2 hPa 0,0 l/m 0,1 km/h (0 Bft) N-NW 327 2 min 0,000 mm 0,0 UV-I 24 W/m 15,3 C 18,8 C 1,6 km/h (1 Bft) 100,00 %
27.07.2019 05:56 18,9 C 27,2 C 17,8 C 80 % 1001,2 hPa 0,0 l/m 2,3 km/h (1 Bft) N-NW 327 2 min 0,000 mm 0,0 UV-I 26 W/m 15,4 C 18,9 C 3,2 km/h (1 Bft) 100,00 %
27.07.2019 05:58 19,0 C 27,2 C 17,8 C 80 % 1001,2 hPa 0,0 l/m 2,9 km/h (1 Bft) NW 326 2 min 0,000 mm 0,0 UV-I 28 W/m 15,5 C 19,0 C 3,2 km/h (1 Bft) 100,00 %
27.07.2019 06:00 19,1 C 27,2 C 17,8 C 79 % 1001,2 hPa 0,0 l/m 1,6 km/h (1 Bft) N-NW 327 0 min 0,026 mm 0,0 UV-I 30 W/m 15,4 C 19,1 C 3,2 km/h (1 Bft) 100,00 %
27.07.2019 06:02 19,1 C 27,2 C 17,8 C 80 % 1001,2 hPa 0,0 l/m 0,4 km/h (0 Bft) N-NW 327 0 min 0,000 mm 0,0 UV-I 32 W/m 15,6 C 19,1 C 1,6 km/h (1 Bft) 100,00 %
27.07.2019 06:04 19,1 C 27,2 C 18,3 C 80 % 1001,2 hPa 0,0 l/m 1,2 km/h (1 Bft) NW 326 0 min 0,000 mm 0,0 UV-I 33 W/m 15,6 C 19,1 C 1,6 km/h (1 Bft) 100,00 %
27.07.2019 06:06 19,1 C 27,2 C 18,3 C 80 % 1001,2 hPa 0,0 l/m 1,9 km/h (1 Bft) NW 326 0 min 0,000 mm 0,0 UV-I 35 W/m 15,6 C 19,1 C 3,2 km/h (1 Bft) 100,00 %
27.07.2019 06:08 19,1 C 27,2 C 18,3 C 80 % 1001,2 hPa 0,0 l/m 1,0 km/h (0 Bft) N-NW 329 0 min 0,000 mm 0,0 UV-I 36 W/m 15,6 C 19,1 C 1,6 km/h (1 Bft) 100,00 %
27.07.2019 06:10 19,1 C 27,2 C 18,3 C 80 % 1001,2 hPa 0,0 l/m 0,5 km/h (0 Bft) N-NW 329 0 min 0,000 mm 0,0 UV-I 37 W/m 15,6 C 19,1 C 1,6 km/h (1 Bft) 100,00 %
27.07.2019 06:12 19,1 C 27,2 C 18,3 C 80 % 1001,2 hPa 0,0 l/m 0,7 km/h (0 Bft) N-NW 336 0 min 0,000 mm 0,0 UV-I 37 W/m 15,6 C 19,1 C 1,6 km/h (1 Bft) 100,00 %
27.07.2019 06:14 19,1 C 27,2 C 18,3 C 80 % 1001,1 hPa 0,0 l/m 1,7 km/h (1 Bft) N-NW 336 0 min 0,000 mm 0,0 UV-I 37 W/m 15,6 C 19,1 C 3,2 km/h (1 Bft) 100,00 %
27.07.2019 06:16 19,1 C 27,2 C 18,3 C 80 % 1001,1 hPa 0,0 l/m 2,8 km/h (1 Bft) N-NW 336 0 min 0,000 mm 0,0 UV-I 37 W/m 15,6 C 19,1 C 4,8 km/h (1 Bft) 96,00 %
27.07.2019 06:18 18,9 C 27,2 C 18,3 C 80 % 1001,2 hPa 0,0 l/m 3,7 km/h (1 Bft) S 178 0 min 0,000 mm 0,0 UV-I 39 W/m 15,4 C 18,9 C 4,8 km/h (1 Bft) 100,00 %
27.07.2019 06:20 18,9 C 27,2 C 18,9 C 80 % 1001,2 hPa 0,0 l/m 3,9 km/h (1 Bft) S 178 0 min 0,000 mm 0,0 UV-I 40 W/m 15,4 C 18,9 C 4,8 km/h (1 Bft) 100,00 %
27.07.2019 06:22 19,0 C 27,2 C 18,9 C 80 % 1001,3 hPa 0,0 l/m 2,8 km/h (1 Bft) S 178 0 min 0,000 mm 0,0 UV-I 44 W/m 15,5 C 19,0 C 3,2 km/h (1 Bft) 97,87 %
27.07.2019 06:24 19,1 C 27,2 C 18,9 C 80 % 1001,2 hPa 0,0 l/m 2,3 km/h (1 Bft) S 178 0 min 0,000 mm 0,0 UV-I 46 W/m 15,6 C 19,1 C 3,2 km/h (1 Bft) 100,00 %
27.07.2019 06:26 19,1 C 27,2 C 18,9 C 80 % 1001,2 hPa 0,0 l/m 1,7 km/h (1 Bft) S 178 0 min 0,000 mm 0,0 UV-I 48 W/m 15,6 C 19,1 C 3,2 km/h (1 Bft) 100,00 %
27.07.2019 06:28 19,1 C 27,2 C 18,9 C 80 % 1001,2 hPa 0,0 l/m 2,0 km/h (1 Bft) S 178 0 min 0,000 mm 0,0 UV-I 51 W/m 15,6 C 19,1 C 3,2 km/h (1 Bft) 97,87 %
27.07.2019 06:30 19,0 C 27,2 C 18,9 C 80 % 1001,3 hPa 0,0 l/m 3,2 km/h (1 Bft) S 178 0 min 0,000 mm 0,0 UV-I 54 W/m 15,5 C 19,0 C 4,8 km/h (1 Bft) 100,00 %
27.07.2019 06:32 19,0 C 27,2 C 19,4 C 80 % 1001,3 hPa 0,0 l/m 4,4 km/h (1 Bft) S-SW 206 0 min 0,000 mm 0,0 UV-I 56 W/m 15,5 C 19,0 C 6,4 km/h (2 Bft) 100,00 %
27.07.2019 06:34 19,1 C 27,2 C 19,4 C 80 % 1001,3 hPa 0,0 l/m 5,5 km/h (1 Bft) S-SW 210 0 min 0,000 mm 0,0 UV-I 58 W/m 15,6 C 19,1 C 8,0 km/h (2 Bft) 100,00 %
27.07.2019 06:36 19,1 C 27,2 C 19,4 C 79 % 1001,4 hPa 0,0 l/m 5,1 km/h (1 Bft) SW 218 0 min 0,000 mm 0,0 UV-I 61 W/m 15,4 C 19,1 C 8,0 km/h (2 Bft) 100,00 %
27.07.2019 06:38 19,2 C 27,2 C 19,4 C 79 % 1001,4 hPa 0,0 l/m 5,0 km/h (1 Bft) S-SW 200 0 min 0,000 mm 0,0 UV-I 65 W/m 15,5 C 19,2 C 6,4 km/h (2 Bft) 100,00 %
27.07.2019 06:40 19,2 C 27,2 C 19,4 C 79 % 1001,5 hPa 0,0 l/m 3,8 km/h (1 Bft) S-SW 200 0 min 0,000 mm 0,0 UV-I 71 W/m 15,5 C 19,2 C 4,8 km/h (1 Bft) 100,00 %
27.07.2019 06:42 19,2 C 27,2 C 19,4 C 79 % 1001,4 hPa 0,0 l/m 4,1 km/h (1 Bft) SW 221 0 min 0,000 mm 0,0 UV-I 76 W/m 15,5 C 19,2 C 4,8 km/h (1 Bft) 98,00 %
27.07.2019 06:44 19,2 C 27,2 C 19,4 C 79 % 1001,5 hPa 0,0 l/m 4,6 km/h (1 Bft) SW 221 0 min 0,000 mm 0,0 UV-I 81 W/m 15,5 C 19,2 C 6,4 km/h (2 Bft) 95,74 %
27.07.2019 06:46 19,1 C 27,2 C 20,0 C 79 % 1001,6 hPa 0,0 l/m 6,1 km/h (2 Bft) SW 227 0 min 0,000 mm 0,0 UV-I 86 W/m 15,4 C 19,1 C 9,7 km/h (2 Bft) 96,00 %
27.07.2019 06:48 19,1 C 27,2 C 20,0 C 79 % 1001,6 hPa 0,0 l/m 7,4 km/h (2 Bft) S-SW 205 0 min 0,000 mm 0,0 UV-I 91 W/m 15,4 C 18,7 C 9,7 km/h (2 Bft) 97,73 %
27.07.2019 06:50 19,2 C 27,2 C 20,0 C 79 % 1001,5 hPa 0,0 l/m 6,8 km/h (2 Bft) S-SW 213 0 min 0,000 mm 0,0 UV-I 94 W/m 15,5 C 19,0 C 9,7 km/h (2 Bft) 95,56 %
27.07.2019 06:52 19,2 C 27,2 C 20,6 C 78 % 1001,6 hPa 0,0 l/m 4,9 km/h (1 Bft) SW 222 0 min 0,000 mm 0,0 UV-I 95 W/m 15,3 C 19,2 C 8,0 km/h (2 Bft) 94,00 %
27.07.2019 06:54 19,3 C 27,2 C 20,6 C 78 % 1001,7 hPa 0,0 l/m 5,3 km/h (1 Bft) SW 223 0 min 0,000 mm 0,0 UV-I 95 W/m 15,4 C 19,3 C 8,0 km/h (2 Bft) 97,37 %
27.07.2019 06:56 19,4 C 27,2 C 20,6 C 78 % 1001,6 hPa 0,0 l/m 4,3 km/h (1 Bft) SW 234 0 min 0,000 mm 0,0 UV-I 97 W/m 15,5 C 19,4 C 6,4 km/h (2 Bft) 91,49 %
27.07.2019 06:58 19,5 C 27,2 C 20,6 C 78 % 1001,7 hPa 0,0 l/m 3,8 km/h (1 Bft) W-SW 239 0 min 0,000 mm 0,0 UV-I 100 W/m 15,6 C 19,5 C 4,8 km/h (1 Bft) 96,00 %
27.07.2019 07:00 19,5 C 27,2 C 20,6 C 78 % 1001,6 hPa 0,0 l/m 3,1 km/h (1 Bft) W-SW 239 0 min 0,051 mm 0,0 UV-I 103 W/m 15,6 C 19,5 C 4,8 km/h (1 Bft) 93,62 %
27.07.2019 07:02 19,6 C 27,2 C 20,6 C 78 % 1001,7 hPa 0,0 l/m 5,2 km/h (1 Bft) SW 232 0 min 0,000 mm 0,0 UV-I 107 W/m 15,7 C 19,6 C 6,4 km/h (2 Bft) 96,00 %
27.07.2019 07:04 19,6 C 27,2 C 21,1 C 77 % 1001,6 hPa 0,0 l/m 2,9 km/h (1 Bft) SW 232 0 min 0,000 mm 0,0 UV-I 115 W/m 15,5 C 19,6 C 4,8 km/h (1 Bft) 95,12 %
27.07.2019 07:06 19,7 C 27,2 C 21,1 C 78 % 1001,6 hPa 0,0 l/m 3,0 km/h (1 Bft) SW 228 0 min 0,000 mm 0,0 UV-I 114 W/m 15,8 C 19,7 C 4,8 km/h (1 Bft) 96,00 %
27.07.2019 07:08 19,8 C 27,2 C 21,1 C 78 % 1001,6 hPa 0,0 l/m 3,3 km/h (1 Bft) SW 229 0 min 0,000 mm 0,0 UV-I 117 W/m 15,8 C 19,8 C 4,8 km/h (1 Bft) 94,00 %
27.07.2019 07:10 19,9 C 27,2 C 21,7 C 78 % 1001,6 hPa 0,0 l/m 2,1 km/h (1 Bft) SW 229 0 min 0,000 mm 0,0 UV-I 125 W/m 15,9 C 19,9 C 4,8 km/h (1 Bft) 94,74 %
27.07.2019 07:12 20,1 C 27,2 C 21,7 C 77 % 1001,6 hPa 0,0 l/m 1,7 km/h (1 Bft) SW 229 0 min 0,000 mm 0,0 UV-I 122 W/m 15,9 C 20,1 C 3,2 km/h (1 Bft) 94,92 %
27.07.2019 07:14 20,1 C 27,2 C 21,7 C 77 % 1001,7 hPa 0,0 l/m 3,9 km/h (1 Bft) SW 227 0 min 0,000 mm 0,0 UV-I 113 W/m 15,9 C 20,1 C 6,4 km/h (2 Bft) 93,18 %
27.07.2019 07:16 20,1 C 27,2 C 21,7 C 78 % 1001,6 hPa 0,0 l/m 4,5 km/h (1 Bft) SW 217 0 min 0,000 mm 0,0 UV-I 106 W/m 16,1 C 20,1 C 6,4 km/h (2 Bft) 94,00 %
27.07.2019 07:18 20,1 C 27,2 C 21,7 C 77 % 1001,6 hPa 0,0 l/m 2,1 km/h (1 Bft) SW 217 0 min 0,000 mm 0,0 UV-I 105 W/m 15,9 C 20,1 C 3,2 km/h (1 Bft) 97,37 %
27.07.2019 07:20 20,1 C 27,2 C 21,7 C 77 % 1001,5 hPa 0,0 l/m 1,3 km/h (1 Bft) SW 217 0 min 0,000 mm 0,0 UV-I 96 W/m 15,9 C 20,1 C 3,2 km/h (1 Bft) 94,87 %
27.07.2019 07:22 20,2 C 27,2 C 21,7 C 78 % 1001,6 hPa 0,0 l/m 2,9 km/h (1 Bft) SW 217 0 min 0,000 mm 0,0 UV-I 92 W/m 16,2 C 20,2 C 4,8 km/h (1 Bft) 94,55 %
27.07.2019 07:24 20,2 C 27,2 C 21,7 C 78 % 1001,6 hPa 0,0 l/m 3,3 km/h (1 Bft) SW 217 0 min 0,000 mm 0,0 UV-I 90 W/m 16,2 C 20,2 C 4,8 km/h (1 Bft) 94,00 %
27.07.2019 07:26 20,2 C 27,2 C 21,7 C 78 % 1001,5 hPa 0,0 l/m 2,0 km/h (1 Bft) SW 217 0 min 0,000 mm 0,0 UV-I 94 W/m 16,2 C 20,2 C 3,2 km/h (1 Bft) 92,31 %
27.07.2019 07:28 20,1 C 27,2 C 21,7 C 77 % 1001,5 hPa 0,0 l/m 0,2 km/h (0 Bft) SW 217 0 min 0,000 mm 0,0 UV-I 92 W/m 15,9 C 20,1 C 1,6 km/h (1 Bft) 94,00 %
27.07.2019 07:30 20,2 C 27,2 C 21,7 C 78 % 1001,6 hPa 0,0 l/m 1,1 km/h (1 Bft) SW 217 0 min 0,000 mm 0,0 UV-I 102 W/m 16,2 C 20,2 C 3,2 km/h (1 Bft) 96,00 %
27.07.2019 07:32 20,2 C 27,2 C 21,7 C 78 % 1001,5 hPa 0,0 l/m 3,7 km/h (1 Bft) SW 217 0 min 0,000 mm 0,0 UV-I 82 W/m 16,2 C 20,2 C 4,8 km/h (1 Bft) 97,73 %
27.07.2019 07:34 20,2 C 27,2 C 21,7 C 79 % 1001,6 hPa 0,0 l/m 2,5 km/h (1 Bft) SW 217 0 min 0,000 mm 0,0 UV-I 81 W/m 16,4 C 20,2 C 4,8 km/h (1 Bft) 96,00 %
27.07.2019 07:36 20,2 C 27,2 C 21,7 C 81 % 1001,5 hPa 0,0 l/m 1,7 km/h (1 Bft) SW 217 0 min 0,000 mm 0,0 UV-I 81 W/m 16,8 C 20,2 C 3,2 km/h (1 Bft) 92,00 %
27.07.2019 07:38 20,2 C 27,2 C 21,7 C 79 % 1001,6 hPa 0,0 l/m 2,7 km/h (1 Bft) SW 217 0 min 0,000 mm 0,0 UV-I 82 W/m 16,4 C 20,2 C 4,8 km/h (1 Bft) 97,37 %
27.07.2019 07:40 20,2 C 27,2 C 21,1 C 79 % 1001,6 hPa 0,0 l/m 2,9 km/h (1 Bft) SW 217 0 min 0,000 mm 0,0 UV-I 84 W/m 16,4 C 20,2 C 4,8 km/h (1 Bft) 94,34 %
27.07.2019 07:42 20,2 C 27,2 C 21,1 C 80 % 1001,6 hPa 0,0 l/m 1,4 km/h (1 Bft) SW 217 0 min 0,000 mm 0,0 UV-I 86 W/m 16,6 C 20,2 C 3,2 km/h (1 Bft) 98,00 %
27.07.2019 07:44 20,3 C 27,2 C 21,1 C 80 % 1001,6 hPa 0,0 l/m 2,5 km/h (1 Bft) SW 217 0 min 0,000 mm 0,0 UV-I 89 W/m 16,7 C 20,3 C 3,2 km/h (1 Bft) 97,87 %
27.07.2019 07:46 20,3 C 27,2 C 21,7 C 80 % 1001,7 hPa 0,0 l/m 5,1 km/h (1 Bft) SW 217 0 min 0,000 mm 0,0 UV-I 93 W/m 16,7 C 20,3 C 6,4 km/h (2 Bft) 100,00 %
27.07.2019 07:48 20,3 C 27,2 C 21,7 C 79 % 1001,6 hPa 0,0 l/m 4,4 km/h (1 Bft) SW 217 0 min 0,000 mm 0,0 UV-I 99 W/m 16,5 C 20,3 C 6,4 km/h (2 Bft) 100,00 %
27.07.2019 07:50 20,3 C 27,2 C 21,7 C 79 % 1001,6 hPa 0,0 l/m 4,5 km/h (1 Bft) SW 218 0 min 0,000 mm 0,0 UV-I 104 W/m 16,5 C 20,3 C 6,4 km/h (2 Bft) 100,00 %
27.07.2019 07:52 20,3 C 27,2 C 22,2 C 79 % 1001,7 hPa 0,0 l/m 4,6 km/h (1 Bft) SW 217 0 min 0,000 mm 0,0 UV-I 108 W/m 16,5 C 20,3 C 6,4 km/h (2 Bft) 100,00 %
27.07.2019 07:54 20,3 C 27,2 C 22,2 C 79 % 1001,6 hPa 0,0 l/m 4,2 km/h (1 Bft) SW 217 0 min 0,000 mm 0,0 UV-I 110 W/m 16,5 C 20,3 C 6,4 km/h (2 Bft) 100,00 %
27.07.2019 07:56 20,4 C 27,2 C 22,2 C 80 % 1001,7 hPa 0,0 l/m 4,3 km/h (1 Bft) SW 217 0 min 0,000 mm 0,0 UV-I 114 W/m 16,8 C 20,4 C 6,4 km/h (2 Bft) 100,00 %
27.07.2019 07:58 20,5 C 27,2 C 22,8 C 80 % 1001,7 hPa 0,0 l/m 3,6 km/h (1 Bft) SW 217 0 min 0,000 mm 0,0 UV-I 120 W/m 16,9 C 20,5 C 4,8 km/h (1 Bft) 100,00 %
27.07.2019 08:00 20,5 C 27,2 C 22,8 C 79 % 1001,7 hPa 0,0 l/m 4,3 km/h (1 Bft) SW 220 0 min 0,076 mm 0,0 UV-I 125 W/m 16,7 C 20,5 C 6,4 km/h (2 Bft) 97,44 %
27.07.2019 08:02 20,6 C 27,2 C 22,8 C 79 % 1001,7 hPa 0,0 l/m 3,7 km/h (1 Bft) SW 219 0 min 0,000 mm 0,2 UV-I 128 W/m 16,8 C 20,6 C 4,8 km/h (1 Bft) 98,11 %
27.07.2019 08:04 20,6 C 27,2 C 22,8 C 79 % 1001,7 hPa 0,0 l/m 2,6 km/h (1 Bft) SW 219 0 min 0,000 mm 0,5 UV-I 134 W/m 16,8 C 20,6 C 4,8 km/h (1 Bft) 100,00 %
27.07.2019 08:06 20,7 C 27,2 C 22,8 C 79 % 1001,7 hPa 0,0 l/m 1,3 km/h (1 Bft) SW 219 0 min 0,000 mm 0,5 UV-I 142 W/m 16,9 C 20,7 C 3,2 km/h (1 Bft) 100,00 %
27.07.2019 08:08 20,7 C 27,2 C 23,3 C 79 % 1001,8 hPa 0,0 l/m 1,3 km/h (1 Bft) SW 219 0 min 0,000 mm 0,5 UV-I 150 W/m 16,9 C 20,7 C 3,2 km/h (1 Bft) 100,00 %
27.07.2019 08:10 20,8 C 27,2 C 23,3 C 78 % 1001,8 hPa 0,0 l/m 1,7 km/h (1 Bft) SW 219 0 min 0,000 mm 0,5 UV-I 155 W/m 16,8 C 20,8 C 3,2 km/h (1 Bft) 100,00 %
27.07.2019 08:12 20,9 C 27,2 C 23,9 C 79 % 1001,7 hPa 0,0 l/m 1,1 km/h (1 Bft) SW 220 0 min 0,000 mm 0,6 UV-I 155 W/m 17,1 C 20,9 C 1,6 km/h (1 Bft) 97,87 %
27.07.2019 08:14 21,0 C 27,2 C 23,9 C 78 % 1001,8 hPa 0,0 l/m 0,7 km/h (0 Bft) SW 220 0 min 0,000 mm 0,6 UV-I 162 W/m 17,0 C 21,0 C 1,6 km/h (1 Bft) 98,00 %
27.07.2019 08:16 21,2 C 27,2 C 23,9 C 80 % 1001,8 hPa 0,0 l/m 0,7 km/h (0 Bft) SW 220 0 min 0,000 mm 0,6 UV-I 172 W/m 17,6 C 21,2 C 3,2 km/h (1 Bft) 98,00 %
27.07.2019 08:18 21,2 C 27,2 C 24,4 C 78 % 1001,8 hPa 0,0 l/m 0,6 km/h (0 Bft) SW 219 0 min 0,000 mm 0,6 UV-I 177 W/m 17,2 C 21,2 C 1,6 km/h (1 Bft) 94,74 %
27.07.2019 08:20 21,2 C 27,2 C 24,4 C 77 % 1001,8 hPa 0,0 l/m 1,3 km/h (1 Bft) SW 220 0 min 0,000 mm 0,7 UV-I 178 W/m 17,0 C 21,2 C 3,2 km/h (1 Bft) 97,87 %
27.07.2019 08:22 21,2 C 27,2 C 24,4 C 76 % 1001,9 hPa 0,0 l/m 0,9 km/h (0 Bft) SW 220 0 min 0,000 mm 0,7 UV-I 182 W/m 16,8 C 21,2 C 3,2 km/h (1 Bft) 98,00 %
27.07.2019 08:24 21,3 C 27,2 C 24,4 C 76 % 1001,9 hPa 0,0 l/m 1,7 km/h (1 Bft) SW 219 0 min 0,000 mm 0,7 UV-I 191 W/m 16,9 C 21,3 C 3,2 km/h (1 Bft) 98,11 %
27.07.2019 08:26 21,4 C 27,2 C 24,4 C 77 % 1001,8 hPa 0,0 l/m 1,7 km/h (1 Bft) SW 220 0 min 0,000 mm 0,8 UV-I 230 W/m 17,2 C 21,4 C 3,2 km/h (1 Bft) 97,87 %
27.07.2019 08:28 21,6 C 27,2 C 25,0 C 75 % 1001,9 hPa 0,0 l/m 2,2 km/h (1 Bft) SW 220 0 min 0,000 mm 0,8 UV-I 205 W/m 17,0 C 21,6 C 3,2 km/h (1 Bft) 97,87 %
27.07.2019 08:30 21,7 C 27,2 C 25,0 C 75 % 1001,9 hPa 0,0 l/m 1,2 km/h (1 Bft) SW 220 0 min 0,000 mm 0,8 UV-I 202 W/m 17,1 C 21,7 C 3,2 km/h (1 Bft) 97,37 %
27.07.2019 08:32 21,7 C 27,2 C 25,0 C 74 % 1001,9 hPa 0,0 l/m 2,0 km/h (1 Bft) SW 220 0 min 0,000 mm 0,9 UV-I 206 W/m 16,9 C 21,7 C 3,2 km/h (1 Bft) 97,87 %
27.07.2019 08:34 21,7 C 27,2 C 25,0 C 75 % 1001,9 hPa 0,0 l/m 1,7 km/h (1 Bft) SW 220 0 min 0,000 mm 0,9 UV-I 208 W/m 17,1 C 21,7 C 3,2 km/h (1 Bft) 97,87 %
27.07.2019 08:36 21,7 C 27,2 C 25,0 C 74 % 1001,9 hPa 0,0 l/m 2,4 km/h (1 Bft) SW 220 0 min 0,000 mm 0,9 UV-I 212 W/m 16,9 C 21,7 C 3,2 km/h (1 Bft) 95,74 %
27.07.2019 08:39 21,8 C 27,2 C 25,0 C 74 % 1001,9 hPa 0,0 l/m 2,3 km/h (1 Bft) SW 221 0 min 0,000 mm 1,0 UV-I 229 W/m 17,0 C 21,8 C 4,8 km/h (1 Bft) 97,40 %
27.07.2019 08:40 21,8 C 27,2 C 25,0 C 74 % 1001,9 hPa 0,0 l/m 3,0 km/h (1 Bft) SW 221 0 min 0,000 mm 1,0 UV-I 243 W/m 17,0 C 21,8 C 3,2 km/h (1 Bft) 100,00 %
27.07.2019 08:42 21,9 C 27,2 C 25,0 C 74 % 1001,9 hPa 0,0 l/m 3,0 km/h (1 Bft) SW 223 0 min 0,000 mm 1,1 UV-I 235 W/m 17,0 C 21,9 C 4,8 km/h (1 Bft) 100,00 %
27.07.2019 08:44 21,9 C 27,2 C 25,6 C 73 % 1001,8 hPa 0,0 l/m 3,3 km/h (1 Bft) NW 321 0 min 0,000 mm 1,1 UV-I 249 W/m 16,8 C 21,9 C 4,8 km/h (1 Bft) 100,00 %
27.07.2019 08:46 22,1 C 27,2 C 25,6 C 73 % 1001,8 hPa 0,0 l/m 3,7 km/h (1 Bft) N-NW 343 2 min 0,000 mm 1,2 UV-I 282 W/m 17,0 C 22,1 C 4,8 km/h (1 Bft) 97,87 %
27.07.2019 08:49 22,3 C 27,2 C 26,1 C 73 % 1001,9 hPa 0,0 l/m 3,7 km/h (1 Bft) N 351 3 min 0,000 mm 1,3 UV-I 392 W/m 17,2 C 22,3 C 4,8 km/h (1 Bft) 100,00 %
27.07.2019 08:50 22,3 C 27,2 C 26,1 C 73 % 1001,9 hPa 0,0 l/m 4,7 km/h (1 Bft) N 350 1 min 0,000 mm 1,3 UV-I 446 W/m 17,2 C 22,3 C 8,0 km/h (2 Bft) 91,67 %
27.07.2019 08:52 22,6 C 27,2 C 26,1 C 71 % 1001,8 hPa 0,0 l/m 3,8 km/h (1 Bft) N-NO 19 2 min 0,000 mm 1,3 UV-I 441 W/m 17,1 C 22,6 C 6,4 km/h (2 Bft) 100,00 %
27.07.2019 08:54 22,7 C 27,2 C 26,1 C 70 % 1001,9 hPa 0,0 l/m 2,1 km/h (1 Bft) NW 306 2 min 0,000 mm 1,3 UV-I 430 W/m 16,9 C 22,7 C 4,8 km/h (1 Bft) 100,00 %
27.07.2019 08:56 22,8 C 27,2 C 26,1 C 69 % 1001,9 hPa 0,0 l/m 3,1 km/h (1 Bft) N-NW 348 2 min 0,000 mm 1,3 UV-I 337 W/m 16,8 C 22,8 C 6,4 km/h (2 Bft) 100,00 %
27.07.2019 08:58 22,8 C 27,2 C 25,6 C 70 % 1001,8 hPa 0,0 l/m 4,8 km/h (1 Bft) N-NO 24 0 min 0,000 mm 1,3 UV-I 229 W/m 17,0 C 22,8 C 8,0 km/h (2 Bft) 100,00 %
27.07.2019 09:00 22,8 C 27,2 C 25,6 C 70 % 1001,9 hPa 0,0 l/m 3,5 km/h (1 Bft) N 10 0 min 0,152 mm 1,3 UV-I 256 W/m 17,0 C 22,8 C 4,8 km/h (1 Bft) 100,00 %
27.07.2019 09:02 22,7 C 27,2 C 26,1 C 68 % 1001,9 hPa 0,0 l/m 2,1 km/h (1 Bft) N 10 2 min 0,000 mm 1,5 UV-I 401 W/m 16,5 C 22,7 C 4,8 km/h (1 Bft) 95,12 %
27.07.2019 09:04 22,8 C 27,2 C 26,7 C 68 % 1001,9 hPa 0,0 l/m 3,3 km/h (1 Bft) N-NW 341 2 min 0,000 mm 1,6 UV-I 493 W/m 16,6 C 22,8 C 4,8 km/h (1 Bft) 96,00 %
27.07.2019 09:06 22,9 C 27,2 C 27,8 C 68 % 1001,9 hPa 0,0 l/m 3,6 km/h (1 Bft) NW 325 2 min 0,000 mm 1,7 UV-I 495 W/m 16,7 C 22,9 C 4,8 km/h (1 Bft) 97,87 %
27.07.2019 09:08 23,0 C 27,2 C 28,3 C 67 % 1001,9 hPa 0,0 l/m 3,2 km/h (1 Bft) N-NW 345 2 min 0,000 mm 1,7 UV-I 492 W/m 16,5 C 23,0 C 6,4 km/h (2 Bft) 96,00 %
27.07.2019 09:10 23,1 C 27,2 C 29,4 C 67 % 1001,9 hPa 0,0 l/m 3,0 km/h (1 Bft) N-NW 342 2 min 0,000 mm 1,7 UV-I 486 W/m 16,6 C 23,1 C 6,4 km/h (2 Bft) 97,87 %
27.07.2019 09:12 23,2 C 27,2 C 29,4 C 66 % 1001,8 hPa 0,0 l/m 5,5 km/h (1 Bft) N-NO 29 2 min 0,000 mm 1,7 UV-I 388 W/m 16,5 C 23,2 C 8,0 km/h (2 Bft) 94,74 %
27.07.2019 09:14 23,3 C 27,2 C 30,6 C 66 % 1001,8 hPa 0,0 l/m 5,8 km/h (2 Bft) N-NW 340 2 min 0,000 mm 1,8 UV-I 426 W/m 16,6 C 23,3 C 8,0 km/h (2 Bft) 98,00 %
27.07.2019 09:16 23,5 C 27,2 C 31,1 C 67 % 1001,8 hPa 0,0 l/m 5,3 km/h (1 Bft) N-NO 15 2 min 0,000 mm 1,8 UV-I 522 W/m 17,0 C 23,5 C 8,0 km/h (2 Bft) 98,00 %
27.07.2019 09:18 23,8 C 27,2 C 30,6 C 64 % 1001,8 hPa 0,0 l/m 5,8 km/h (2 Bft) N-NO 17 2 min 0,000 mm 1,7 UV-I 526 W/m 16,6 C 23,8 C 8,0 km/h (2 Bft) 97,62 %
27.07.2019 09:20 23,7 C 27,2 C 29,4 C 65 % 1001,9 hPa 0,0 l/m 4,3 km/h (1 Bft) NW 313 0 min 0,000 mm 1,6 UV-I 280 W/m 16,7 C 23,7 C 6,4 km/h (2 Bft) 96,36 %
27.07.2019 09:22 23,7 C 27,2 C 28,9 C 65 % 1001,9 hPa 0,0 l/m 5,0 km/h (1 Bft) N 360 0 min 0,000 mm 1,5 UV-I 262 W/m 16,7 C 23,7 C 8,0 km/h (2 Bft) 97,44 %
27.07.2019 09:24 23,6 C 27,2 C 27,8 C 65 % 1001,9 hPa 0,0 l/m 5,0 km/h (1 Bft) N-NW 328 0 min 0,000 mm 1,6 UV-I 269 W/m 16,6 C 23,6 C 6,4 km/h (2 Bft) 98,11 %
27.07.2019 09:26 23,5 C 27,2 C 27,2 C 65 % 1001,9 hPa 0,0 l/m 2,7 km/h (1 Bft) W 272 0 min 0,000 mm 1,6 UV-I 281 W/m 16,5 C 23,5 C 4,8 km/h (1 Bft) 98,00 %
27.07.2019 09:28 23,4 C 27,2 C 27,2 C 65 % 1001,9 hPa 0,0 l/m 2,6 km/h (1 Bft) W 266 0 min 0,000 mm 1,6 UV-I 281 W/m 16,4 C 23,4 C 4,8 km/h (1 Bft) 97,37 %
27.07.2019 09:30 23,4 C 27,2 C 27,2 C 67 % 1001,8 hPa 0,0 l/m 1,3 km/h (1 Bft) W 278 0 min 0,000 mm 1,6 UV-I 270 W/m 16,9 C 23,4 C 4,8 km/h (1 Bft) 96,00 %
27.07.2019 09:32 23,5 C 27,2 C 27,8 C 67 % 1001,9 hPa 0,0 l/m 3,9 km/h (1 Bft) N 355 0 min 0,000 mm 1,7 UV-I 278 W/m 17,0 C 23,5 C 8,0 km/h (2 Bft) 96,00 %
27.07.2019 09:34 23,6 C 27,2 C 27,8 C 67 % 1001,8 hPa 0,0 l/m 4,3 km/h (1 Bft) N-NO 13 0 min 0,000 mm 1,8 UV-I 296 W/m 17,1 C 23,6 C 6,4 km/h (2 Bft) 94,74 %
27.07.2019 09:36 23,7 C 27,2 C 27,8 C 66 % 1001,9 hPa 0,0 l/m 3,2 km/h (1 Bft) N-NO 30 0 min 0,000 mm 1,8 UV-I 267 W/m 17,0 C 23,7 C 4,8 km/h (1 Bft) 100,00 %
27.07.2019 09:38 23,7 C 27,2 C 28,3 C 66 % 1001,8 hPa 0,0 l/m 6,2 km/h (2 Bft) N-NW 331 0 min 0,000 mm 2,0 UV-I 257 W/m 17,0 C 23,7 C 8,0 km/h (2 Bft) 100,00 %
27.07.2019 09:40 23,8 C 27,2 C 28,9 C 65 % 1001,9 hPa 0,0 l/m 3,4 km/h (1 Bft) NW 322 2 min 0,000 mm 2,0 UV-I 370 W/m 16,8 C 23,8 C 4,8 km/h (1 Bft) 98,21 %
27.07.2019 09:42 23,8 C 27,2 C 28,9 C 65 % 1001,9 hPa 0,0 l/m 5,4 km/h (1 Bft) N 5 2 min 0,000 mm 2,0 UV-I 427 W/m 16,8 C 23,8 C 9,7 km/h (2 Bft) 100,00 %
27.07.2019 09:44 23,9 C 27,2 C 28,9 C 64 % 1001,9 hPa 0,0 l/m 5,6 km/h (1 Bft) N-NO 22 2 min 0,000 mm 2,0 UV-I 359 W/m 16,7 C 23,9 C 8,0 km/h (2 Bft) 100,00 %
27.07.2019 09:46 23,9 C 27,2 C 29,4 C 66 % 1001,9 hPa 0,0 l/m 4,0 km/h (1 Bft) N-NO 12 2 min 0,000 mm 2,1 UV-I 386 W/m 17,1 C 23,9 C 8,0 km/h (2 Bft) 97,37 %
27.07.2019 09:48 24,2 C 27,2 C 32,2 C 65 % 1002,0 hPa 0,0 l/m 3,7 km/h (1 Bft) N-NW 346 2 min 0,000 mm 2,4 UV-I 548 W/m 17,2 C 24,2 C 8,0 km/h (2 Bft) 98,00 %
27.07.2019 09:50 24,4 C 27,2 C 33,9 C 65 % 1002,0 hPa 0,0 l/m 5,5 km/h (1 Bft) N-NW 336 2 min 0,000 mm 2,4 UV-I 739 W/m 17,4 C 24,4 C 8,0 km/h (2 Bft) 97,87 %
27.07.2019 09:52 24,6 C 27,2 C 34,4 C 62 % 1002,0 hPa 0,0 l/m 5,0 km/h (1 Bft) N 5 2 min 0,000 mm 2,2 UV-I 747 W/m 16,8 C 24,6 C 8,0 km/h (2 Bft) 97,44 %
27.07.2019 09:54 24,6 C 27,2 C 33,3 C 62 % 1002,1 hPa 0,0 l/m 7,1 km/h (2 Bft) W-NW 303 2 min 0,000 mm 2,2 UV-I 584 W/m 16,8 C 24,4 C 9,7 km/h (2 Bft) 98,18 %
27.07.2019 09:56 24,6 C 27,2 C 31,7 C 60 % 1002,1 hPa 0,0 l/m 3,7 km/h (1 Bft) N-NW 341 0 min 0,000 mm 2,1 UV-I 356 W/m 16,3 C 24,6 C 4,8 km/h (1 Bft) 96,23 %
27.07.2019 09:58 24,4 C 27,2 C 31,1 C 62 % 1002,1 hPa 0,0 l/m 4,3 km/h (1 Bft) NW 315 0 min 0,000 mm 2,0 UV-I 344 W/m 16,6 C 24,4 C 8,0 km/h (2 Bft) 95,74 %
27.07.2019 10:00 24,5 C 27,2 C 31,1 C 62 % 1002,1 hPa 0,0 l/m 6,4 km/h (2 Bft) N-NW 344 0 min 0,280 mm 2,1 UV-I 348 W/m 16,7 C 24,5 C 9,7 km/h (2 Bft) 97,44 %
27.07.2019 10:02 24,4 C 27,2 C 30,6 C 63 % 1002,2 hPa 0,0 l/m 3,2 km/h (1 Bft) N-NW 342 0 min 0,000 mm 2,1 UV-I 341 W/m 16,9 C 24,4 C 6,4 km/h (2 Bft) 97,87 %
27.07.2019 10:04 24,4 C 27,2 C 30,6 C 62 % 1002,2 hPa 0,0 l/m 2,3 km/h (1 Bft) N-NW 342 0 min 0,000 mm 2,1 UV-I 338 W/m 16,6 C 24,4 C 4,8 km/h (1 Bft) 98,00 %
27.07.2019 10:06 24,4 C 27,2 C 30,0 C 61 % 1002,2 hPa 0,0 l/m 7,0 km/h (2 Bft) N 9 0 min 0,000 mm 2,0 UV-I 328 W/m 16,4 C 24,2 C 11,3 km/h (2 Bft) 97,73 %
27.07.2019 10:08 24,4 C 27,2 C 29,4 C 62 % 1002,2 hPa 0,0 l/m 6,2 km/h (2 Bft) N-NW 340 0 min 0,000 mm 2,2 UV-I 338 W/m 16,6 C 24,4 C 9,7 km/h (2 Bft) 98,00 %
27.07.2019 10:10 24,4 C 27,2 C 30,0 C 62 % 1002,1 hPa 0,0 l/m 5,9 km/h (2 Bft) N-NW 348 0 min 0,000 mm 2,4 UV-I 338 W/m 16,6 C 24,4 C 9,7 km/h (2 Bft) 98,00 %
27.07.2019 10:12 24,6 C 27,2 C 31,7 C 62 % 1002,2 hPa 0,0 l/m 5,4 km/h (1 Bft) N-NW 333 2 min 0,000 mm 2,7 UV-I 559 W/m 16,8 C 24,6 C 9,7 km/h (2 Bft) 100,00 %
27.07.2019 10:14 24,7 C 27,2 C 33,9 C 61 % 1002,2 hPa 0,0 l/m 4,8 km/h (1 Bft) N 355 2 min 0,000 mm 2,9 UV-I 719 W/m 16,7 C 24,7 C 6,4 km/h (2 Bft) 100,00 %
27.07.2019 10:16 24,8 C 27,2 C 33,9 C 60 % 1002,3 hPa 0,0 l/m 4,6 km/h (1 Bft) W-SW 254 2 min 0,000 mm 2,8 UV-I 733 W/m 16,5 C 24,8 C 6,4 km/h (2 Bft) 100,00 %
27.07.2019 10:18 24,8 C 27,2 C 33,9 C 61 % 1002,2 hPa 0,0 l/m 3,8 km/h (1 Bft) W-SW 254 2 min 0,000 mm 2,8 UV-I 400 W/m 16,8 C 24,8 C 6,4 km/h (2 Bft) 97,87 %
27.07.2019 10:20 24,9 C 27,2 C 35,0 C 63 % 1002,2 hPa 0,0 l/m 7,7 km/h (2 Bft) N-NW 338 2 min 0,000 mm 3,1 UV-I 672 W/m 17,4 C 24,6 C 14,5 km/h (3 Bft) 100,00 %
27.07.2019 10:22 25,2 C 27,2 C 35,6 C 60 % 1002,2 hPa 0,0 l/m 6,8 km/h (2 Bft) W 269 2 min 0,000 mm 3,1 UV-I 681 W/m 16,9 C 25,1 C 12,9 km/h (3 Bft) 97,56 %
27.07.2019 10:24 25,3 C 27,2 C 35,0 C 59 % 1002,1 hPa 0,0 l/m 5,4 km/h (1 Bft) N 10 2 min 0,000 mm 2,8 UV-I 665 W/m 16,7 C 25,3 C 9,7 km/h (2 Bft) 100,00 %
27.07.2019 10:26 25,2 C 27,2 C 33,9 C 59 % 1002,2 hPa 0,0 l/m 10,1 km/h (2 Bft) W-NW 300 0 min 0,000 mm 2,8 UV-I 388 W/m 16,6 C 24,4 C 16,1 km/h (3 Bft) 100,00 %
27.07.2019 10:28 25,3 C 27,2 C 32,8 C 60 % 1002,2 hPa 0,0 l/m 5,5 km/h (1 Bft) N-NW 339 0 min 0,000 mm 2,9 UV-I 392 W/m 17,0 C 25,3 C 12,9 km/h (3 Bft) 100,00 %
27.07.2019 10:30 25,4 C 27,2 C 33,9 C 60 % 1002,1 hPa 0,0 l/m 4,9 km/h (1 Bft) NW 309 2 min 0,000 mm 3,1 UV-I 417 W/m 17,1 C 25,4 C 12,9 km/h (3 Bft) 100,00 %
27.07.2019 10:32 25,6 C 27,2 C 35,6 C 60 % 1002,2 hPa 0,0 l/m 5,8 km/h (2 Bft) W-SW 242 2 min 0,000 mm 3,3 UV-I 749 W/m 17,2 C 25,6 C 9,7 km/h (2 Bft) 100,00 %
27.07.2019 10:34 25,7 C 27,2 C 36,1 C 60 % 1002,2 hPa 0,0 l/m 6,5 km/h (2 Bft) NW 324 2 min 0,000 mm 3,2 UV-I 771 W/m 17,3 C 25,7 C 14,5 km/h (3 Bft) 100,00 %
27.07.2019 10:36 25,9 C 27,2 C 35,0 C 59 % 1002,2 hPa 0,0 l/m 9,7 km/h (2 Bft) N-NW 327 2 min 0,000 mm 3,0 UV-I 574 W/m 17,3 C 25,2 C 16,1 km/h (3 Bft) 100,00 %
27.07.2019 10:38 25,9 C 27,2 C 35,0 C 59 % 1002,2 hPa 0,0 l/m 6,4 km/h (2 Bft) NW 313 2 min 0,000 mm 3,2 UV-I 523 W/m 17,3 C 25,9 C 16,1 km/h (3 Bft) 100,00 %
27.07.2019 10:40 25,9 C 27,2 C 35,6 C 59 % 1002,1 hPa 0,0 l/m 9,0 km/h (2 Bft) NW 311 2 min 0,000 mm 3,5 UV-I 667 W/m 17,3 C 25,3 C 19,3 km/h (3 Bft) 100,00 %
27.07.2019 10:42 25,9 C 27,2 C 35,6 C 60 % 1002,2 hPa 0,0 l/m 8,3 km/h (2 Bft) N-NO 29 2 min 0,000 mm 3,4 UV-I 733 W/m 17,5 C 25,5 C 16,1 km/h (3 Bft) 97,73 %
27.07.2019 10:44 26,1 C 27,2 C 36,1 C 58 % 1002,1 hPa 0,0 l/m 4,5 km/h (1 Bft) N-NO 19 2 min 0,000 mm 3,4 UV-I 592 W/m 17,2 C 26,1 C 6,4 km/h (2 Bft) 98,00 %
27.07.2019 10:46 26,1 C 27,2 C 34,4 C 58 % 1002,1 hPa 0,0 l/m 7,7 km/h (2 Bft) N 5 2 min 0,000 mm 3,2 UV-I 824 W/m 17,2 C 25,8 C 14,5 km/h (3 Bft) 98,00 %
27.07.2019 10:48 26,1 C 27,2 C 32,8 C 58 % 1002,1 hPa 0,0 l/m 6,3 km/h (2 Bft) W-NW 286 0 min 0,000 mm 2,9 UV-I 364 W/m 17,2 C 26,1 C 12,9 km/h (3 Bft) 96,00 %
27.07.2019 10:50 25,9 C 27,2 C 32,2 C 57 % 1002,2 hPa 0,0 l/m 7,7 km/h (2 Bft) W-NW 302 0 min 0,000 mm 2,9 UV-I 386 W/m 16,7 C 25,6 C 14,5 km/h (3 Bft) 97,37 %
27.07.2019 10:52 25,8 C 27,2 C 33,3 C 59 % 1002,1 hPa 0,0 l/m 6,2 km/h (2 Bft) W-NW 300 0 min 0,000 mm 3,3 UV-I 408 W/m 17,2 C 25,8 C 11,3 km/h (2 Bft) 97,87 %
27.07.2019 10:54 26,0 C 27,2 C 34,4 C 59 % 1002,1 hPa 0,0 l/m 5,2 km/h (1 Bft) N-NO 17 0 min 0,000 mm 3,5 UV-I 408 W/m 17,4 C 26,0 C 12,9 km/h (3 Bft) 98,00 %
27.07.2019 10:56 26,3 C 27,2 C 36,1 C 60 % 1002,1 hPa 0,0 l/m 7,4 km/h (2 Bft) N-NO 15 2 min 0,000 mm 3,7 UV-I 713 W/m 17,9 C 26,1 C 16,1 km/h (3 Bft) 97,56 %
27.07.2019 10:58 26,5 C 27,2 C 35,0 C 58 % 1002,2 hPa 0,0 l/m 5,9 km/h (2 Bft) W-NW 288 2 min 0,000 mm 3,1 UV-I 661 W/m 17,5 C 26,5 C 12,9 km/h (3 Bft) 96,43 %
27.07.2019 11:00 26,4 C 27,2 C 34,4 C 57 % 1002,2 hPa 0,0 l/m 7,4 km/h (2 Bft) W-NW 284 2 min 0,406 mm 3,0 UV-I 446 W/m 17,2 C 26,2 C 12,9 km/h (3 Bft) 95,12 %
27.07.2019 11:02 26,2 C 27,2 C 33,3 C 57 % 1002,2 hPa 0,0 l/m 11,5 km/h (2 Bft) NW 313 2 min 0,000 mm 2,9 UV-I 459 W/m 17,0 C 25,2 C 19,3 km/h (3 Bft) 96,00 %
27.07.2019 11:04 25,9 C 27,2 C 31,7 C 58 % 1002,3 hPa 0,0 l/m 7,9 km/h (2 Bft) W-NW 285 0 min 0,000 mm 2,7 UV-I 394 W/m 17,0 C 25,6 C 22,5 km/h (4 Bft) 93,62 %
27.07.2019 11:06 25,7 C 27,2 C 31,1 C 59 % 1002,3 hPa 0,0 l/m 7,6 km/h (2 Bft) W-SW 255 0 min 0,000 mm 2,5 UV-I 354 W/m 17,1 C 25,4 C 14,5 km/h (3 Bft) 96,00 %
27.07.2019 11:08 25,6 C 27,2 C 30,0 C 60 % 1002,2 hPa 0,0 l/m 9,3 km/h (2 Bft) NO 49 0 min 0,000 mm 2,4 UV-I 331 W/m 17,2 C 25,0 C 20,9 km/h (4 Bft) 94,87 %
27.07.2019 11:10 25,5 C 27,2 C 29,4 C 60 % 1002,2 hPa 0,0 l/m 9,3 km/h (2 Bft) NW 308 0 min 0,000 mm 2,4 UV-I 318 W/m 17,2 C 24,9 C 19,3 km/h (3 Bft) 92,73 %
27.07.2019 11:12 25,4 C 27,2 C 29,4 C 60 % 1002,2 hPa 0,0 l/m 6,0 km/h (2 Bft) N 355 0 min 0,000 mm 2,6 UV-I 331 W/m 17,1 C 25,4 C 16,1 km/h (3 Bft) 95,74 %
27.07.2019 11:14 25,4 C 27,2 C 31,7 C 60 % 1002,2 hPa 0,0 l/m 8,7 km/h (2 Bft) W 261 2 min 0,000 mm 3,5 UV-I 508 W/m 17,1 C 24,9 C 17,7 km/h (3 Bft) 95,24 %
27.07.2019 11:16 25,6 C 27,2 C 33,9 C 59 % 1002,3 hPa 0,0 l/m 5,4 km/h (1 Bft) NW 315 2 min 0,000 mm 3,8 UV-I 777 W/m 17,0 C 25,6 C 9,7 km/h (2 Bft) 94,34 %
27.07.2019 11:18 25,7 C 27,2 C 35,0 C 61 % 1002,3 hPa 0,0 l/m 4,4 km/h (1 Bft) W 267 2 min 0,000 mm 3,7 UV-I 760 W/m 17,6 C 25,7 C 11,3 km/h (2 Bft) 93,62 %
27.07.2019 11:20 25,8 C 27,2 C 35,0 C 59 % 1002,3 hPa 0,0 l/m 12,6 km/h (3 Bft) N-NO 20 2 min 0,000 mm 3,9 UV-I 727 W/m 17,2 C 24,6 C 22,5 km/h (4 Bft) 95,74 %
27.07.2019 11:22 25,8 C 27,2 C 35,0 C 57 % 1002,2 hPa 0,0 l/m 13,5 km/h (3 Bft) N-NO 31 2 min 0,000 mm 4,0 UV-I 716 W/m 16,6 C 24,5 C 20,9 km/h (4 Bft) 92,11 %
27.07.2019 11:24 25,8 C 27,2 C 35,6 C 58 % 1002,3 hPa 0,0 l/m 9,1 km/h (2 Bft) NW 321 2 min 0,000 mm 4,0 UV-I 707 W/m 16,9 C 25,2 C 16,1 km/h (3 Bft) 94,00 %
27.07.2019 11:26 25,9 C 27,2 C 35,6 C 57 % 1002,3 hPa 0,0 l/m 11,8 km/h (2 Bft) N-NO 23 2 min 0,000 mm 4,0 UV-I 698 W/m 16,7 C 24,9 C 20,9 km/h (4 Bft) 93,18 %
27.07.2019 11:28 26,0 C 27,2 C 35,6 C 57 % 1002,3 hPa 0,0 l/m 12,1 km/h (2 Bft) N-NW 344 2 min 0,000 mm 4,0 UV-I 683 W/m 16,8 C 24,9 C 17,7 km/h (3 Bft) 94,34 %
27.07.2019 11:30 25,9 C 27,2 C 35,6 C 57 % 1002,2 hPa 0,0 l/m 10,9 km/h (2 Bft) W-SW 241 2 min 0,000 mm 4,0 UV-I 685 W/m 16,7 C 25,0 C 17,7 km/h (3 Bft) 93,62 %
27.07.2019 11:32 26,1 C 27,2 C 36,1 C 58 % 1002,3 hPa 0,0 l/m 10,1 km/h (2 Bft) N 355 2 min 0,000 mm 4,2 UV-I 752 W/m 17,2 C 25,4 C 16,1 km/h (3 Bft) 94,29 %
27.07.2019 11:34 26,2 C 27,2 C 36,1 C 57 % 1002,2 hPa 0,0 l/m 12,8 km/h (3 Bft) N-NO 17 2 min 0,000 mm 4,2 UV-I 749 W/m 17,0 C 25,1 C 19,3 km/h (3 Bft) 93,10 %
27.07.2019 11:36 26,2 C 27,2 C 36,1 C 56 % 1002,2 hPa 0,0 l/m 9,5 km/h (2 Bft) NW 306 2 min 0,000 mm 4,2 UV-I 735 W/m 16,7 C 25,6 C 16,1 km/h (3 Bft) 95,12 %
27.07.2019 11:38 26,1 C 27,2 C 35,6 C 58 % 1002,2 hPa 0,0 l/m 11,3 km/h (2 Bft) N-NO 21 2 min 0,000 mm 3,9 UV-I 623 W/m 17,2 C 25,2 C 16,1 km/h (3 Bft) 96,23 %
27.07.2019 11:40 26,0 C 27,2 C 35,0 C 57 % 1002,2 hPa 0,0 l/m 7,0 km/h (2 Bft) N-NW 337 2 min 0,000 mm 3,8 UV-I 572 W/m 16,8 C 25,9 C 14,5 km/h (3 Bft) 95,12 %
27.07.2019 11:42 26,0 C 27,2 C 35,6 C 57 % 1002,2 hPa 0,0 l/m 4,6 km/h (1 Bft) N 5 2 min 0,000 mm 3,9 UV-I 578 W/m 16,8 C 26,0 C 8,0 km/h (2 Bft) 96,00 %
27.07.2019 11:44 26,2 C 27,2 C 36,7 C 59 % 1002,2 hPa 0,0 l/m 5,7 km/h (1 Bft) W-NW 288 2 min 0,000 mm 4,1 UV-I 628 W/m 17,5 C 26,2 C 9,7 km/h (2 Bft) 96,00 %
27.07.2019 11:46 26,2 C 27,2 C 36,1 C 57 % 1002,2 hPa 0,0 l/m 6,7 km/h (2 Bft) N-NW 331 2 min 0,000 mm 4,2 UV-I 707 W/m 17,0 C 26,1 C 12,9 km/h (3 Bft) 95,12 %
27.07.2019 11:48 26,2 C 27,2 C 37,8 C 58 % 1002,1 hPa 0,0 l/m 4,3 km/h (1 Bft) N 360 2 min 0,000 mm 4,3 UV-I 712 W/m 17,3 C 26,2 C 8,0 km/h (2 Bft) 97,62 %
27.07.2019 11:50 26,3 C 27,2 C 37,8 C 57 % 1002,1 hPa 0,0 l/m 6,3 km/h (2 Bft) W-SW 246 2 min 0,000 mm 4,2 UV-I 699 W/m 17,1 C 26,3 C 11,3 km/h (2 Bft) 100,00 %
27.07.2019 11:52 26,3 C 27,2 C 37,8 C 58 % 1002,1 hPa 0,0 l/m 3,1 km/h (1 Bft) NW 322 2 min 0,000 mm 4,1 UV-I 640 W/m 17,4 C 26,3 C 4,8 km/h (1 Bft) 100,00 %
27.07.2019 11:54 26,5 C 27,2 C 37,8 C 59 % 1002,1 hPa 0,0 l/m 5,4 km/h (1 Bft) NW 304 2 min 0,000 mm 4,0 UV-I 612 W/m 17,8 C 26,5 C 12,9 km/h (3 Bft) 97,56 %
27.07.2019 11:56 26,4 C 27,2 C 37,2 C 56 % 1002,1 hPa 0,0 l/m 6,5 km/h (2 Bft) W-NW 282 2 min 0,000 mm 4,0 UV-I 620 W/m 16,9 C 26,4 C 14,5 km/h (3 Bft) 100,00 %
27.07.2019 11:58 26,3 C 27,2 C 36,1 C 57 % 1002,1 hPa 0,0 l/m 5,0 km/h (1 Bft) W 267 2 min 0,000 mm 3,7 UV-I 557 W/m 17,1 C 26,3 C 11,3 km/h (2 Bft) 100,00 %
27.07.2019 12:00 26,1 C 27,8 C 35,6 C 56 % 1002,1 hPa 0,0 l/m 5,2 km/h (1 Bft) W 279 2 min 0,432 mm 3,6 UV-I 499 W/m 16,6 C 26,1 C 8,0 km/h (2 Bft) 95,65 %
27.07.2019 12:02 25,9 C 27,8 C 35,0 C 56 % 1002,1 hPa 0,0 l/m 5,1 km/h (1 Bft) W-NW 292 2 min 0,000 mm 3,9 UV-I 566 W/m 16,4 C 25,9 C 9,7 km/h (2 Bft) 100,00 %
27.07.2019 12:04 25,9 C 27,2 C 35,0 C 58 % 1002,1 hPa 0,0 l/m 4,7 km/h (1 Bft) NW 319 2 min 0,000 mm 3,9 UV-I 573 W/m 17,0 C 25,9 C 6,4 km/h (2 Bft) 100,00 %
27.07.2019 12:06 26,1 C 27,8 C 35,6 C 58 % 1002,1 hPa 0,0 l/m 4,7 km/h (1 Bft) N-NW 332 2 min 0,000 mm 4,0 UV-I 565 W/m 17,2 C 26,1 C 8,0 km/h (2 Bft) 97,56 %
27.07.2019 12:08 26,3 C 27,2 C 36,7 C 58 % 1002,1 hPa 0,0 l/m 5,3 km/h (1 Bft) W-SW 250 2 min 0,000 mm 4,4 UV-I 659 W/m 17,4 C 26,3 C 11,3 km/h (2 Bft) 100,00 %
27.07.2019 12:10 26,4 C 27,2 C 37,2 C 55 % 1002,1 hPa 0,0 l/m 6,3 km/h (2 Bft) N-NW 334 2 min 0,000 mm 4,5 UV-I 731 W/m 16,6 C 26,4 C 12,9 km/h (3 Bft) 100,00 %
27.07.2019 12:12 26,5 C 27,8 C 37,2 C 56 % 1002,0 hPa 0,0 l/m 9,7 km/h (2 Bft) N-NW 343 2 min 0,000 mm 4,5 UV-I 731 W/m 17,0 C 25,9 C 17,7 km/h (3 Bft) 100,00 %
27.07.2019 12:14 26,5 C 27,2 C 36,7 C 56 % 1002,0 hPa 0,0 l/m 12,4 km/h (3 Bft) N-NO 25 2 min 0,000 mm 4,7 UV-I 797 W/m 17,0 C 25,5 C 17,7 km/h (3 Bft) 100,00 %
27.07.2019 12:16 26,6 C 27,8 C 36,7 C 57 % 1001,8 hPa 0,0 l/m 9,3 km/h (2 Bft) N 350 2 min 0,000 mm 4,8 UV-I 616 W/m 17,4 C 26,0 C 14,5 km/h (3 Bft) 100,00 %
27.07.2019 12:18 26,7 C 27,8 C 37,8 C 56 % 1001,8 hPa 0,0 l/m 6,2 km/h (2 Bft) NO 42 2 min 0,000 mm 5,0 UV-I 816 W/m 17,2 C 26,7 C 9,7 km/h (2 Bft) 100,00 %
27.07.2019 12:20 26,8 C 27,8 C 38,9 C 57 % 1001,9 hPa 0,0 l/m 5,8 km/h (2 Bft) N-NW 327 2 min 0,000 mm 5,0 UV-I 795 W/m 17,6 C 26,8 C 11,3 km/h (2 Bft) 100,00 %
27.07.2019 12:22 27,1 C 27,8 C 40,0 C 55 % 1001,8 hPa 0,0 l/m 4,6 km/h (1 Bft) N 11 2 min 0,000 mm 5,0 UV-I 808 W/m 17,3 C 27,1 C 8,0 km/h (2 Bft) 100,00 %
27.07.2019 12:24 27,1 C 27,8 C 40,6 C 56 % 1001,8 hPa 0,0 l/m 7,3 km/h (2 Bft) NW 314 2 min 0,000 mm 5,2 UV-I 842 W/m 17,5 C 26,9 C 14,5 km/h (3 Bft) 100,00 %
27.07.2019 12:26 26,9 C 27,8 C 40,0 C 54 % 1001,7 hPa 0,0 l/m 9,9 km/h (2 Bft) N 5 2 min 0,000 mm 5,2 UV-I 853 W/m 16,8 C 26,3 C 14,5 km/h (3 Bft) 100,00 %
27.07.2019 12:28 26,8 C 27,8 C 40,0 C 54 % 1001,8 hPa 0,0 l/m 7,0 km/h (2 Bft) N 355 2 min 0,000 mm 5,2 UV-I 849 W/m 16,7 C 26,7 C 14,5 km/h (3 Bft) 100,00 %
27.07.2019 12:30 27,2 C 27,8 C 39,4 C 54 % 1001,8 hPa 0,0 l/m 12,1 km/h (2 Bft) N-NW 344 2 min 0,000 mm 5,2 UV-I 849 W/m 17,1 C 26,3 C 17,7 km/h (3 Bft) 100,00 %
27.07.2019 12:32 27,3 C 27,8 C 38,9 C 55 % 1001,7 hPa 0,0 l/m 10,5 km/h (2 Bft) NW 316 2 min 0,000 mm 5,3 UV-I 852 W/m 17,4 C 26,6 C 16,1 km/h (3 Bft) 100,00 %
27.07.2019 12:34 27,4 C 27,8 C 39,4 C 52 % 1001,7 hPa 0,0 l/m 6,8 km/h (2 Bft) W-NW 290 2 min 0,000 mm 5,3 UV-I 899 W/m 16,7 C 27,3 C 11,3 km/h (2 Bft) 97,87 %
27.07.2019 12:36 27,3 C 27,8 C 40,6 C 54 % 1001,7 hPa 0,0 l/m 6,6 km/h (2 Bft) NW 306 2 min 0,000 mm 5,0 UV-I 900 W/m 17,2 C 27,3 C 12,9 km/h (3 Bft) 100,00 %
27.07.2019 12:39 27,2 C 27,8 C 40,0 C 54 % 1001,8 hPa 0,0 l/m 6,0 km/h (2 Bft) W-NW 287 3 min 0,000 mm 5,1 UV-I 906 W/m 17,1 C 27,2 C 11,3 km/h (2 Bft) 100,00 %
27.07.2019 12:40 27,2 C 27,8 C 40,0 C 54 % 1001,8 hPa 0,0 l/m 2,9 km/h (1 Bft) W 271 1 min 0,000 mm 4,4 UV-I 737 W/m 17,1 C 27,2 C 4,8 km/h (1 Bft) 100,00 %
27.07.2019 12:42 27,1 C 27,8 C 39,4 C 53 % 1001,7 hPa 0,0 l/m 6,5 km/h (2 Bft) W-SW 245 2 min 0,000 mm 4,9 UV-I 531 W/m 16,7 C 27,1 C 11,3 km/h (2 Bft) 100,00 %
27.07.2019 12:44 27,1 C 27,8 C 40,6 C 55 % 1001,7 hPa 0,0 l/m 5,2 km/h (1 Bft) W 268 2 min 0,000 mm 5,1 UV-I 826 W/m 17,3 C 27,1 C 8,0 km/h (2 Bft) 100,00 %
27.07.2019 12:46 27,2 C 27,8 C 42,2 C 55 % 1001,7 hPa 0,0 l/m 2,3 km/h (1 Bft) W-NW 295 2 min 0,000 mm 5,2 UV-I 911 W/m 17,4 C 27,2 C 4,8 km/h (1 Bft) 100,00 %
27.07.2019 12:48 27,4 C 27,8 C 41,7 C 53 % 1001,7 hPa 0,0 l/m 5,5 km/h (1 Bft) NW 319 2 min 0,000 mm 4,8 UV-I 884 W/m 17,0 C 27,4 C 11,3 km/h (2 Bft) 100,00 %
27.07.2019 12:50 27,5 C 27,8 C 41,1 C 53 % 1001,7 hPa 0,0 l/m 5,0 km/h (1 Bft) N-NW 327 2 min 0,000 mm 4,5 UV-I 884 W/m 17,0 C 27,5 C 8,0 km/h (2 Bft) 100,00 %
27.07.2019 12:52 27,7 C 27,8 C 41,1 C 54 % 1001,7 hPa 0,0 l/m 4,3 km/h (1 Bft) N 351 2 min 0,000 mm 5,0 UV-I 848 W/m 17,5 C 27,7 C 8,0 km/h (2 Bft) 100,00 %
27.07.2019 12:54 27,6 C 27,8 C 41,7 C 52 % 1001,7 hPa 0,0 l/m 6,3 km/h (2 Bft) NW 315 2 min 0,000 mm 4,9 UV-I 716 W/m 16,8 C 27,6 C 9,7 km/h (2 Bft) 97,87 %
27.07.2019 12:56 27,7 C 27,8 C 41,7 C 51 % 1001,6 hPa 0,0 l/m 7,5 km/h (2 Bft) W-NW 284 2 min 0,000 mm 5,1 UV-I 930 W/m 16,6 C 27,5 C 12,9 km/h (3 Bft) 96,00 %
27.07.2019 12:58 27,5 C 27,8 C 41,7 C 52 % 1001,6 hPa 0,0 l/m 3,8 km/h (1 Bft) W-SW 247 2 min 0,000 mm 4,5 UV-I 930 W/m 16,7 C 27,5 C 8,0 km/h (2 Bft) 97,87 %
27.07.2019 13:00 27,4 C 27,8 C 40,6 C 52 % 1001,6 hPa 0,0 l/m 3,1 km/h (1 Bft) W 281 2 min 0,533 mm 4,6 UV-I 930 W/m 16,7 C 27,4 C 6,4 km/h (2 Bft) 98,00 %
27.07.2019 13:02 27,3 C 27,8 C 40,6 C 51 % 1001,5 hPa 0,0 l/m 2,8 km/h (1 Bft) W 279 0 min 0,000 mm 4,6 UV-I 443 W/m 16,3 C 27,3 C 4,8 km/h (1 Bft) 93,62 %
27.07.2019 13:04 27,4 C 27,8 C 41,7 C 52 % 1001,5 hPa 0,0 l/m 6,7 km/h (2 Bft) W 273 2 min 0,000 mm 5,5 UV-I 756 W/m 16,7 C 27,4 C 11,3 km/h (2 Bft) 93,18 %
27.07.2019 13:06 27,6 C 27,8 C 41,7 C 53 % 1001,5 hPa 0,0 l/m 5,1 km/h (1 Bft) W 263 2 min 0,000 mm 5,5 UV-I 952 W/m 17,1 C 27,6 C 6,4 km/h (2 Bft) 95,24 %
27.07.2019 13:08 27,7 C 27,8 C 42,8 C 54 % 1001,5 hPa 0,0 l/m 6,0 km/h (2 Bft) N 11 2 min 0,000 mm 5,5 UV-I 935 W/m 17,5 C 27,7 C 14,5 km/h (3 Bft) 96,43 %
27.07.2019 13:10 27,9 C 27,8 C 42,2 C 52 % 1001,5 hPa 0,0 l/m 10,1 km/h (2 Bft) N-NO 19 2 min 0,000 mm 5,5 UV-I 936 W/m 17,1 C 27,4 C 14,5 km/h (3 Bft) 94,74 %
27.07.2019 13:12 28,0 C 27,8 C 42,2 C 54 % 1001,5 hPa 0,0 l/m 7,3 km/h (2 Bft) N 5 2 min 0,000 mm 5,2 UV-I 914 W/m 17,8 C 27,9 C 12,9 km/h (3 Bft) 96,00 %
27.07.2019 13:14 28,1 C 27,8 C 41,7 C 52 % 1001,4 hPa 0,0 l/m 4,7 km/h (1 Bft) W 260 2 min 0,000 mm 4,9 UV-I 918 W/m 17,3 C 28,1 C 8,0 km/h (2 Bft) 94,00 %
27.07.2019 13:16 28,1 C 27,8 C 43,3 C 52 % 1001,4 hPa 0,0 l/m 4,1 km/h (1 Bft) N-NW 342 2 min 0,000 mm 5,5 UV-I 934 W/m 17,3 C 28,1 C 11,3 km/h (2 Bft) 95,12 %
27.07.2019 13:18 28,3 C 27,8 C 43,3 C 50 % 1001,4 hPa 0,0 l/m 9,3 km/h (2 Bft) N-NW 330 2 min 0,000 mm 5,4 UV-I 908 W/m 16,9 C 27,9 C 17,7 km/h (3 Bft) 96,23 %
27.07.2019 13:20 28,3 C 27,8 C 41,7 C 51 % 1001,3 hPa 0,0 l/m 12,0 km/h (2 Bft) N 355 2 min 0,000 mm 5,0 UV-I 820 W/m 17,2 C 27,6 C 17,7 km/h (3 Bft) 95,12 %
27.07.2019 13:22 28,2 C 27,8 C 41,1 C 51 % 1001,2 hPa 0,0 l/m 9,2 km/h (2 Bft) N-NO 26 2 min 0,000 mm 5,0 UV-I 838 W/m 17,1 C 27,8 C 14,5 km/h (3 Bft) 95,74 %
27.07.2019 13:24 28,2 C 27,8 C 40,6 C 51 % 1001,2 hPa 0,0 l/m 7,1 km/h (2 Bft) NW 315 2 min 0,000 mm 5,1 UV-I 875 W/m 17,1 C 28,1 C 14,5 km/h (3 Bft) 92,00 %
27.07.2019 13:26 28,2 C 27,8 C 40,0 C 51 % 1001,2 hPa 0,0 l/m 5,7 km/h (1 Bft) W-SW 258 2 min 0,000 mm 4,4 UV-I 705 W/m 17,1 C 28,2 C 9,7 km/h (2 Bft) 92,00 %
27.07.2019 13:28 28,1 C 27,8 C 40,0 C 50 % 1001,3 hPa 0,0 l/m 5,8 km/h (2 Bft) NW 310 2 min 0,000 mm 4,4 UV-I 575 W/m 16,7 C 28,1 C 9,7 km/h (2 Bft) 97,87 %
27.07.2019 13:30 28,0 C 27,8 C 40,6 C 50 % 1001,2 hPa 0,0 l/m 4,9 km/h (1 Bft) W 280 2 min 0,000 mm 4,7 UV-I 785 W/m 16,6 C 28,0 C 9,7 km/h (2 Bft) 95,74 %
27.07.2019 13:32 27,9 C 27,8 C 40,6 C 50 % 1001,2 hPa 0,0 l/m 5,3 km/h (1 Bft) W-SW 258 2 min 0,000 mm 4,8 UV-I 791 W/m 16,5 C 27,9 C 11,3 km/h (2 Bft) 97,37 %
27.07.2019 13:34 27,9 C 27,8 C 41,1 C 51 % 1001,2 hPa 0,0 l/m 4,6 km/h (1 Bft) NW 326 2 min 0,000 mm 5,0 UV-I 840 W/m 16,8 C 27,9 C 6,4 km/h (2 Bft) 100,00 %
27.07.2019 13:36 28,1 C 27,8 C 41,1 C 50 % 1001,2 hPa 0,0 l/m 4,7 km/h (1 Bft) W-NW 294 2 min 0,000 mm 5,1 UV-I 857 W/m 16,7 C 28,1 C 6,4 km/h (2 Bft) 100,00 %
27.07.2019 13:38 28,3 C 27,8 C 42,2 C 50 % 1001,2 hPa 0,0 l/m 3,1 km/h (1 Bft) SW 228 2 min 0,000 mm 5,2 UV-I 892 W/m 16,9 C 28,3 C 4,8 km/h (1 Bft) 100,00 %
27.07.2019 13:40 28,5 C 27,8 C 43,9 C 50 % 1001,0 hPa 0,0 l/m 3,6 km/h (1 Bft) W-SW 250 2 min 0,000 mm 5,4 UV-I 914 W/m 17,0 C 28,5 C 8,0 km/h (2 Bft) 98,00 %
27.07.2019 13:42 28,6 C 27,8 C 43,9 C 51 % 1001,0 hPa 0,0 l/m 4,0 km/h (1 Bft) N 11 2 min 0,000 mm 5,4 UV-I 892 W/m 17,4 C 28,6 C 9,7 km/h (2 Bft) 100,00 %
27.07.2019 13:44 28,8 C 27,8 C 43,9 C 48 % 1001,0 hPa 0,0 l/m 2,6 km/h (1 Bft) N-NO 13 2 min 0,000 mm 5,4 UV-I 886 W/m 16,7 C 28,8 C 6,4 km/h (2 Bft) 100,00 %
27.07.2019 13:46 28,7 C 27,8 C 43,9 C 48 % 1000,9 hPa 0,0 l/m 6,2 km/h (2 Bft) W 263 2 min 0,000 mm 5,5 UV-I 930 W/m 16,6 C 28,7 C 12,9 km/h (3 Bft) 98,21 %
27.07.2019 13:48 28,6 C 27,8 C 43,3 C 49 % 1000,9 hPa 0,0 l/m 7,6 km/h (2 Bft) W 280 2 min 0,000 mm 5,3 UV-I 880 W/m 16,8 C 28,4 C 12,9 km/h (3 Bft) 100,00 %
27.07.2019 13:50 28,8 C 27,8 C 41,7 C 48 % 1000,9 hPa 0,0 l/m 10,1 km/h (2 Bft) N-NO 24 2 min 0,000 mm 5,0 UV-I 801 W/m 16,7 C 28,4 C 14,5 km/h (3 Bft) 100,00 %
27.07.2019 13:52 28,8 C 27,8 C 41,7 C 48 % 1000,9 hPa 0,0 l/m 9,2 km/h (2 Bft) N 9 2 min 0,000 mm 5,1 UV-I 906 W/m 16,7 C 28,4 C 14,5 km/h (3 Bft) 98,00 %
27.07.2019 13:54 28,8 C 27,8 C 40,0 C 48 % 1000,8 hPa 0,0 l/m 9,1 km/h (2 Bft) N 355 2 min 0,000 mm 4,2 UV-I 718 W/m 16,7 C 28,5 C 14,5 km/h (3 Bft) 97,87 %
27.07.2019 13:56 28,6 C 27,8 C 37,8 C 47 % 1000,9 hPa 0,0 l/m 10,0 km/h (2 Bft) N-NO 19 2 min 0,000 mm 3,8 UV-I 484 W/m 16,2 C 28,1 C 16,1 km/h (3 Bft) 100,00 %
27.07.2019 13:58 28,4 C 27,8 C 36,7 C 48 % 1000,8 hPa 0,0 l/m 6,8 km/h (2 Bft) N-NO 14 2 min 0,000 mm 3,7 UV-I 518 W/m 16,3 C 28,3 C 12,9 km/h (3 Bft) 97,56 %
27.07.2019 14:00 28,2 C 27,8 C 35,0 C 48 % 1000,8 hPa 0,0 l/m 11,6 km/h (2 Bft) NO 36 0 min 0,000 mm 3,6 UV-I 436 W/m 16,1 C 27,5 C 14,5 km/h (3 Bft) 96,23 %
27.07.2019 14:02 28,0 C 27,8 C 33,9 C 49 % 1000,8 hPa 0,0 l/m 6,0 km/h (2 Bft) NO 43 0 min 0,559 mm 3,3 UV-I 379 W/m 16,3 C 28,0 C 8,0 km/h (2 Bft) 100,00 %
27.07.2019 14:04 27,6 C 27,8 C 33,9 C 48 % 1000,8 hPa 0,0 l/m 1,8 km/h (1 Bft) NO 46 0 min 0,000 mm 3,2 UV-I 381 W/m 15,6 C 27,6 C 3,2 km/h (1 Bft) 100,00 %
27.07.2019 14:06 27,6 C 27,8 C 33,9 C 50 % 1000,8 hPa 0,0 l/m 3,7 km/h (1 Bft) N-NW 330 0 min 0,000 mm 3,5 UV-I 393 W/m 16,2 C 27,6 C 8,0 km/h (2 Bft) 100,00 %
27.07.2019 14:08 27,7 C 27,8 C 35,6 C 50 % 1000,8 hPa 0,0 l/m 13,4 km/h (3 Bft) N 11 2 min 0,000 mm 4,5 UV-I 474 W/m 16,3 C 26,7 C 20,9 km/h (4 Bft) 100,00 %
27.07.2019 14:10 27,9 C 27,8 C 37,2 C 50 % 1000,8 hPa 0,0 l/m 5,9 km/h (2 Bft) NW 318 2 min 0,000 mm 4,5 UV-I 744 W/m 16,5 C 27,9 C 8,0 km/h (2 Bft) 100,00 %
27.07.2019 14:12 28,0 C 27,8 C 38,3 C 48 % 1000,8 hPa 0,0 l/m 4,4 km/h (1 Bft) NW 325 2 min 0,000 mm 4,5 UV-I 708 W/m 15,9 C 28,0 C 6,4 km/h (2 Bft) 97,87 %
27.07.2019 14:14 28,2 C 27,8 C 39,4 C 48 % 1000,8 hPa 0,0 l/m 2,1 km/h (1 Bft) NW 323 2 min 0,000 mm 4,3 UV-I 723 W/m 16,1 C 28,2 C 6,4 km/h (2 Bft) 95,74 %
27.07.2019 14:16 28,3 C 27,8 C 38,9 C 48 % 1000,7 hPa 0,0 l/m 3,0 km/h (1 Bft) W-NW 302 2 min 0,000 mm 3,4 UV-I 544 W/m 16,2 C 28,3 C 6,4 km/h (2 Bft) 97,44 %
27.07.2019 14:18 28,3 C 28,3 C 37,8 C 49 % 1000,8 hPa 0,0 l/m 5,2 km/h (1 Bft) N-NW 340 0 min 0,000 mm 3,0 UV-I 433 W/m 16,5 C 28,3 C 9,7 km/h (2 Bft) 98,11 %
27.07.2019 14:20 28,1 C 27,8 C 36,7 C 47 % 1000,8 hPa 0,0 l/m 6,6 km/h (2 Bft) N-NW 345 0 min 0,000 mm 3,0 UV-I 441 W/m 15,7 C 28,1 C 9,7 km/h (2 Bft) 98,00 %
27.07.2019 14:22 28,0 C 27,8 C 36,1 C 49 % 1000,8 hPa 0,0 l/m 5,7 km/h (1 Bft) N-NW 332 0 min 0,000 mm 3,0 UV-I 430 W/m 16,3 C 28,0 C 9,7 km/h (2 Bft) 95,74 %
27.07.2019 14:24 27,9 C 28,3 C 34,4 C 50 % 1000,7 hPa 0,0 l/m 9,7 km/h (2 Bft) N-NO 28 0 min 0,000 mm 2,9 UV-I 424 W/m 16,5 C 27,4 C 14,5 km/h (3 Bft) 100,00 %
27.07.2019 14:26 28,0 C 28,3 C 33,9 C 49 % 1000,7 hPa 0,0 l/m 11,1 km/h (2 Bft) NO 41 0 min 0,000 mm 3,0 UV-I 454 W/m 16,3 C 27,3 C 14,5 km/h (3 Bft) 96,00 %
27.07.2019 14:28 27,9 C 28,3 C 33,3 C 49 % 1000,7 hPa 0,0 l/m 8,3 km/h (2 Bft) N-NO 20 0 min 0,000 mm 2,9 UV-I 450 W/m 16,2 C 27,6 C 12,9 km/h (3 Bft) 98,00 %
27.07.2019 14:30 28,0 C 27,8 C 33,3 C 50 % 1000,7 hPa 0,0 l/m 6,8 km/h (2 Bft) N 11 0 min 0,000 mm 2,7 UV-I 417 W/m 16,6 C 27,9 C 11,3 km/h (2 Bft) 98,11 %
27.07.2019 14:32 27,9 C 28,3 C 33,3 C 48 % 1000,6 hPa 0,0 l/m 5,5 km/h (1 Bft) NO 34 0 min 0,000 mm 2,7 UV-I 432 W/m 15,9 C 27,9 C 8,0 km/h (2 Bft) 97,56 %
27.07.2019 14:34 27,9 C 28,3 C 33,9 C 49 % 1000,6 hPa 0,0 l/m 6,1 km/h (2 Bft) N-NO 19 2 min 0,000 mm 3,3 UV-I 462 W/m 16,2 C 27,9 C 9,7 km/h (2 Bft) 98,11 %
27.07.2019 14:36 28,2 C 28,3 C 36,1 C 51 % 1000,6 hPa 0,0 l/m 9,5 km/h (2 Bft) N 355 2 min 0,000 mm 4,2 UV-I 720 W/m 17,1 C 27,8 C 14,5 km/h (3 Bft) 97,37 %
27.07.2019 14:38 28,3 C 28,3 C 35,0 C 49 % 1000,5 hPa 0,0 l/m 9,7 km/h (2 Bft) N 351 2 min 0,000 mm 3,4 UV-I 574 W/m 16,5 C 27,8 C 14,5 km/h (3 Bft) 98,11 %
27.07.2019 14:40 28,2 C 28,3 C 34,4 C 48 % 1000,5 hPa 0,0 l/m 6,7 km/h (2 Bft) N-NO 20 0 min 0,000 mm 3,1 UV-I 398 W/m 16,1 C 28,2 C 12,9 km/h (3 Bft) 97,87 %
27.07.2019 14:42 28,1 C 28,3 C 33,9 C 49 % 1000,6 hPa 0,0 l/m 6,3 km/h (2 Bft) N-NO 32 0 min 0,000 mm 2,8 UV-I 373 W/m 16,4 C 28,1 C 12,9 km/h (3 Bft) 94,74 %
27.07.2019 14:44 27,9 C 28,3 C 33,3 C 50 % 1000,6 hPa 0,0 l/m 2,4 km/h (1 Bft) NO 54 0 min 0,000 mm 2,5 UV-I 339 W/m 16,5 C 27,9 C 6,4 km/h (2 Bft) 97,87 %
27.07.2019 14:46 27,8 C 28,3 C 32,8 C 49 % 1000,7 hPa 0,0 l/m 4,8 km/h (1 Bft) NO 44 0 min 0,000 mm 2,2 UV-I 323 W/m 16,1 C 27,8 C 6,4 km/h (2 Bft) 94,34 %
27.07.2019 14:48 27,7 C 28,3 C 32,2 C 52 % 1000,6 hPa 0,0 l/m 8,0 km/h (2 Bft) N-NO 17 0 min 0,000 mm 2,2 UV-I 319 W/m 16,9 C 27,4 C 12,9 km/h (3 Bft) 95,12 %
27.07.2019 14:50 27,6 C 28,3 C 31,7 C 51 % 1000,7 hPa 0,0 l/m 6,1 km/h (2 Bft) N-NO 33 0 min 0,000 mm 2,1 UV-I 317 W/m 16,5 C 27,6 C 9,7 km/h (2 Bft) 96,00 %
27.07.2019 14:52 27,6 C 28,3 C 31,1 C 51 % 1000,6 hPa 0,0 l/m 4,9 km/h (1 Bft) NO 46 0 min 0,000 mm 1,9 UV-I 301 W/m 16,5 C 27,6 C 8,0 km/h (2 Bft) 94,00 %
27.07.2019 14:54 27,5 C 28,3 C 31,1 C 51 % 1000,6 hPa 0,0 l/m 5,0 km/h (1 Bft) NO 34 0 min 0,000 mm 1,8 UV-I 275 W/m 16,4 C 27,5 C 8,0 km/h (2 Bft) 91,67 %
27.07.2019 14:56 27,4 C 28,3 C 31,1 C 50 % 1000,6 hPa 0,0 l/m 3,2 km/h (1 Bft) O 99 0 min 0,000 mm 1,7 UV-I 266 W/m 16,0 C 27,4 C 4,8 km/h (1 Bft) 94,64 %
27.07.2019 14:58 27,5 C 28,3 C 31,1 C 50 % 1000,6 hPa 0,0 l/m 1,6 km/h (1 Bft) NO 35 0 min 0,000 mm 1,7 UV-I 276 W/m 16,1 C 27,5 C 6,4 km/h (2 Bft) 94,23 %
27.07.2019 15:00 27,6 C 28,3 C 31,1 C 51 % 1000,6 hPa 0,0 l/m 7,1 km/h (2 Bft) NO 56 0 min 0,000 mm 1,9 UV-I 315 W/m 16,5 C 27,5 C 9,7 km/h (2 Bft) 92,86 %
27.07.2019 15:02 27,6 C 28,3 C 31,1 C 53 % 1000,6 hPa 0,0 l/m 8,1 km/h (2 Bft) NO 37 0 min 0,356 mm 2,2 UV-I 393 W/m 17,1 C 27,3 C 14,5 km/h (3 Bft) 92,68 %
27.07.2019 15:04 27,6 C 28,3 C 32,2 C 52 % 1000,5 hPa 0,0 l/m 5,1 km/h (1 Bft) NO 52 2 min 0,000 mm 2,6 UV-I 526 W/m 16,8 C 27,6 C 8,0 km/h (2 Bft) 94,00 %
27.07.2019 15:06 27,8 C 28,3 C 32,8 C 53 % 1000,5 hPa 0,0 l/m 6,4 km/h (2 Bft) O-NO 58 2 min 0,000 mm 2,5 UV-I 482 W/m 17,3 C 27,8 C 8,0 km/h (2 Bft) 94,00 %
27.07.2019 15:08 27,9 C 28,3 C 32,8 C 52 % 1000,5 hPa 0,0 l/m 8,1 km/h (2 Bft) NO 49 0 min 0,000 mm 2,5 UV-I 402 W/m 17,1 C 27,6 C 11,3 km/h (2 Bft) 95,74 %
27.07.2019 15:10 27,9 C 28,3 C 32,8 C 53 % 1000,5 hPa 0,0 l/m 7,8 km/h (2 Bft) N 355 0 min 0,000 mm 2,3 UV-I 347 W/m 17,4 C 27,7 C 9,7 km/h (2 Bft) 96,00 %
27.07.2019 15:12 27,9 C 28,3 C 32,2 C 51 % 1000,5 hPa 0,0 l/m 6,0 km/h (2 Bft) O 86 0 min 0,000 mm 1,9 UV-I 263 W/m 16,8 C 27,9 C 11,3 km/h (2 Bft) 92,11 %
27.07.2019 15:14 27,8 C 28,3 C 31,7 C 51 % 1000,5 hPa 0,0 l/m 6,4 km/h (2 Bft) O 79 0 min 0,000 mm 1,6 UV-I 220 W/m 16,7 C 27,8 C 9,7 km/h (2 Bft) 96,23 %
27.07.2019 15:16 27,6 C 28,3 C 30,6 C 51 % 1000,4 hPa 0,0 l/m 11,5 km/h (2 Bft) O-NO 67 0 min 0,000 mm 1,4 UV-I 205 W/m 16,5 C 26,8 C 16,1 km/h (3 Bft) 96,00 %
27.07.2019 15:18 27,3 C 28,3 C 29,4 C 51 % 1000,4 hPa 0,0 l/m 11,7 km/h (2 Bft) O-NO 75 0 min 0,000 mm 1,4 UV-I 200 W/m 16,3 C 26,5 C 16,1 km/h (3 Bft) 97,56 %
27.07.2019 15:20 27,2 C 28,3 C 29,4 C 52 % 1000,4 hPa 0,0 l/m 8,4 km/h (2 Bft) O-NO 58 0 min 0,000 mm 1,4 UV-I 201 W/m 16,5 C 26,8 C 11,3 km/h (2 Bft) 98,00 %
27.07.2019 15:22 27,1 C 28,3 C 28,9 C 53 % 1000,4 hPa 0,0 l/m 8,3 km/h (2 Bft) NO 36 0 min 0,000 mm 1,4 UV-I 208 W/m 16,7 C 26,8 C 11,3 km/h (2 Bft) 96,00 %
27.07.2019 15:24 27,1 C 28,3 C 28,9 C 53 % 1000,3 hPa 0,0 l/m 8,0 km/h (2 Bft) O-NO 59 0 min 0,000 mm 1,4 UV-I 219 W/m 16,7 C 26,8 C 9,7 km/h (2 Bft) 100,00 %
27.07.2019 15:26 27,1 C 28,3 C 28,9 C 54 % 1000,3 hPa 0,0 l/m 11,0 km/h (2 Bft) NO 53 0 min 0,000 mm 1,4 UV-I 227 W/m 17,0 C 26,3 C 16,1 km/h (3 Bft) 96,00 %
27.07.2019 15:28 27,1 C 28,3 C 28,9 C 55 % 1000,3 hPa 0,0 l/m 12,6 km/h (3 Bft) NO 50 0 min 0,000 mm 1,4 UV-I 233 W/m 17,3 C 26,1 C 17,7 km/h (3 Bft) 100,00 %
27.07.2019 15:30 27,0 C 28,3 C 28,9 C 54 % 1000,2 hPa 0,0 l/m 13,3 km/h (3 Bft) O-NO 69 0 min 0,000 mm 1,4 UV-I 243 W/m 16,9 C 25,9 C 20,9 km/h (4 Bft) 98,11 %
27.07.2019 15:32 26,9 C 28,3 C 28,9 C 53 % 1000,3 hPa 0,0 l/m 16,6 km/h (3 Bft) O-NO 65 0 min 0,000 mm 1,4 UV-I 249 W/m 16,5 C 25,4 C 24,1 km/h (4 Bft) 100,00 %
27.07.2019 15:34 26,9 C 27,8 C 28,9 C 54 % 1000,2 hPa 0,0 l/m 16,1 km/h (3 Bft) O-NO 63 0 min 0,000 mm 1,5 UV-I 261 W/m 16,8 C 25,5 C 22,5 km/h (4 Bft) 100,00 %
27.07.2019 15:36 26,9 C 28,3 C 28,9 C 54 % 1000,2 hPa 0,0 l/m 12,2 km/h (2 Bft) O-SO 113 0 min 0,000 mm 1,6 UV-I 281 W/m 16,8 C 25,9 C 19,3 km/h (3 Bft) 97,87 %
27.07.2019 15:38 26,9 C 27,8 C 29,4 C 53 % 1000,2 hPa 0,0 l/m 15,8 km/h (3 Bft) O 98 0 min 0,000 mm 1,7 UV-I 303 W/m 16,5 C 25,5 C 24,1 km/h (4 Bft) 100,00 %
27.07.2019 15:40 26,9 C 27,8 C 29,4 C 54 % 1000,1 hPa 0,0 l/m 13,7 km/h (3 Bft) O 84 0 min 0,000 mm 1,8 UV-I 318 W/m 16,8 C 25,8 C 22,5 km/h (4 Bft) 100,00 %
27.07.2019 15:42 26,9 C 27,8 C 30,0 C 54 % 1000,1 hPa 0,0 l/m 13,0 km/h (3 Bft) O-NO 72 0 min 0,000 mm 1,8 UV-I 322 W/m 16,8 C 25,8 C 19,3 km/h (3 Bft) 100,00 %
27.07.2019 15:44 26,9 C 27,8 C 30,0 C 53 % 1000,1 hPa 0,0 l/m 14,5 km/h (3 Bft) O-NO 77 0 min 0,000 mm 1,8 UV-I 317 W/m 16,5 C 25,7 C 19,3 km/h (3 Bft) 100,00 %
27.07.2019 15:46 26,9 C 27,8 C 30,0 C 53 % 1000,0 hPa 0,0 l/m 13,4 km/h (3 Bft) N-NO 32 0 min 0,000 mm 1,7 UV-I 313 W/m 16,5 C 25,8 C 22,5 km/h (4 Bft) 98,11 %
27.07.2019 15:48 26,9 C 27,8 C 30,0 C 54 % 1000,0 hPa 0,0 l/m 9,6 km/h (2 Bft) O 92 0 min 0,000 mm 1,7 UV-I 315 W/m 16,8 C 26,3 C 17,7 km/h (3 Bft) 100,00 %
27.07.2019 15:50 26,9 C 27,8 C 30,6 C 55 % 1000,0 hPa 0,0 l/m 9,6 km/h (2 Bft) NO 50 0 min 0,000 mm 1,7 UV-I 321 W/m 17,1 C 26,3 C 17,7 km/h (3 Bft) 100,00 %
27.07.2019 15:52 27,0 C 27,8 C 30,6 C 55 % 1000,0 hPa 0,0 l/m 11,4 km/h (2 Bft) O-NO 72 0 min 0,000 mm 1,8 UV-I 349 W/m 17,2 C 26,2 C 17,7 km/h (3 Bft) 100,00 %
27.07.2019 15:54 27,0 C 27,8 C 30,6 C 56 % 999,9 hPa 0,0 l/m 13,2 km/h (3 Bft) NO 52 0 min 0,000 mm 1,8 UV-I 337 W/m 17,5 C 25,9 C 20,9 km/h (4 Bft) 97,87 %
27.07.2019 15:56 26,9 C 27,8 C 30,6 C 55 % 999,9 hPa 0,0 l/m 15,4 km/h (3 Bft) O-NO 76 0 min 0,000 mm 1,8 UV-I 318 W/m 17,1 C 25,6 C 19,3 km/h (3 Bft) 100,00 %
27.07.2019 15:58 26,8 C 27,8 C 30,6 C 54 % 999,8 hPa 0,0 l/m 13,0 km/h (3 Bft) O-NO 60 0 min 0,000 mm 1,7 UV-I 316 W/m 16,7 C 25,7 C 20,9 km/h (4 Bft) 100,00 %
27.07.2019 16:00 26,8 C 27,8 C 30,6 C 54 % 999,9 hPa 0,0 l/m 12,8 km/h (3 Bft) O-NO 76 0 min 0,279 mm 1,7 UV-I 315 W/m 16,7 C 25,8 C 17,7 km/h (3 Bft) 100,00 %
27.07.2019 16:02 26,8 C 27,8 C 30,6 C 54 % 999,8 hPa 0,0 l/m 9,1 km/h (2 Bft) O 96 0 min 0,000 mm 1,7 UV-I 315 W/m 16,7 C 26,3 C 14,5 km/h (3 Bft) 100,00 %
27.07.2019 16:04 26,8 C 27,8 C 30,6 C 53 % 999,8 hPa 0,0 l/m 12,6 km/h (3 Bft) O-NO 67 0 min 0,000 mm 1,7 UV-I 325 W/m 16,4 C 25,8 C 19,3 km/h (3 Bft) 98,11 %
27.07.2019 16:06 26,8 C 27,8 C 30,6 C 54 % 999,7 hPa 0,0 l/m 11,9 km/h (2 Bft) O 98 0 min 0,000 mm 1,8 UV-I 352 W/m 16,7 C 25,9 C 17,7 km/h (3 Bft) 100,00 %
27.07.2019 16:08 26,8 C 27,8 C 30,6 C 53 % 999,7 hPa 0,0 l/m 11,7 km/h (2 Bft) NO 56 0 min 0,000 mm 1,8 UV-I 365 W/m 16,4 C 25,9 C 16,1 km/h (3 Bft) 100,00 %
27.07.2019 16:10 26,9 C 27,8 C 31,1 C 53 % 999,7 hPa 0,0 l/m 8,8 km/h (2 Bft) O-NO 70 0 min 0,000 mm 1,8 UV-I 357 W/m 16,5 C 26,5 C 14,5 km/h (3 Bft) 98,51 %
27.07.2019 16:12 26,9 C 27,8 C 31,1 C 53 % 999,7 hPa 0,0 l/m 11,4 km/h (2 Bft) O-NO 57 0 min 0,000 mm 1,8 UV-I 356 W/m 16,5 C 26,1 C 17,7 km/h (3 Bft) 100,00 %
27.07.2019 16:14 26,9 C 27,8 C 31,1 C 54 % 999,7 hPa 0,0 l/m 10,8 km/h (2 Bft) O-NO 74 0 min 0,000 mm 1,8 UV-I 353 W/m 16,8 C 26,1 C 17,7 km/h (3 Bft) 100,00 %
27.07.2019 16:16 26,9 C 27,8 C 31,7 C 55 % 999,7 hPa 0,0 l/m 9,1 km/h (2 Bft) O-NO 65 0 min 0,000 mm 1,7 UV-I 349 W/m 17,1 C 26,4 C 14,5 km/h (3 Bft) 100,00 %
27.07.2019 16:18 27,0 C 27,8 C 31,1 C 52 % 999,7 hPa 0,0 l/m 12,4 km/h (3 Bft) NO 51 0 min 0,000 mm 1,7 UV-I 334 W/m 16,3 C 26,0 C 16,1 km/h (3 Bft) 100,00 %
27.07.2019 16:20 26,9 C 27,8 C 31,1 C 54 % 999,6 hPa 0,0 l/m 14,2 km/h (3 Bft) NO 53 0 min 0,000 mm 1,6 UV-I 319 W/m 16,8 C 25,7 C 19,3 km/h (3 Bft) 100,00 %
27.07.2019 16:22 26,9 C 27,8 C 30,6 C 53 % 999,8 hPa 0,0 l/m 11,0 km/h (2 Bft) O-NO 57 0 min 0,000 mm 1,6 UV-I 309 W/m 16,5 C 26,1 C 16,1 km/h (3 Bft) 100,00 %
27.07.2019 16:24 26,9 C 27,8 C 30,6 C 53 % 999,8 hPa 0,0 l/m 15,9 km/h (3 Bft) O-NO 59 0 min 0,000 mm 1,5 UV-I 303 W/m 16,5 C 25,5 C 19,3 km/h (3 Bft) 100,00 %
27.07.2019 16:26 26,8 C 27,8 C 30,0 C 55 % 999,8 hPa 0,0 l/m 12,8 km/h (3 Bft) O 82 0 min 0,000 mm 1,5 UV-I 301 W/m 17,0 C 25,8 C 17,7 km/h (3 Bft) 98,00 %
27.07.2019 16:28 26,8 C 27,8 C 30,0 C 55 % 999,8 hPa 0,0 l/m 12,2 km/h (2 Bft) O-NO 60 0 min 0,000 mm 1,5 UV-I 302 W/m 17,0 C 25,8 C 17,7 km/h (3 Bft) 97,56 %
27.07.2019 16:30 26,7 C 27,8 C 30,0 C 53 % 999,8 hPa 0,0 l/m 16,6 km/h (3 Bft) O 90 0 min 0,000 mm 1,4 UV-I 301 W/m 16,3 C 25,2 C 20,9 km/h (4 Bft) 97,73 %
27.07.2019 16:32 26,7 C 27,8 C 30,0 C 53 % 999,8 hPa 0,0 l/m 12,3 km/h (3 Bft) O-NO 62 0 min 0,000 mm 1,4 UV-I 298 W/m 16,3 C 25,7 C 16,1 km/h (3 Bft) 96,23 %
27.07.2019 16:34 26,7 C 27,8 C 30,0 C 54 % 999,7 hPa 0,0 l/m 13,5 km/h (3 Bft) O-NO 78 0 min 0,000 mm 1,4 UV-I 298 W/m 16,6 C 25,5 C 19,3 km/h (3 Bft) 96,00 %
27.07.2019 16:36 26,7 C 27,8 C 29,4 C 54 % 999,7 hPa 0,0 l/m 15,0 km/h (3 Bft) O-NO 75 0 min 0,000 mm 1,4 UV-I 300 W/m 16,6 C 25,4 C 24,1 km/h (4 Bft) 97,87 %
27.07.2019 16:38 26,7 C 27,8 C 31,1 C 54 % 999,7 hPa 0,0 l/m 15,2 km/h (3 Bft) O-NO 68 0 min 0,000 mm 1,6 UV-I 335 W/m 16,6 C 25,3 C 20,9 km/h (4 Bft) 97,56 %
27.07.2019 16:40 26,8 C 27,8 C 31,1 C 54 % 999,7 hPa 0,0 l/m 14,1 km/h (3 Bft) O-NO 65 2 min 0,000 mm 1,7 UV-I 358 W/m 16,7 C 25,6 C 20,9 km/h (4 Bft) 98,11 %
27.07.2019 16:42 26,8 C 27,8 C 31,1 C 55 % 999,6 hPa 0,0 l/m 18,1 km/h (3 Bft) O-NO 69 2 min 0,000 mm 1,9 UV-I 387 W/m 17,0 C 25,2 C 29,0 km/h (5 Bft) 97,56 %
27.07.2019 16:44 26,9 C 27,8 C 32,8 C 55 % 999,6 hPa 0,0 l/m 15,2 km/h (3 Bft) O-NO 57 2 min 0,000 mm 2,2 UV-I 505 W/m 17,1 C 25,6 C 22,5 km/h (4 Bft) 95,12 %
27.07.2019 16:46 27,2 C 27,8 C 35,0 C 56 % 999,6 hPa 0,0 l/m 19,4 km/h (3 Bft) NO 47 2 min 0,000 mm 2,5 UV-I 646 W/m 17,6 C 25,6 C 25,7 km/h (4 Bft) 98,11 %
27.07.2019 16:48 27,4 C 27,8 C 36,7 C 54 % 999,6 hPa 0,0 l/m 18,9 km/h (3 Bft) O 82 2 min 0,000 mm 2,6 UV-I 760 W/m 17,3 C 25,9 C 27,4 km/h (4 Bft) 97,78 %
27.07.2019 16:50 27,6 C 27,8 C 37,2 C 55 % 999,5 hPa 0,0 l/m 19,3 km/h (3 Bft) NO 44 2 min 0,000 mm 2,5 UV-I 740 W/m 17,7 C 26,1 C 24,1 km/h (4 Bft) 94,00 %
27.07.2019 16:52 27,8 C 27,8 C 37,8 C 53 % 999,5 hPa 0,0 l/m 17,2 km/h (3 Bft) O 82 2 min 0,000 mm 2,4 UV-I 720 W/m 17,3 C 26,5 C 25,7 km/h (4 Bft) 97,87 %
27.07.2019 16:54 27,9 C 27,8 C 38,3 C 54 % 999,5 hPa 0,0 l/m 16,0 km/h (3 Bft) O-NO 61 2 min 0,000 mm 2,3 UV-I 705 W/m 17,7 C 26,7 C 22,5 km/h (4 Bft) 98,00 %
27.07.2019 16:56 27,9 C 27,8 C 37,8 C 54 % 999,4 hPa 0,0 l/m 19,5 km/h (3 Bft) NO 47 2 min 0,000 mm 2,3 UV-I 708 W/m 17,7 C 26,4 C 25,7 km/h (4 Bft) 97,73 %
27.07.2019 16:58 27,9 C 27,8 C 37,2 C 54 % 999,4 hPa 0,0 l/m 19,8 km/h (3 Bft) NO 51 2 min 0,000 mm 2,3 UV-I 714 W/m 17,7 C 26,4 C 27,4 km/h (4 Bft) 97,37 %
27.07.2019 17:00 27,9 C 27,8 C 37,2 C 56 % 999,4 hPa 0,0 l/m 25,7 km/h (4 Bft) O-SO 109 2 min 0,000 mm 2,3 UV-I 710 W/m 18,3 C 26,0 C 35,4 km/h (5 Bft) 98,31 %
27.07.2019 17:02 27,7 C 27,8 C 36,7 C 58 % 999,5 hPa 0,0 l/m 30,0 km/h (5 Bft) O-NO 74 2 min 0,406 mm 2,2 UV-I 688 W/m 18,7 C 25,5 C 38,6 km/h (5 Bft) 97,37 %
27.07.2019 17:04 27,4 C 27,8 C 35,6 C 58 % 999,5 hPa 0,0 l/m 29,0 km/h (5 Bft) O-SO 113 2 min 0,000 mm 2,0 UV-I 659 W/m 18,4 C 25,2 C 41,8 km/h (6 Bft) 97,87 %
27.07.2019 17:06 27,1 C 27,8 C 33,9 C 60 % 999,6 hPa 0,0 l/m 27,7 km/h (4 Bft) O 91 2 min 0,000 mm 1,9 UV-I 642 W/m 18,6 C 24,8 C 37,0 km/h (5 Bft) 96,43 %
27.07.2019 17:08 26,8 C 27,8 C 34,4 C 61 % 999,6 hPa 0,0 l/m 25,7 km/h (4 Bft) NO 47 2 min 0,000 mm 2,0 UV-I 603 W/m 18,6 C 24,5 C 33,8 km/h (5 Bft) 97,37 %
27.07.2019 17:10 26,7 C 27,8 C 35,0 C 62 % 999,6 hPa 0,0 l/m 22,6 km/h (4 Bft) O-SO 102 2 min 0,000 mm 2,0 UV-I 641 W/m 18,8 C 24,6 C 32,2 km/h (5 Bft) 96,00 %
27.07.2019 17:12 26,7 C 27,8 C 35,0 C 62 % 999,6 hPa 0,0 l/m 26,5 km/h (4 Bft) O-NO 65 2 min 0,000 mm 2,0 UV-I 634 W/m 18,8 C 24,4 C 41,8 km/h (6 Bft) 96,00 %
27.07.2019 17:14 26,6 C 27,8 C 35,0 C 62 % 999,5 hPa 0,0 l/m 23,6 km/h (4 Bft) O 96 2 min 0,000 mm 2,0 UV-I 630 W/m 18,7 C 24,4 C 32,2 km/h (5 Bft) 97,56 %
27.07.2019 17:16 26,5 C 27,8 C 35,6 C 62 % 999,5 hPa 0,0 l/m 25,8 km/h (4 Bft) O 88 2 min 0,000 mm 2,0 UV-I 589 W/m 18,6 C 24,1 C 41,8 km/h (6 Bft) 98,11 %
27.07.2019 17:18 26,4 C 27,8 C 35,0 C 63 % 999,5 hPa 0,0 l/m 25,6 km/h (4 Bft) O-NO 70 2 min 0,000 mm 1,8 UV-I 554 W/m 18,8 C 24,0 C 33,8 km/h (5 Bft) 93,62 %
27.07.2019 17:20 26,3 C 27,8 C 34,4 C 62 % 999,5 hPa 0,0 l/m 27,4 km/h (4 Bft) O 87 2 min 0,000 mm 1,8 UV-I 533 W/m 18,4 C 23,7 C 33,8 km/h (5 Bft) 97,22 %
27.07.2019 17:22 26,2 C 27,8 C 33,9 C 63 % 999,4 hPa 0,0 l/m 25,0 km/h (4 Bft) O 89 2 min 0,000 mm 1,6 UV-I 500 W/m 18,6 C 23,8 C 38,6 km/h (5 Bft) 100,00 %
27.07.2019 17:24 26,0 C 27,8 C 33,3 C 63 % 999,4 hPa 0,0 l/m 27,0 km/h (4 Bft) O 80 2 min 0,000 mm 1,6 UV-I 479 W/m 18,4 C 23,4 C 37,0 km/h (5 Bft) 100,00 %
27.07.2019 17:26 25,8 C 27,8 C 31,1 C 63 % 999,4 hPa 0,0 l/m 26,7 km/h (4 Bft) O-NO 78 2 min 0,000 mm 1,4 UV-I 325 W/m 18,2 C 23,1 C 33,8 km/h (5 Bft) 100,00 %
27.07.2019 17:28 25,6 C 27,8 C 29,4 C 64 % 999,4 hPa 0,0 l/m 24,1 km/h (4 Bft) O 83 0 min 0,000 mm 1,2 UV-I 191 W/m 18,3 C 23,0 C 33,8 km/h (5 Bft) 97,44 %
27.07.2019 17:30 25,4 C 27,8 C 28,3 C 65 % 999,4 hPa 0,0 l/m 22,3 km/h (4 Bft) O 91 0 min 0,000 mm 1,2 UV-I 190 W/m 18,3 C 22,9 C 35,4 km/h (5 Bft) 98,21 %
27.07.2019 17:32 25,2 C 27,8 C 27,8 C 66 % 999,5 hPa 0,0 l/m 23,3 km/h (4 Bft) O-SO 102 0 min 0,000 mm 1,1 UV-I 182 W/m 18,4 C 22,6 C 35,4 km/h (5 Bft) 100,00 %
27.07.2019 17:34 25,1 C 27,8 C 27,2 C 66 % 999,5 hPa 0,0 l/m 24,1 km/h (4 Bft) O-SO 102 0 min 0,000 mm 1,1 UV-I 193 W/m 18,3 C 22,4 C 30,6 km/h (5 Bft) 100,00 %
27.07.2019 17:36 25,0 C 27,8 C 27,2 C 66 % 999,4 hPa 0,0 l/m 18,7 km/h (3 Bft) O-SO 106 0 min 0,000 mm 1,0 UV-I 209 W/m 18,2 C 22,8 C 27,4 km/h (4 Bft) 100,00 %
27.07.2019 17:38 25,0 C 27,8 C 27,2 C 66 % 999,3 hPa 0,0 l/m 19,9 km/h (4 Bft) O-SO 111 0 min 0,000 mm 1,0 UV-I 189 W/m 18,2 C 22,7 C 33,8 km/h (5 Bft) 96,92 %
27.07.2019 17:40 25,0 C 27,8 C 27,2 C 66 % 999,3 hPa 0,0 l/m 18,8 km/h (3 Bft) O-SO 118 0 min 0,000 mm 0,9 UV-I 183 W/m 18,2 C 22,8 C 27,4 km/h (4 Bft) 100,00 %
27.07.2019 17:42 25,0 C 27,8 C 27,2 C 67 % 999,3 hPa 0,0 l/m 18,2 km/h (3 Bft) O 88 0 min 0,000 mm 0,9 UV-I 189 W/m 18,4 C 22,9 C 24,1 km/h (4 Bft) 98,00 %
27.07.2019 17:44 24,9 C 27,8 C 26,7 C 67 % 999,3 hPa 0,0 l/m 13,6 km/h (3 Bft) O 88 0 min 0,000 mm 0,9 UV-I 184 W/m 18,3 C 23,4 C 20,9 km/h (4 Bft) 100,00 %
27.07.2019 17:46 24,9 C 27,8 C 26,7 C 67 % 999,4 hPa 0,0 l/m 16,3 km/h (3 Bft) NO 54 0 min 0,000 mm 0,8 UV-I 179 W/m 18,3 C 23,0 C 24,1 km/h (4 Bft) 100,00 %
27.07.2019 17:48 24,8 C 27,8 C 26,7 C 66 % 999,5 hPa 0,0 l/m 15,7 km/h (3 Bft) O-NO 78 0 min 0,000 mm 0,8 UV-I 184 W/m 18,0 C 23,0 C 24,1 km/h (4 Bft) 97,87 %
27.07.2019 17:50 24,8 C 27,8 C 26,1 C 66 % 999,5 hPa 0,0 l/m 18,8 km/h (3 Bft) O-NO 70 0 min 0,000 mm 0,7 UV-I 180 W/m 18,0 C 22,5 C 24,1 km/h (4 Bft) 100,00 %
27.07.2019 17:52 24,7 C 27,8 C 26,1 C 66 % 999,5 hPa 0,0 l/m 22,3 km/h (4 Bft) O-NO 65 0 min 0,000 mm 0,7 UV-I 178 W/m 17,9 C 22,0 C 29,0 km/h (5 Bft) 100,00 %
27.07.2019 17:54 24,7 C 27,8 C 26,1 C 67 % 999,5 hPa 0,0 l/m 20,6 km/h (4 Bft) O 101 0 min 0,000 mm 0,6 UV-I 173 W/m 18,1 C 22,2 C 29,0 km/h (5 Bft) 100,00 %
27.07.2019 17:56 24,7 C 27,8 C 26,1 C 67 % 999,5 hPa 0,0 l/m 19,9 km/h (4 Bft) O-NO 63 0 min 0,000 mm 0,6 UV-I 161 W/m 18,1 C 22,3 C 27,4 km/h (4 Bft) 100,00 %
27.07.2019 17:58 24,6 C 27,8 C 26,1 C 68 % 999,6 hPa 0,0 l/m 15,4 km/h (3 Bft) O-NO 71 0 min 0,000 mm 0,6 UV-I 154 W/m 18,3 C 22,8 C 20,9 km/h (4 Bft) 94,74 %
27.07.2019 18:00 24,6 C 27,8 C 26,1 C 68 % 999,6 hPa 0,0 l/m 13,7 km/h (3 Bft) O 87 0 min 0,331 mm 0,5 UV-I 147 W/m 18,3 C 23,0 C 19,3 km/h (3 Bft) 94,34 %
27.07.2019 18:02 24,6 C 27,8 C 25,6 C 67 % 999,6 hPa 0,0 l/m 18,3 km/h (3 Bft) O-NO 74 0 min 0,000 mm 0,5 UV-I 147 W/m 18,1 C 22,4 C 25,7 km/h (4 Bft) 94,87 %
27.07.2019 18:04 24,6 C 27,8 C 25,6 C 67 % 999,6 hPa 0,0 l/m 21,2 km/h (4 Bft) O-SO 109 0 min 0,000 mm 0,5 UV-I 144 W/m 18,1 C 22,0 C 27,4 km/h (4 Bft) 98,11 %
27.07.2019 18:06 24,4 C 27,8 C 25,6 C 67 % 999,6 hPa 0,0 l/m 19,2 km/h (3 Bft) O-NO 66 0 min 0,000 mm 0,5 UV-I 136 W/m 17,9 C 22,0 C 27,4 km/h (4 Bft) 94,74 %
27.07.2019 18:08 24,4 C 27,8 C 25,6 C 68 % 999,6 hPa 0,0 l/m 20,6 km/h (4 Bft) O 86 0 min 0,000 mm 0,5 UV-I 129 W/m 18,1 C 21,8 C 30,6 km/h (5 Bft) 96,43 %
27.07.2019 18:10 24,3 C 27,8 C 25,0 C 68 % 999,6 hPa 0,0 l/m 15,6 km/h (3 Bft) NO 53 0 min 0,000 mm 0,5 UV-I 125 W/m 18,0 C 22,4 C 25,7 km/h (4 Bft) 94,00 %
27.07.2019 18:12 24,3 C 27,8 C 25,0 C 69 % 999,6 hPa 0,0 l/m 15,8 km/h (3 Bft) O-NO 67 0 min 0,000 mm 0,5 UV-I 120 W/m 18,2 C 22,3 C 25,7 km/h (4 Bft) 95,12 %
27.07.2019 18:14 24,2 C 27,8 C 25,0 C 69 % 999,6 hPa 0,0 l/m 17,6 km/h (3 Bft) O-NO 72 0 min 0,000 mm 0,2 UV-I 114 W/m 18,1 C 21,9 C 25,7 km/h (4 Bft) 96,00 %
27.07.2019 18:16 24,2 C 27,8 C 25,0 C 69 % 999,6 hPa 0,0 l/m 19,6 km/h (3 Bft) O-NO 71 0 min 0,000 mm 0,0 UV-I 109 W/m 18,1 C 21,7 C 27,4 km/h (4 Bft) 95,74 %
27.07.2019 18:18 24,1 C 27,8 C 25,0 C 70 % 999,6 hPa 0,0 l/m 19,2 km/h (3 Bft) NO 53 0 min 0,000 mm 0,0 UV-I 105 W/m 18,3 C 21,6 C 24,1 km/h (4 Bft) 95,12 %
27.07.2019 18:20 23,9 C 27,8 C 24,4 C 71 % 999,7 hPa 0,0 l/m 19,8 km/h (3 Bft) O-NO 66 0 min 0,000 mm 0,0 UV-I 102 W/m 18,3 C 21,3 C 29,0 km/h (5 Bft) 94,34 %
27.07.2019 18:22 23,8 C 27,8 C 24,4 C 71 % 999,8 hPa 0,0 l/m 23,4 km/h (4 Bft) O-NO 74 0 min 0,000 mm 0,0 UV-I 97 W/m 18,2 C 20,7 C 30,6 km/h (5 Bft) 93,62 %
27.07.2019 18:24 23,7 C 27,8 C 24,4 C 71 % 999,8 hPa 0,0 l/m 20,8 km/h (4 Bft) O-NO 69 0 min 0,000 mm 0,0 UV-I 92 W/m 18,1 C 20,9 C 27,4 km/h (4 Bft) 97,87 %
27.07.2019 18:26 23,6 C 27,8 C 24,4 C 72 % 999,8 hPa 0,0 l/m 18,9 km/h (3 Bft) O 90 0 min 0,000 mm 0,0 UV-I 87 W/m 18,2 C 21,0 C 24,1 km/h (4 Bft) 96,55 %
27.07.2019 18:28 23,6 C 27,8 C 23,9 C 72 % 999,7 hPa 0,0 l/m 22,3 km/h (4 Bft) O 91 0 min 0,000 mm 0,0 UV-I 83 W/m 18,2 C 20,6 C 30,6 km/h (5 Bft) 98,21 %
27.07.2019 18:30 23,5 C 27,8 C 23,9 C 72 % 999,8 hPa 0,0 l/m 19,8 km/h (3 Bft) O-NO 77 0 min 0,000 mm 0,0 UV-I 79 W/m 18,2 C 20,8 C 25,7 km/h (4 Bft) 96,23 %
27.07.2019 18:32 23,4 C 27,8 C 23,9 C 72 % 999,7 hPa 0,0 l/m 19,3 km/h (3 Bft) O 97 0 min 0,000 mm 0,0 UV-I 75 W/m 18,1 C 20,7 C 29,0 km/h (5 Bft) 95,74 %
27.07.2019 18:34 23,4 C 27,8 C 23,9 C 72 % 999,8 hPa 0,0 l/m 21,7 km/h (4 Bft) O-NO 68 0 min 0,000 mm 0,0 UV-I 71 W/m 18,1 C 20,4 C 27,4 km/h (4 Bft) 98,00 %
27.07.2019 18:36 23,3 C 27,8 C 23,9 C 73 % 999,8 hPa 0,0 l/m 17,9 km/h (3 Bft) O 101 0 min 0,000 mm 0,0 UV-I 66 W/m 18,2 C 20,8 C 22,5 km/h (4 Bft) 94,87 %
27.07.2019 18:38 23,3 C 27,8 C 23,9 C 73 % 999,7 hPa 0,0 l/m 17,3 km/h (3 Bft) O-NO 67 0 min 0,000 mm 0,0 UV-I 63 W/m 18,2 C 20,9 C 22,5 km/h (4 Bft) 98,08 %
27.07.2019 18:40 23,3 C 27,8 C 23,9 C 73 % 999,7 hPa 0,0 l/m 15,7 km/h (3 Bft) O-NO 67 0 min 0,000 mm 0,0 UV-I 61 W/m 18,2 C 21,1 C 22,5 km/h (4 Bft) 97,62 %
27.07.2019 18:42 23,3 C 27,8 C 23,3 C 73 % 999,7 hPa 0,0 l/m 17,2 km/h (3 Bft) O 84 0 min 0,000 mm 0,0 UV-I 60 W/m 18,2 C 20,9 C 22,5 km/h (4 Bft) 96,36 %
27.07.2019 18:44 23,2 C 27,8 C 23,3 C 73 % 999,7 hPa 0,0 l/m 18,2 km/h (3 Bft) O 89 0 min 0,000 mm 0,0 UV-I 57 W/m 18,1 C 20,6 C 27,4 km/h (4 Bft) 93,75 %
27.07.2019 18:46 23,2 C 27,8 C 23,3 C 73 % 999,7 hPa 0,0 l/m 17,7 km/h (3 Bft) O 86 0 min 0,000 mm 0,0 UV-I 56 W/m 18,1 C 20,7 C 24,1 km/h (4 Bft) 95,12 %
27.07.2019 18:49 23,2 C 27,8 C 23,3 C 74 % 999,7 hPa 0,0 l/m 12,9 km/h (3 Bft) O 101 0 min 0,000 mm 0,0 UV-I 53 W/m 18,3 C 21,5 C 19,3 km/h (3 Bft) 95,89 %
27.07.2019 18:50 23,2 C 27,8 C 23,3 C 74 % 999,7 hPa 0,0 l/m 19,6 km/h (3 Bft) O-SO 112 0 min 0,000 mm 0,0 UV-I 51 W/m 18,3 C 20,4 C 24,1 km/h (4 Bft) 91,67 %
27.07.2019 18:52 23,2 C 27,8 C 23,3 C 74 % 999,7 hPa 0,0 l/m 18,8 km/h (3 Bft) O 92 0 min 0,000 mm 0,0 UV-I 48 W/m 18,3 C 20,5 C 27,4 km/h (4 Bft) 94,00 %
27.07.2019 18:54 23,1 C 27,8 C 23,3 C 74 % 999,8 hPa 0,0 l/m 17,1 km/h (3 Bft) O 86 0 min 0,000 mm 0,0 UV-I 46 W/m 18,2 C 20,6 C 27,4 km/h (4 Bft) 93,62 %
27.07.2019 18:56 23,1 C 27,8 C 23,3 C 74 % 999,7 hPa 0,0 l/m 15,3 km/h (3 Bft) O-NO 73 0 min 0,000 mm 0,0 UV-I 46 W/m 18,2 C 21,0 C 22,5 km/h (4 Bft) 94,29 %
27.07.2019 18:58 23,1 C 27,8 C 23,3 C 74 % 999,8 hPa 0,0 l/m 14,6 km/h (3 Bft) O-SO 117 0 min 0,000 mm 0,0 UV-I 44 W/m 18,2 C 21,1 C 20,9 km/h (4 Bft) 96,43 %
27.07.2019 19:00 23,1 C 27,8 C 23,3 C 74 % 999,8 hPa 0,0 l/m 11,1 km/h (2 Bft) O 95 0 min 0,127 mm 0,0 UV-I 44 W/m 18,2 C 21,8 C 22,5 km/h (4 Bft) 91,49 %
27.07.2019 19:02 23,1 C 27,8 C 23,3 C 74 % 999,8 hPa 0,0 l/m 16,4 km/h (3 Bft) O-SO 104 0 min 0,000 mm 0,0 UV-I 44 W/m 18,2 C 20,8 C 24,1 km/h (4 Bft) 93,62 %
27.07.2019 19:04 23,1 C 27,8 C 23,3 C 74 % 999,7 hPa 0,0 l/m 11,6 km/h (2 Bft) O-SO 103 0 min 0,000 mm 0,0 UV-I 46 W/m 18,2 C 21,7 C 16,1 km/h (3 Bft) 97,14 %
27.07.2019 19:06 23,1 C 27,8 C 23,3 C 74 % 999,7 hPa 0,0 l/m 16,0 km/h (3 Bft) O 84 0 min 0,000 mm 0,0 UV-I 46 W/m 18,2 C 20,8 C 22,5 km/h (4 Bft) 96,61 %
27.07.2019 19:08 23,1 C 27,8 C 23,3 C 74 % 999,6 hPa 0,0 l/m 13,9 km/h (3 Bft) O-SO 103 0 min 0,000 mm 0,0 UV-I 47 W/m 18,2 C 21,2 C 17,7 km/h (3 Bft) 97,37 %
27.07.2019 19:10 23,0 C 27,8 C 23,3 C 74 % 999,5 hPa 0,0 l/m 13,7 km/h (3 Bft) O 92 0 min 0,000 mm 0,0 UV-I 47 W/m 18,1 C 21,1 C 22,5 km/h (4 Bft) 94,34 %
27.07.2019 19:12 23,0 C 27,8 C 23,3 C 74 % 999,6 hPa 0,0 l/m 14,8 km/h (3 Bft) O 84 0 min 0,000 mm 0,0 UV-I 47 W/m 18,1 C 20,9 C 20,9 km/h (4 Bft) 98,00 %
27.07.2019 19:14 23,0 C 27,8 C 23,3 C 74 % 999,6 hPa 0,0 l/m 15,2 km/h (3 Bft) O-NO 71 0 min 0,000 mm 0,0 UV-I 46 W/m 18,1 C 20,8 C 19,3 km/h (3 Bft) 100,00 %
27.07.2019 19:16 22,9 C 27,8 C 23,3 C 75 % 999,6 hPa 0,0 l/m 14,7 km/h (3 Bft) O-SO 105 0 min 0,000 mm 0,0 UV-I 44 W/m 18,2 C 20,8 C 19,3 km/h (3 Bft) 97,87 %
27.07.2019 19:18 22,9 C 27,8 C 23,3 C 74 % 999,6 hPa 0,0 l/m 15,4 km/h (3 Bft) O 88 0 min 0,000 mm 0,0 UV-I 42 W/m 18,0 C 20,7 C 19,3 km/h (3 Bft) 100,00 %
27.07.2019 19:20 22,9 C 27,8 C 23,3 C 75 % 999,6 hPa 0,0 l/m 15,3 km/h (3 Bft) O-SO 109 0 min 0,000 mm 0,0 UV-I 41 W/m 18,2 C 20,7 C 19,3 km/h (3 Bft) 100,00 %
27.07.2019 19:22 22,9 C 27,8 C 22,8 C 75 % 999,6 hPa 0,0 l/m 12,4 km/h (3 Bft) O-SO 103 0 min 0,000 mm 0,0 UV-I 40 W/m 18,2 C 21,3 C 17,7 km/h (3 Bft) 100,00 %
27.07.2019 19:24 22,9 C 27,8 C 22,8 C 75 % 999,6 hPa 0,0 l/m 13,9 km/h (3 Bft) O-SO 107 0 min 0,000 mm 0,0 UV-I 37 W/m 18,2 C 21,0 C 19,3 km/h (3 Bft) 100,00 %
27.07.2019 19:26 22,9 C 27,8 C 22,8 C 75 % 999,5 hPa 0,0 l/m 12,9 km/h (3 Bft) O 80 0 min 0,000 mm 0,0 UV-I 33 W/m 18,2 C 21,2 C 16,1 km/h (3 Bft) 100,00 %
27.07.2019 19:28 22,9 C 27,8 C 22,2 C 75 % 999,5 hPa 0,0 l/m 16,8 km/h (3 Bft) O 89 0 min 0,000 mm 0,0 UV-I 31 W/m 18,2 C 20,4 C 25,7 km/h (4 Bft) 100,00 %
27.07.2019 19:30 22,8 C 27,8 C 22,2 C 75 % 999,5 hPa 0,0 l/m 17,0 km/h (3 Bft) O-SO 109 0 min 0,000 mm 0,0 UV-I 30 W/m 18,1 C 20,3 C 24,1 km/h (4 Bft) 98,11 %
27.07.2019 19:32 22,8 C 27,8 C 21,7 C 76 % 999,6 hPa 0,0 l/m 13,9 km/h (3 Bft) O-NO 74 0 min 0,000 mm 0,0 UV-I 28 W/m 18,3 C 20,9 C 20,9 km/h (4 Bft) 97,87 %
27.07.2019 19:34 22,8 C 27,8 C 21,7 C 75 % 999,6 hPa 0,0 l/m 14,4 km/h (3 Bft) O 97 0 min 0,000 mm 0,0 UV-I 28 W/m 18,1 C 20,8 C 24,1 km/h (4 Bft) 94,74 %
27.07.2019 19:36 22,7 C 27,8 C 21,7 C 76 % 999,6 hPa 0,0 l/m 15,8 km/h (3 Bft) O 98 0 min 0,000 mm 0,0 UV-I 28 W/m 18,2 C 20,4 C 22,5 km/h (4 Bft) 98,21 %
27.07.2019 19:38 22,7 C 27,8 C 21,7 C 76 % 999,5 hPa 0,0 l/m 11,3 km/h (2 Bft) O 96 0 min 0,000 mm 0,0 UV-I 28 W/m 18,2 C 21,3 C 16,1 km/h (3 Bft) 97,37 %
27.07.2019 19:40 22,6 C 27,8 C 21,7 C 76 % 999,5 hPa 0,0 l/m 10,8 km/h (2 Bft) O 86 0 min 0,000 mm 0,0 UV-I 28 W/m 18,1 C 21,3 C 14,5 km/h (3 Bft) 96,43 %
27.07.2019 19:42 22,6 C 27,8 C 21,7 C 77 % 999,5 hPa 0,0 l/m 13,6 km/h (3 Bft) O-NO 65 0 min 0,000 mm 0,0 UV-I 28 W/m 18,4 C 20,7 C 19,3 km/h (3 Bft) 97,37 %
27.07.2019 19:44 22,5 C 27,8 C 21,7 C 77 % 999,4 hPa 0,0 l/m 15,0 km/h (3 Bft) O-SO 106 0 min 0,000 mm 0,0 UV-I 30 W/m 18,3 C 20,3 C 20,9 km/h (4 Bft) 97,87 %
27.07.2019 19:46 22,4 C 27,2 C 21,7 C 77 % 999,4 hPa 0,0 l/m 15,1 km/h (3 Bft) O 96 0 min 0,000 mm 0,0 UV-I 31 W/m 18,2 C 20,1 C 20,9 km/h (4 Bft) 96,00 %
27.07.2019 19:48 22,4 C 27,2 C 22,2 C 77 % 999,3 hPa 0,0 l/m 11,3 km/h (2 Bft) O-SO 105 0 min 0,000 mm 0,0 UV-I 34 W/m 18,2 C 21,0 C 16,1 km/h (3 Bft) 100,00 %
27.07.2019 19:50 22,4 C 27,2 C 22,2 C 77 % 999,3 hPa 0,0 l/m 9,7 km/h (2 Bft) O-NO 74 0 min 0,000 mm 0,0 UV-I 36 W/m 18,2 C 21,4 C 14,5 km/h (3 Bft) 96,23 %
27.07.2019 19:52 22,4 C 27,2 C 22,2 C 77 % 999,3 hPa 0,0 l/m 13,9 km/h (3 Bft) O 89 0 min 0,000 mm 0,0 UV-I 38 W/m 18,2 C 20,4 C 19,3 km/h (3 Bft) 96,00 %
27.07.2019 19:54 22,4 C 27,2 C 22,2 C 77 % 999,2 hPa 0,0 l/m 13,3 km/h (3 Bft) O-NO 76 0 min 0,000 mm 0,0 UV-I 39 W/m 18,2 C 20,5 C 19,3 km/h (3 Bft) 100,00 %
27.07.2019 19:56 22,3 C 27,2 C 22,2 C 77 % 999,2 hPa 0,0 l/m 10,5 km/h (2 Bft) O 90 0 min 0,000 mm 0,0 UV-I 39 W/m 18,1 C 21,0 C 16,1 km/h (3 Bft) 95,00 %
27.07.2019 19:59 22,3 C 27,2 C 22,2 C 78 % 999,1 hPa 0,0 l/m 9,2 km/h (2 Bft) O-NO 76 0 min 0,000 mm 0,0 UV-I 37 W/m 18,3 C 21,4 C 12,9 km/h (3 Bft) 100,00 %
27.07.2019 20:00 22,3 C 27,2 C 22,2 C 78 % 999,1 hPa 0,0 l/m 9,7 km/h (2 Bft) O 100 0 min 0,000 mm 0,0 UV-I 34 W/m 18,3 C 21,3 C 12,9 km/h (3 Bft) 100,00 %
27.07.2019 20:02 22,3 C 27,2 C 22,2 C 78 % 999,2 hPa 0,0 l/m 11,9 km/h (2 Bft) O 81 0 min 0,076 mm 0,0 UV-I 33 W/m 18,3 C 20,7 C 14,5 km/h (3 Bft) 100,00 %
27.07.2019 20:04 22,3 C 27,2 C 22,2 C 78 % 999,1 hPa 0,0 l/m 9,7 km/h (2 Bft) O 82 0 min 0,000 mm 0,0 UV-I 30 W/m 18,3 C 21,3 C 14,5 km/h (3 Bft) 97,56 %
27.07.2019 20:06 22,3 C 27,2 C 22,2 C 78 % 999,0 hPa 0,0 l/m 10,3 km/h (2 Bft) O-NO 73 0 min 0,000 mm 0,0 UV-I 27 W/m 18,3 C 21,1 C 14,5 km/h (3 Bft) 100,00 %
27.07.2019 20:08 22,2 C 27,2 C 22,2 C 78 % 999,0 hPa 0,0 l/m 9,4 km/h (2 Bft) O-NO 73 0 min 0,000 mm 0,0 UV-I 25 W/m 18,2 C 21,2 C 16,1 km/h (3 Bft) 100,00 %
27.07.2019 20:10 22,2 C 27,2 C 22,2 C 78 % 998,9 hPa 0,0 l/m 14,1 km/h (3 Bft) O 98 0 min 0,000 mm 0,0 UV-I 23 W/m 18,2 C 20,1 C 17,7 km/h (3 Bft) 100,00 %
27.07.2019 20:12 22,2 C 27,2 C 22,2 C 78 % 998,8 hPa 0,0 l/m 12,0 km/h (2 Bft) O-NO 69 0 min 0,000 mm 0,0 UV-I 21 W/m 18,2 C 20,6 C 16,1 km/h (3 Bft) 100,00 %
27.07.2019 20:14 22,1 C 27,2 C 21,7 C 78 % 998,8 hPa 0,0 l/m 10,3 km/h (2 Bft) O 79 0 min 0,000 mm 0,0 UV-I 19 W/m 18,1 C 20,9 C 14,5 km/h (3 Bft) 98,11 %
27.07.2019 20:16 22,1 C 27,2 C 21,7 C 78 % 998,7 hPa 0,0 l/m 14,7 km/h (3 Bft) O 98 0 min 0,000 mm 0,0 UV-I 19 W/m 18,1 C 19,9 C 19,3 km/h (3 Bft) 100,00 %
27.07.2019 20:18 22,1 C 27,2 C 21,7 C 78 % 998,7 hPa 0,0 l/m 11,1 km/h (2 Bft) O-NO 66 0 min 0,000 mm 0,0 UV-I 18 W/m 18,1 C 20,7 C 14,5 km/h (3 Bft) 100,00 %
27.07.2019 20:20 22,1 C 27,2 C 21,7 C 78 % 998,6 hPa 0,0 l/m 11,3 km/h (2 Bft) O 86 0 min 0,000 mm 0,0 UV-I 17 W/m 18,1 C 20,6 C 17,7 km/h (3 Bft) 97,37 %
27.07.2019 20:22 22,0 C 27,2 C 21,7 C 78 % 998,6 hPa 0,0 l/m 10,3 km/h (2 Bft) O 84 0 min 0,000 mm 0,0 UV-I 16 W/m 18,0 C 20,8 C 16,1 km/h (3 Bft) 100,00 %
27.07.2019 20:24 22,0 C 27,2 C 21,7 C 78 % 998,6 hPa 0,0 l/m 10,6 km/h (2 Bft) O-NO 74 0 min 0,000 mm 0,0 UV-I 16 W/m 18,0 C 20,7 C 16,1 km/h (3 Bft) 100,00 %
27.07.2019 20:26 21,9 C 27,2 C 21,7 C 78 % 998,6 hPa 0,0 l/m 9,9 km/h (2 Bft) O 90 0 min 0,000 mm 0,0 UV-I 15 W/m 17,9 C 20,8 C 14,5 km/h (3 Bft) 100,00 %
27.07.2019 20:28 21,9 C 27,2 C 21,7 C 78 % 998,7 hPa 0,0 l/m 5,7 km/h (1 Bft) O 88 0 min 0,000 mm 0,0 UV-I 14 W/m 17,9 C 21,9 C 11,3 km/h (2 Bft) 100,00 %
27.07.2019 20:30 21,9 C 27,2 C 21,1 C 78 % 998,7 hPa 0,0 l/m 9,7 km/h (2 Bft) O 79 0 min 0,000 mm 0,0 UV-I 14 W/m 17,9 C 20,8 C 14,5 km/h (3 Bft) 100,00 %
27.07.2019 20:32 21,9 C 27,2 C 21,1 C 78 % 998,6 hPa 0,0 l/m 9,7 km/h (2 Bft) O 101 0 min 0,000 mm 0,0 UV-I 12 W/m 17,9 C 20,8 C 16,1 km/h (3 Bft) 100,00 %
27.07.2019 20:34 21,8 C 27,2 C 21,1 C 77 % 998,5 hPa 0,0 l/m 12,6 km/h (3 Bft) O 85 2 min 0,000 mm 0,0 UV-I 12 W/m 17,6 C 20,0 C 16,1 km/h (3 Bft) 96,36 %
27.07.2019 20:36 21,7 C 27,2 C 21,1 C 77 % 998,5 hPa 0,0 l/m 10,6 km/h (2 Bft) O 99 0 min 0,000 mm 0,0 UV-I 12 W/m 17,5 C 20,4 C 14,5 km/h (3 Bft) 97,44 %
27.07.2019 20:38 21,7 C 27,2 C 21,1 C 77 % 998,6 hPa 0,0 l/m 9,7 km/h (2 Bft) O 90 0 min 0,000 mm 0,0 UV-I 12 W/m 17,5 C 20,6 C 14,5 km/h (3 Bft) 96,00 %
27.07.2019 20:40 21,7 C 27,2 C 21,1 C 77 % 998,6 hPa 0,0 l/m 9,8 km/h (2 Bft) O 81 0 min 0,000 mm 0,0 UV-I 11 W/m 17,5 C 20,6 C 16,1 km/h (3 Bft) 98,00 %
27.07.2019 20:42 21,6 C 27,2 C 20,6 C 77 % 998,5 hPa 0,0 l/m 9,7 km/h (2 Bft) O 97 0 min 0,000 mm 0,0 UV-I 9 W/m 17,4 C 20,5 C 12,9 km/h (3 Bft) 98,00 %
27.07.2019 20:44 21,5 C 27,2 C 20,6 C 77 % 998,6 hPa 0,0 l/m 11,3 km/h (2 Bft) O 82 0 min 0,000 mm 0,0 UV-I 8 W/m 17,3 C 19,9 C 14,5 km/h (3 Bft) 95,12 %
27.07.2019 20:46 21,4 C 27,2 C 20,6 C 76 % 998,7 hPa 0,0 l/m 11,0 km/h (2 Bft) O 90 0 min 0,000 mm 0,0 UV-I 7 W/m 17,0 C 19,9 C 14,5 km/h (3 Bft) 97,87 %
27.07.2019 20:48 21,4 C 27,2 C 20,6 C 76 % 998,7 hPa 0,0 l/m 5,2 km/h (1 Bft) SO 126 0 min 0,000 mm 0,0 UV-I 5 W/m 17,0 C 21,4 C 11,3 km/h (2 Bft) 97,87 %
27.07.2019 20:50 21,4 C 27,2 C 20,6 C 76 % 998,7 hPa 0,0 l/m 7,2 km/h (2 Bft) O 100 0 min 0,000 mm 0,0 UV-I 5 W/m 17,0 C 21,1 C 14,5 km/h (3 Bft) 97,87 %
27.07.2019 20:52 21,4 C 27,2 C 20,6 C 76 % 998,6 hPa 0,0 l/m 6,5 km/h (2 Bft) O-SO 102 0 min 0,000 mm 0,0 UV-I 5 W/m 17,0 C 21,4 C 14,5 km/h (3 Bft) 94,00 %
27.07.2019 20:54 21,4 C 27,2 C 20,6 C 75 % 998,6 hPa 0,0 l/m 9,2 km/h (2 Bft) O 92 0 min 0,000 mm 0,0 UV-I 5 W/m 16,8 C 20,4 C 12,9 km/h (3 Bft) 95,74 %
27.07.2019 20:56 21,3 C 27,2 C 20,6 C 75 % 998,5 hPa 0,0 l/m 10,7 km/h (2 Bft) O-SO 103 0 min 0,000 mm 0,0 UV-I 5 W/m 16,7 C 19,9 C 14,5 km/h (3 Bft) 97,87 %
27.07.2019 20:58 21,3 C 27,2 C 20,6 C 75 % 998,5 hPa 0,0 l/m 6,9 km/h (2 Bft) O-SO 114 0 min 0,000 mm 0,0 UV-I 5 W/m 16,7 C 21,1 C 12,9 km/h (3 Bft) 95,12 %
27.07.2019 21:00 21,3 C 27,2 C 20,6 C 75 % 998,5 hPa 0,0 l/m 9,0 km/h (2 Bft) SO 131 0 min 0,051 mm 0,0 UV-I 3 W/m 16,7 C 20,4 C 11,3 km/h (2 Bft) 97,87 %
27.07.2019 21:02 21,3 C 27,2 C 20,6 C 75 % 998,5 hPa 0,0 l/m 8,8 km/h (2 Bft) O-SO 105 0 min 0,000 mm 0,0 UV-I 0 W/m 16,7 C 20,4 C 12,9 km/h (3 Bft) 98,00 %
27.07.2019 21:04 21,3 C 27,2 C 20,0 C 75 % 998,6 hPa 0,0 l/m 6,0 km/h (2 Bft) O-SO 103 0 min 0,000 mm 0,0 UV-I 0 W/m 16,7 C 21,3 C 11,3 km/h (2 Bft) 94,87 %
27.07.2019 21:06 21,3 C 27,2 C 20,0 C 75 % 998,6 hPa 0,0 l/m 3,5 km/h (1 Bft) SO 132 0 min 0,000 mm 0,0 UV-I 0 W/m 16,7 C 21,3 C 6,4 km/h (2 Bft) 95,45 %
27.07.2019 21:08 21,2 C 27,2 C 20,0 C 75 % 998,6 hPa 0,0 l/m 5,8 km/h (2 Bft) O-SO 119 0 min 0,000 mm 0,0 UV-I 0 W/m 16,6 C 21,2 C 9,7 km/h (2 Bft) 96,23 %
27.07.2019 21:10 21,3 C 27,2 C 20,0 C 75 % 998,7 hPa 0,0 l/m 6,2 km/h (2 Bft) SO 146 0 min 0,000 mm 0,0 UV-I 0 W/m 16,7 C 21,3 C 11,3 km/h (2 Bft) 95,74 %
27.07.2019 21:12 21,3 C 27,2 C 20,6 C 75 % 998,7 hPa 0,0 l/m 5,9 km/h (2 Bft) SO 136 0 min 0,000 mm 0,0 UV-I 0 W/m 16,7 C 21,3 C 11,3 km/h (2 Bft) 98,11 %
27.07.2019 21:14 21,2 C 27,2 C 20,6 C 76 % 998,7 hPa 0,0 l/m 6,4 km/h (2 Bft) SO 133 0 min 0,000 mm 0,0 UV-I 0 W/m 16,8 C 21,2 C 8,0 km/h (2 Bft) 94,74 %
27.07.2019 21:16 21,1 C 27,2 C 20,0 C 76 % 998,7 hPa 0,0 l/m 4,4 km/h (1 Bft) O-SO 116 0 min 0,000 mm 0,0 UV-I 0 W/m 16,7 C 21,1 C 8,0 km/h (2 Bft) 98,21 %
27.07.2019 21:18 21,0 C 27,2 C 20,0 C 77 % 998,7 hPa 0,0 l/m 7,1 km/h (2 Bft) O-SO 115 0 min 0,000 mm 0,0 UV-I 0 W/m 16,8 C 20,7 C 11,3 km/h (2 Bft) 97,14 %
27.07.2019 21:20 20,9 C 27,2 C 20,0 C 77 % 998,8 hPa 0,0 l/m 3,9 km/h (1 Bft) O-SO 123 0 min 0,000 mm 0,0 UV-I 0 W/m 16,7 C 20,9 C 9,7 km/h (2 Bft) 98,21 %
27.07.2019 21:22 20,9 C 27,2 C 20,0 C 77 % 998,8 hPa 0,0 l/m 3,4 km/h (1 Bft) SO 129 0 min 0,000 mm 0,0 UV-I 0 W/m 16,7 C 20,9 C 6,4 km/h (2 Bft) 95,74 %
27.07.2019 21:24 20,9 C 27,2 C 19,4 C 77 % 998,8 hPa 0,0 l/m 2,8 km/h (1 Bft) SO 129 0 min 0,000 mm 0,0 UV-I 0 W/m 16,7 C 20,9 C 6,4 km/h (2 Bft) 97,87 %
27.07.2019 21:26 20,8 C 27,2 C 19,4 C 78 % 998,8 hPa 0,0 l/m 3,9 km/h (1 Bft) SO 130 0 min 0,000 mm 0,0 UV-I 0 W/m 16,8 C 20,8 C 6,4 km/h (2 Bft) 98,00 %
27.07.2019 21:28 20,8 C 27,2 C 18,9 C 78 % 998,8 hPa 0,0 l/m 3,0 km/h (1 Bft) SO 129 0 min 0,000 mm 0,0 UV-I 0 W/m 16,8 C 20,8 C 4,8 km/h (1 Bft) 97,73 %
27.07.2019 21:30 20,7 C 27,2 C 18,9 C 78 % 998,7 hPa 0,0 l/m 1,1 km/h (1 Bft) SO 129 0 min 0,000 mm 0,0 UV-I 0 W/m 16,7 C 20,7 C 3,2 km/h (1 Bft) 100,00 %
27.07.2019 21:32 20,7 C 27,2 C 18,9 C 79 % 998,7 hPa 0,0 l/m 2,2 km/h (1 Bft) SO 128 0 min 0,000 mm 0,0 UV-I 0 W/m 16,9 C 20,7 C 3,2 km/h (1 Bft) 100,00 %
27.07.2019 21:34 20,7 C 27,2 C 18,3 C 79 % 998,7 hPa 0,0 l/m 2,7 km/h (1 Bft) SO 130 0 min 0,000 mm 0,0 UV-I 0 W/m 16,9 C 20,7 C 4,8 km/h (1 Bft) 97,56 %
27.07.2019 21:36 20,6 C 27,2 C 18,9 C 79 % 998,6 hPa 0,0 l/m 3,4 km/h (1 Bft) SO 130 0 min 0,000 mm 0,0 UV-I 0 W/m 16,8 C 20,6 C 6,4 km/h (2 Bft) 100,00 %
27.07.2019 21:38 20,6 C 27,2 C 18,3 C 79 % 998,6 hPa 0,0 l/m 1,2 km/h (1 Bft) SO 130 0 min 0,000 mm 0,0 UV-I 0 W/m 16,8 C 20,6 C 3,2 km/h (1 Bft) 97,87 %
27.07.2019 21:40 20,5 C 27,2 C 18,3 C 79 % 998,6 hPa 0,0 l/m 1,5 km/h (1 Bft) SO 130 0 min 0,000 mm 0,0 UV-I 0 W/m 16,7 C 20,5 C 3,2 km/h (1 Bft) 100,00 %
27.07.2019 21:42 20,4 C 27,2 C 17,8 C 80 % 998,6 hPa 0,0 l/m 1,1 km/h (1 Bft) SO 130 0 min 0,000 mm 0,0 UV-I 0 W/m 16,8 C 20,4 C 3,2 km/h (1 Bft) 100,00 %
27.07.2019 21:44 20,3 C 27,2 C 17,8 C 80 % 998,6 hPa 0,0 l/m 1,9 km/h (1 Bft) SO 130 0 min 0,000 mm 0,0 UV-I 0 W/m 16,7 C 20,3 C 3,2 km/h (1 Bft) 100,00 %
27.07.2019 21:46 20,3 C 27,2 C 17,8 C 81 % 998,6 hPa 0,0 l/m 1,2 km/h (1 Bft) SO 130 0 min 0,000 mm 0,0 UV-I 0 W/m 16,9 C 20,3 C 3,2 km/h (1 Bft) 100,00 %
27.07.2019 21:48 20,3 C 27,2 C 17,8 C 81 % 998,6 hPa 0,0 l/m 1,7 km/h (1 Bft) SO 130 0 min 0,000 mm 0,0 UV-I 0 W/m 16,9 C 20,3 C 3,2 km/h (1 Bft) 100,00 %
27.07.2019 21:50 20,3 C 27,2 C 17,8 C 81 % 998,6 hPa 0,0 l/m 2,3 km/h (1 Bft) SO 130 0 min 0,000 mm 0,0 UV-I 0 W/m 16,9 C 20,3 C 4,8 km/h (1 Bft) 100,00 %
27.07.2019 21:52 20,2 C 27,2 C 17,8 C 81 % 998,6 hPa 0,0 l/m 3,3 km/h (1 Bft) SO 130 0 min 0,000 mm 0,0 UV-I 0 W/m 16,8 C 20,2 C 4,8 km/h (1 Bft) 100,00 %
27.07.2019 21:54 19,9 C 27,2 C 17,8 C 81 % 998,6 hPa 0,0 l/m 4,0 km/h (1 Bft) SO 130 0 min 0,000 mm 0,0 UV-I 0 W/m 16,5 C 19,9 C 6,4 km/h (2 Bft) 98,00 %
27.07.2019 21:56 19,7 C 27,2 C 17,8 C 83 % 998,6 hPa 0,0 l/m 4,9 km/h (1 Bft) O 100 0 min 0,000 mm 0,0 UV-I 0 W/m 16,7 C 19,7 C 6,4 km/h (2 Bft) 97,56 %
27.07.2019 21:59 19,8 C 27,2 C 17,8 C 83 % 998,5 hPa 0,0 l/m 3,3 km/h (1 Bft) O 98 0 min 0,000 mm 0,0 UV-I 0 W/m 16,8 C 19,8 C 4,8 km/h (1 Bft) 96,20 %
27.07.2019 22:00 19,8 C 27,2 C 17,8 C 83 % 998,5 hPa 0,0 l/m 2,4 km/h (1 Bft) O 98 0 min 0,000 mm 0,0 UV-I 0 W/m 16,8 C 19,8 C 3,2 km/h (1 Bft) 93,33 %
27.07.2019 22:02 19,8 C 27,2 C 17,8 C 83 % 998,5 hPa 0,0 l/m 1,9 km/h (1 Bft) O 98 0 min 0,025 mm 0,0 UV-I 0 W/m 16,8 C 19,8 C 3,2 km/h (1 Bft) 98,00 %
27.07.2019 22:04 19,8 C 27,2 C 17,2 C 83 % 998,4 hPa 0,0 l/m 3,4 km/h (1 Bft) O 98 0 min 0,000 mm 0,0 UV-I 0 W/m 16,8 C 19,8 C 4,8 km/h (1 Bft) 97,56 %
27.07.2019 22:06 19,7 C 27,2 C 17,2 C 83 % 998,4 hPa 0,0 l/m 4,6 km/h (1 Bft) O-NO 71 0 min 0,000 mm 0,0 UV-I 0 W/m 16,7 C 19,7 C 6,4 km/h (2 Bft) 98,00 %
27.07.2019 22:09 19,3 C 27,2 C 17,2 C 84 % 998,3 hPa 0,0 l/m 4,3 km/h (1 Bft) O-NO 69 0 min 0,000 mm 0,0 UV-I 0 W/m 16,5 C 19,3 C 6,4 km/h (2 Bft) 97,50 %
27.07.2019 22:10 19,3 C 27,2 C 17,2 C 84 % 998,3 hPa 0,0 l/m 5,3 km/h (1 Bft) O-NO 59 0 min 0,000 mm 0,0 UV-I 0 W/m 16,5 C 19,3 C 6,4 km/h (2 Bft) 100,00 %
27.07.2019 22:12 19,2 C 27,2 C 17,2 C 85 % 998,3 hPa 0,0 l/m 6,1 km/h (2 Bft) NO 44 0 min 0,000 mm 0,0 UV-I 0 W/m 16,6 C 19,2 C 8,0 km/h (2 Bft) 98,11 %
27.07.2019 22:14 19,1 C 27,2 C 17,8 C 86 % 998,2 hPa 0,0 l/m 7,4 km/h (2 Bft) O-NO 71 0 min 0,000 mm 0,0 UV-I 0 W/m 16,7 C 18,7 C 11,3 km/h (2 Bft) 97,73 %
27.07.2019 22:16 19,1 C 27,2 C 17,8 C 86 % 998,2 hPa 0,0 l/m 6,9 km/h (2 Bft) O 84 0 min 0,000 mm 0,0 UV-I 0 W/m 16,7 C 18,9 C 8,0 km/h (2 Bft) 96,23 %
27.07.2019 22:19 19,2 C 27,2 C 17,8 C 86 % 998,2 hPa 0,0 l/m 6,5 km/h (2 Bft) O-NO 66 0 min 0,000 mm 0,0 UV-I 0 W/m 16,8 C 19,2 C 9,7 km/h (2 Bft) 98,39 %
27.07.2019 22:20 19,2 C 27,2 C 17,8 C 85 % 998,2 hPa 0,0 l/m 5,0 km/h (1 Bft) O 84 0 min 0,000 mm 0,0 UV-I 0 W/m 16,6 C 19,2 C 6,4 km/h (2 Bft) 93,10 %
27.07.2019 22:22 19,2 C 27,2 C 17,8 C 85 % 998,2 hPa 0,0 l/m 4,9 km/h (1 Bft) O 86 0 min 0,000 mm 0,0 UV-I 0 W/m 16,6 C 19,2 C 6,4 km/h (2 Bft) 97,87 %
27.07.2019 22:24 19,2 C 27,2 C 17,8 C 85 % 998,3 hPa 0,0 l/m 5,5 km/h (1 Bft) O 79 0 min 0,000 mm 0,0 UV-I 0 W/m 16,6 C 19,2 C 6,4 km/h (2 Bft) 97,92 %
27.07.2019 22:26 19,2 C 27,2 C 17,8 C 85 % 998,3 hPa 0,0 l/m 4,7 km/h (1 Bft) O 87 0 min 0,000 mm 0,0 UV-I 0 W/m 16,6 C 19,2 C 6,4 km/h (2 Bft) 97,87 %
27.07.2019 22:28 19,2 C 27,2 C 17,8 C 85 % 998,3 hPa 0,0 l/m 5,4 km/h (1 Bft) O 92 0 min 0,000 mm 0,0 UV-I 0 W/m 16,6 C 19,2 C 8,0 km/h (2 Bft) 97,56 %
27.07.2019 22:30 19,2 C 27,2 C 17,8 C 85 % 998,3 hPa 0,0 l/m 6,7 km/h (2 Bft) O-SO 109 0 min 0,000 mm 0,0 UV-I 0 W/m 16,6 C 19,1 C 12,9 km/h (3 Bft) 98,11 %
27.07.2019 22:32 19,2 C 27,2 C 17,8 C 85 % 998,3 hPa 0,0 l/m 6,3 km/h (2 Bft) O 84 0 min 0,000 mm 0,0 UV-I 0 W/m 16,6 C 19,2 C 9,7 km/h (2 Bft) 94,74 %
27.07.2019 22:34 19,2 C 27,2 C 17,8 C 84 % 998,2 hPa 0,0 l/m 6,9 km/h (2 Bft) O-NO 77 0 min 0,000 mm 0,0 UV-I 0 W/m 16,4 C 19,0 C 11,3 km/h (2 Bft) 92,00 %
27.07.2019 22:36 19,2 C 27,2 C 17,8 C 84 % 998,1 hPa 0,0 l/m 8,2 km/h (2 Bft) O-NO 66 0 min 0,000 mm 0,0 UV-I 0 W/m 16,4 C 18,4 C 12,9 km/h (3 Bft) 90,57 %
27.07.2019 22:38 19,1 C 27,2 C 17,8 C 84 % 998,0 hPa 0,0 l/m 7,1 km/h (2 Bft) O-NO 76 0 min 0,000 mm 0,0 UV-I 0 W/m 16,3 C 18,8 C 11,3 km/h (2 Bft) 95,74 %
27.07.2019 22:40 19,1 C 27,2 C 17,8 C 84 % 998,0 hPa 0,0 l/m 5,2 km/h (1 Bft) O-NO 63 0 min 0,000 mm 0,0 UV-I 0 W/m 16,3 C 19,1 C 8,0 km/h (2 Bft) 93,62 %
27.07.2019 22:42 18,9 C 27,2 C 17,8 C 85 % 998,0 hPa 0,0 l/m 6,8 km/h (2 Bft) O-NO 67 0 min 0,000 mm 0,0 UV-I 0 W/m 16,3 C 18,7 C 11,3 km/h (2 Bft) 92,68 %
27.07.2019 22:44 18,9 C 27,2 C 17,8 C 85 % 998,1 hPa 0,0 l/m 6,8 km/h (2 Bft) O-NO 64 0 min 0,000 mm 0,0 UV-I 0 W/m 16,3 C 18,7 C 11,3 km/h (2 Bft) 95,12 %
27.07.2019 22:46 18,8 C 27,2 C 17,8 C 85 % 998,1 hPa 0,0 l/m 5,8 km/h (2 Bft) O-NO 63 0 min 0,000 mm 0,0 UV-I 0 W/m 16,2 C 18,8 C 8,0 km/h (2 Bft) 94,00 %
27.07.2019 22:48 18,8 C 27,2 C 17,2 C 85 % 998,2 hPa 0,0 l/m 5,2 km/h (1 Bft) O-NO 63 0 min 0,000 mm 0,0 UV-I 0 W/m 16,2 C 18,8 C 6,4 km/h (2 Bft) 92,86 %
27.07.2019 22:50 18,7 C 27,2 C 17,2 C 85 % 998,2 hPa 0,0 l/m 5,7 km/h (1 Bft) O-NO 71 0 min 0,000 mm 0,0 UV-I 0 W/m 16,1 C 18,7 C 8,0 km/h (2 Bft) 94,74 %
27.07.2019 22:52 18,6 C 27,2 C 17,2 C 86 % 998,2 hPa 0,0 l/m 5,5 km/h (1 Bft) O-NO 71 0 min 0,000 mm 0,0 UV-I 0 W/m 16,2 C 18,6 C 8,0 km/h (2 Bft) 94,34 %
27.07.2019 22:54 18,7 C 27,2 C 17,2 C 86 % 998,2 hPa 0,0 l/m 5,5 km/h (1 Bft) O-NO 73 0 min 0,000 mm 0,0 UV-I 0 W/m 16,3 C 18,7 C 6,4 km/h (2 Bft) 91,67 %
27.07.2019 22:56 18,7 C 27,2 C 17,2 C 86 % 998,2 hPa 0,0 l/m 5,1 km/h (1 Bft) NO 55 0 min 0,000 mm 0,0 UV-I 0 W/m 16,3 C 18,7 C 6,4 km/h (2 Bft) 92,86 %
27.07.2019 22:58 18,6 C 27,2 C 17,2 C 86 % 998,3 hPa 0,0 l/m 4,7 km/h (1 Bft) NO 46 0 min 0,000 mm 0,0 UV-I 0 W/m 16,2 C 18,6 C 6,4 km/h (2 Bft) 97,87 %
27.07.2019 23:00 18,4 C 27,2 C 17,2 C 87 % 998,4 hPa 0,0 l/m 5,8 km/h (2 Bft) O-NO 61 0 min 0,000 mm 0,0 UV-I 0 W/m 16,2 C 18,4 C 8,0 km/h (2 Bft) 96,00 %
27.07.2019 23:02 18,3 C 27,2 C 17,2 C 87 % 998,3 hPa 0,0 l/m 5,5 km/h (1 Bft) NO 39 0 min 0,025 mm 0,0 UV-I 0 W/m 16,1 C 18,3 C 6,4 km/h (2 Bft) 97,44 %
27.07.2019 23:04 18,3 C 27,2 C 16,7 C 88 % 998,3 hPa 0,0 l/m 5,4 km/h (1 Bft) O-NO 59 0 min 0,000 mm 0,0 UV-I 0 W/m 16,3 C 18,3 C 6,4 km/h (2 Bft) 100,00 %
27.07.2019 23:06 18,3 C 27,2 C 16,7 C 88 % 998,3 hPa 0,0 l/m 5,7 km/h (1 Bft) NO 49 0 min 0,000 mm 0,0 UV-I 0 W/m 16,3 C 18,3 C 8,0 km/h (2 Bft) 100,00 %
27.07.2019 23:08 18,2 C 27,2 C 16,7 C 88 % 998,3 hPa 0,0 l/m 5,6 km/h (1 Bft) NO 42 0 min 0,000 mm 0,0 UV-I 0 W/m 16,2 C 18,2 C 8,0 km/h (2 Bft) 100,00 %
27.07.2019 23:10 18,2 C 27,2 C 16,7 C 89 % 998,3 hPa 0,0 l/m 7,3 km/h (2 Bft) NO 45 0 min 0,000 mm 0,0 UV-I 0 W/m 16,4 C 17,8 C 9,7 km/h (2 Bft) 100,00 %
27.07.2019 23:12 18,1 C 27,2 C 16,7 C 89 % 998,3 hPa 0,0 l/m 6,5 km/h (2 Bft) NO 48 0 min 0,000 mm 0,0 UV-I 0 W/m 16,3 C 18,1 C 9,7 km/h (2 Bft) 100,00 %
27.07.2019 23:14 18,1 C 27,2 C 16,7 C 89 % 998,4 hPa 0,0 l/m 6,3 km/h (2 Bft) NO 43 0 min 0,000 mm 0,0 UV-I 0 W/m 16,3 C 18,1 C 8,0 km/h (2 Bft) 100,00 %
27.07.2019 23:16 18,1 C 27,2 C 16,7 C 89 % 998,4 hPa 0,0 l/m 6,5 km/h (2 Bft) NO 42 0 min 0,000 mm 0,0 UV-I 0 W/m 16,3 C 18,1 C 8,0 km/h (2 Bft) 100,00 %
27.07.2019 23:18 18,1 C 27,2 C 16,7 C 89 % 998,4 hPa 0,0 l/m 5,9 km/h (2 Bft) O-NO 58 0 min 0,000 mm 0,0 UV-I 0 W/m 16,3 C 18,1 C 8,0 km/h (2 Bft) 100,00 %
27.07.2019 23:20 18,2 C 27,2 C 16,7 C 89 % 998,4 hPa 0,0 l/m 4,9 km/h (1 Bft) O-NO 72 0 min 0,000 mm 0,0 UV-I 0 W/m 16,4 C 18,2 C 6,4 km/h (2 Bft) 97,56 %
27.07.2019 23:22 18,1 C 27,2 C 16,7 C 89 % 998,5 hPa 0,0 l/m 5,0 km/h (1 Bft) O-NO 60 0 min 0,000 mm 0,0 UV-I 0 W/m 16,3 C 18,1 C 8,0 km/h (2 Bft) 98,39 %
27.07.2019 23:24 18,1 C 27,2 C 16,7 C 90 % 998,5 hPa 0,0 l/m 5,2 km/h (1 Bft) O-NO 64 0 min 0,000 mm 0,0 UV-I 0 W/m 16,4 C 18,1 C 6,4 km/h (2 Bft) 100,00 %
27.07.2019 23:26 18,1 C 26,7 C 16,7 C 90 % 998,5 hPa 0,0 l/m 4,1 km/h (1 Bft) O-NO 64 0 min 0,000 mm 0,0 UV-I 0 W/m 16,4 C 18,1 C 4,8 km/h (1 Bft) 100,00 %
27.07.2019 23:28 18,0 C 26,7 C 16,7 C 90 % 998,5 hPa 0,0 l/m 4,2 km/h (1 Bft) O-NO 65 0 min 0,000 mm 0,0 UV-I 0 W/m 16,3 C 18,0 C 6,4 km/h (2 Bft) 100,00 %
27.07.2019 23:30 18,0 C 26,7 C 16,7 C 90 % 998,5 hPa 0,0 l/m 4,8 km/h (1 Bft) O-NO 74 0 min 0,000 mm 0,0 UV-I 0 W/m 16,3 C 18,0 C 6,4 km/h (2 Bft) 100,00 %
27.07.2019 23:32 17,9 C 26,7 C 16,7 C 90 % 998,5 hPa 0,0 l/m 4,2 km/h (1 Bft) NO 44 0 min 0,000 mm 0,0 UV-I 0 W/m 16,2 C 17,9 C 6,4 km/h (2 Bft) 100,00 %
27.07.2019 23:34 17,8 C 26,7 C 16,7 C 90 % 998,4 hPa 0,0 l/m 5,1 km/h (1 Bft) NO 56 0 min 0,000 mm 0,0 UV-I 0 W/m 16,1 C 17,8 C 6,4 km/h (2 Bft) 100,00 %
27.07.2019 23:36 17,7 C 26,7 C 16,7 C 91 % 998,4 hPa 0,0 l/m 4,0 km/h (1 Bft) NO 56 0 min 0,000 mm 0,0 UV-I 0 W/m 16,2 C 17,7 C 4,8 km/h (1 Bft) 100,00 %
27.07.2019 23:38 17,7 C 26,7 C 16,1 C 91 % 998,4 hPa 0,0 l/m 3,6 km/h (1 Bft) O-NO 65 0 min 0,000 mm 0,0 UV-I 0 W/m 16,2 C 17,7 C 4,8 km/h (1 Bft) 100,00 %
27.07.2019 23:40 17,8 C 26,7 C 16,7 C 92 % 998,4 hPa 0,0 l/m 4,6 km/h (1 Bft) O 85 0 min 0,000 mm 0,0 UV-I 0 W/m 16,5 C 17,8 C 6,4 km/h (2 Bft) 97,44 %
27.07.2019 23:42 17,9 C 26,7 C 16,7 C 92 % 998,5 hPa 0,0 l/m 5,8 km/h (2 Bft) O-NO 73 0 min 0,000 mm 0,0 UV-I 0 W/m 16,6 C 17,9 C 8,0 km/h (2 Bft) 100,00 %
27.07.2019 23:44 17,9 C 26,7 C 16,7 C 92 % 998,4 hPa 0,0 l/m 7,1 km/h (2 Bft) O 88 0 min 0,000 mm 0,0 UV-I 0 W/m 16,6 C 17,6 C 9,7 km/h (2 Bft) 100,00 %
27.07.2019 23:46 18,0 C 26,7 C 17,2 C 92 % 998,4 hPa 0,0 l/m 7,9 km/h (2 Bft) O 84 0 min 0,000 mm 0,0 UV-I 0 W/m 16,7 C 17,3 C 12,9 km/h (3 Bft) 98,00 %
27.07.2019 23:48 18,0 C 26,7 C 17,2 C 92 % 998,4 hPa 0,0 l/m 7,5 km/h (2 Bft) O-NO 61 0 min 0,000 mm 0,0 UV-I 0 W/m 16,7 C 17,5 C 12,9 km/h (3 Bft) 97,37 %
27.07.2019 23:50 18,0 C 26,7 C 17,2 C 91 % 998,4 hPa 0,0 l/m 7,4 km/h (2 Bft) O-NO 76 0 min 0,000 mm 0,0 UV-I 0 W/m 16,5 C 17,5 C 9,7 km/h (2 Bft) 98,00 %
27.07.2019 23:52 17,9 C 26,7 C 17,2 C 91 % 998,4 hPa 0,0 l/m 7,3 km/h (2 Bft) O-NO 69 0 min 0,000 mm 0,0 UV-I 0 W/m 16,4 C 17,5 C 11,3 km/h (2 Bft) 100,00 %
27.07.2019 23:54 17,9 C 26,7 C 17,2 C 92 % 998,4 hPa 0,0 l/m 8,3 km/h (2 Bft) O-SO 114 0 min 0,000 mm 0,0 UV-I 0 W/m 16,6 C 17,0 C 11,3 km/h (2 Bft) 100,00 %
27.07.2019 23:56 17,9 C 26,7 C 17,2 C 92 % 998,4 hPa 0,0 l/m 8,3 km/h (2 Bft) O 88 0 min 0,000 mm 0,0 UV-I 0 W/m 16,6 C 17,0 C 12,9 km/h (3 Bft) 100,00 %
27.07.2019 23:58 17,9 C 26,7 C 17,2 C 92 % 998,3 hPa 0,0 l/m 9,0 km/h (2 Bft) O 88 0 min 0,000 mm 0,0 UV-I 0 W/m 16,6 C 16,7 C 12,9 km/h (3 Bft) 100,00 %
_ Min-Zeit 23:36 23:26 23:38 13:56 22:38 - 04:54 - - - - - - 01:06 23:58 04:54 00:02
Minimum _ 17,7 C 26,7 C 16,1 C 47 % 998,0 hPa - 0,0 km/h (0 Bft) - - - - - - 14,6 C 16,7 C 0,0 km/h (0 Bft) 15,38 %
_ Max-Zeit 13:44 00:00 13:40 23:40 00:06 00:00 17:02 - - 08:49 14:02 13:04 13:06 17:10 13:44 17:04 00:26
Maximum _ 28,8 C 28,3 C 43,9 C 92 % 1002,7 hPa 0,0 l/m 30,0 km/h
O-NO (5 Bft)
- - 3 min 0,559 mm 5,5 UV-I 952 W/m 18,8 C 28,8 C 41,8 km/h
O-SO (6 Bft)
100,00 %
Durchschnitt _ 23,0 C 27,5 C 25,2 C 68 % 1000,7 hPa #0,0 l/m 7,2 km/h (2 Bft) O-NO - #5:36 h #4,343 mm 2,7 UV-I 332 W/m 16,5 C 22,5 C 11,0 km/h (2 Bft) 97,48 %